[[{"header":{"parameterUnit":"m.s-1","parameterCategory":1,"la1":30.6,"la2":28.766,"lo1":-90.7593,"lo2":-88.6598,"dy":0.0162,"dx":0.0183,"nx":116,"ny":114,"refTime":"2023-05-25T00:00:00:Z","depth":0,"parameterNumber":2,"parameterNumberName":"U-component_of_WINDS"},"data":[0.0,0.0,0.0,0.0,0.0,0.0,0.0,0.0,0.0,0.0,0.0,0.0,0.0,0.0,0.0,0.0,0.0,0.0,0.0,0.0,0.0,0.0,0.0,0.0,0.0,0.0,0.0,0.0,0.0,0.0,0.0,0.0,0.0,0.0,0.0,0.0,0.0,0.0,0.0,0.0,0.0,0.0,0.0,0.0,0.0,0.0,0.0,0.0,0.0,0.0,0.0,0.0,0.0,0.0,0.0,0.0,0.0,0.0,0.0,0.0,0.0,0.0,0.0,0.0,0.0,0.0,0.0,0.0,0.0,0.0,0.0,0.0,0.0,0.0,0.0,0.0,0.0,0.0,0.0,0.0,0.0,0.0,0.0,0.0,0.0,0.0,0.0,0.0,0.0,0.0,0.0,0.0,0.0,0.0,0.0,0.0,0.0,0.0,0.0,0.0,0.0,0.0,0.0,0.0,0.0,0.0,0.0,0.0,0.0,0.0,0.0,0.0,0.0,0.0,0.0,0.0,0.0,0.0,0.0,0.0,0.0,0.0,0.0,0.0,0.0,0.0,0.0,0.0,0.0,0.0,0.0,0.0,0.0,0.0,0.0,0.0,0.0,0.0,0.0,0.0,0.0,0.0,0.0,0.0,0.0,0.0,0.0,0.0,0.0,0.0,0.0,0.0,0.0,0.0,0.0,0.0,0.0,0.0,0.0,0.0,0.0,0.0,0.0,0.0,0.0,0.0,0.0,0.0,0.0,0.0,0.0,0.0,0.0,0.0,0.0,0.0,0.0,0.0,0.0,0.0,0.0,0.0,0.0,0.0,0.0,0.0,0.0,0.0,0.0,0.0,0.0,0.0,0.0,0.0,0.0,0.0,0.0,0.0,0.0,0.0,0.0,0.0,0.0,0.0,0.0,0.0,0.0,0.0,0.0,0.0,0.0,0.0,0.0,0.0,0.0,0.0,0.0,0.0,0.0,0.0,0.0,0.0,0.0,0.0,0.0,0.0,0.0,0.0,0.0,0.0,0.0,0.0,0.0,0.0,0.0,0.0,0.0,0.0,0.0,0.0,0.0,0.0,0.0,0.0,0.0,0.0,0.0,0.0,0.0,0.0,0.0,0.0,0.0,0.0,0.0,0.0,0.0,0.0,0.0,0.0,0.0,0.0,0.0,0.0,0.0,0.0,0.0,0.0,0.0,0.0,0.0,0.0,0.0,0.0,0.0,0.0,0.0,0.0,0.0,0.0,0.0,0.0,0.0,0.0,0.0,0.0,0.0,0.0,0.0,0.0,0.0,0.0,0.0,0.0,0.0,0.0,0.0,0.0,0.0,0.0,0.0,0.0,0.0,0.0,0.0,0.0,0.0,0.0,0.0,0.0,0.0,0.0,0.0,0.0,0.0,0.0,0.0,0.0,0.0,0.0,0.0,0.0,0.0,0.0,0.0,0.0,0.0,0.0,0.0,0.0,0.0,0.0,0.0,0.0,0.0,0.0,0.0,0.0,0.0,0.0,0.0,0.0,0.0,0.0,0.0,0.0,0.0,0.0,0.0,0.0,0.0,0.0,0.0,0.0,0.0,0.0,0.0,0.0,0.0,0.0,0.0,0.0,0.0,0.0,0.0,0.0,0.0,0.0,0.0,0.0,0.0,0.0,0.0,0.0,0.0,0.0,0.0,0.0,0.0,0.0,0.0,0.0,0.0,0.0,0.0,0.0,0.0,0.0,0.0,0.0,0.0,0.0,0.0,0.0,0.0,0.0,0.0,0.0,0.0,0.0,0.0,0.0,0.0,0.0,0.0,0.0,0.0,0.0,0.0,0.0,0.0,0.0,0.0,0.0,0.0,0.0,0.0,0.0,0.0,0.0,0.0,0.0,0.0,0.0,0.0,0.0,0.0,0.0,0.0,0.0,0.0,0.0,0.0,0.0,0.0,0.0,0.0,0.0,0.0,0.0,0.0,0.0,0.0,0.0,0.0,0.0,0.0,0.0,0.0,0.0,0.0,0.0,0.0,0.0,0.0,0.0,0.0,0.0,0.0,0.0,0.0,0.0,0.0,0.0,0.0,0.0,0.0,0.0,0.0,0.0,0.0,0.0,0.0,0.0,0.0,0.0,0.0,0.0,0.0,0.0,0.0,0.0,0.0,0.0,0.0,0.0,0.0,0.0,0.0,0.0,0.0,0.0,0.0,0.0,0.0,0.0,0.0,0.0,0.0,0.0,0.0,0.0,0.0,0.0,0.0,0.0,0.0,0.0,0.0,0.0,0.0,0.0,0.0,0.0,0.0,0.0,0.0,0.0,0.0,0.0,0.0,0.0,0.0,0.0,0.0,0.0,0.0,0.0,0.0,0.0,0.0,0.0,0.0,0.0,0.0,0.0,0.0,0.0,0.0,0.0,0.0,0.0,0.0,0.0,0.0,0.0,0.0,0.0,0.0,0.0,0.0,0.0,0.0,0.0,0.0,0.0,0.0,0.0,0.0,0.0,0.0,0.0,0.0,0.0,0.0,0.0,0.0,0.0,0.0,0.0,0.0,0.0,0.0,0.0,0.0,0.0,0.0,0.0,0.0,0.0,0.0,0.0,0.0,0.0,0.0,0.0,0.0,0.0,0.0,0.0,0.0,0.0,0.0,0.0,0.0,0.0,0.0,0.0,0.0,0.0,0.0,0.0,0.0,0.0,0.0,0.0,0.0,0.0,0.0,0.0,0.0,0.0,0.0,0.0,0.0,0.0,0.0,0.0,0.0,0.0,0.0,0.0,0.0,0.0,0.0,0.0,0.0,0.0,0.0,0.0,0.0,0.0,0.0,0.0,0.0,0.0,0.0,0.0,0.0,0.0,0.0,0.0,0.0,0.0,0.0,0.0,0.0,0.0,0.0,0.0,0.0,0.0,0.0,0.0,0.0,0.0,0.0,0.0,0.0,0.0,0.0,0.0,0.0,0.0,0.0,0.0,0.0,0.0,0.0,0.0,0.0,0.0,0.0,0.0,0.0,0.0,0.0,0.0,0.0,0.0,0.0,0.0,0.0,0.0,0.0,0.0,0.0,0.0,0.0,0.0,0.0,0.0,0.0,0.0,0.0,0.0,0.0,0.0,0.0,0.0,0.0,0.0,0.0,0.0,0.0,0.0,0.0,0.0,0.0,0.0,0.0,0.0,0.0,0.0,0.0,0.0,0.0,0.0,0.0,0.0,0.0,0.0,0.0,0.0,0.0,0.0,0.0,0.0,0.0,0.0,0.0,0.0,0.0,0.0,0.0,0.0,0.0,0.0,0.0,0.0,0.0,0.0,0.0,0.0,0.0,0.0,0.0,0.0,0.0,0.0,0.0,0.0,0.0,0.0,0.0,0.0,0.0,0.0,0.0,0.0,0.0,0.0,0.0,0.0,0.0,0.0,0.0,0.0,0.0,0.0,0.0,0.0,0.0,0.0,0.0,0.0,0.0,0.0,0.0,0.0,0.0,0.0,0.0,0.0,0.0,0.0,0.0,0.0,0.0,0.0,0.0,0.0,0.0,0.0,0.0,0.0,0.0,0.0,0.0,0.0,0.0,0.0,0.0,0.0,0.0,0.0,0.0,0.0,0.0,0.0,0.0,0.0,0.0,0.0,0.0,0.0,0.0,0.0,0.0,0.0,0.0,0.0,0.0,0.0,0.0,0.0,0.0,0.0,0.0,0.0,0.0,0.0,0.0,0.0,0.0,0.0,0.0,0.0,0.0,0.0,0.0,0.0,0.0,0.0,0.0,0.0,0.0,0.0,0.0,0.0,0.0,0.0,0.0,0.0,0.0,0.0,0.0,0.0,0.0,0.0,0.0,0.0,0.0,0.0,0.0,0.0,0.0,0.0,0.0,0.0,0.0,0.0,0.0,0.0,0.0,0.0,0.0,0.0,0.0,0.0,0.0,0.0,0.0,0.0,0.0,0.0,0.0,0.0,0.0,0.0,0.0,0.0,0.0,0.0,0.0,0.0,0.0,0.0,0.0,0.0,0.0,0.0,0.0,0.0,0.0,0.0,0.0,0.0,0.0,0.0,0.0,0.0,0.0,0.0,0.0,0.0,0.0,0.0,0.0,0.0,0.0,0.0,0.0,0.0,0.0,0.0,0.0,0.0,0.0,0.0,0.0,0.0,0.0,0.0,0.0,0.0,0.0,0.0,0.0,0.0,0.0,0.0,0.0,0.0,0.0,0.0,0.0,0.0,0.0,0.0,0.0,0.0,0.0,0.0,0.0,0.0,0.0,0.0,0.0,0.0,0.0,0.0,0.0,0.0,0.0,0.0,0.0,0.0,0.0,0.0,0.0,0.0,0.0,0.0,0.0,0.0,0.0,0.0,0.0,0.0,0.0,0.0,0.0,0.0,0.0,0.0,0.0,0.0,0.0,0.0,0.0,0.0,0.0,0.0,0.0,0.0,0.0,0.0,0.0,0.0,0.0,0.0,0.0,0.0,0.0,0.0,0.0,0.0,0.0,0.0,0.0,0.0,0.0,0.0,0.0,0.0,0.0,0.0,0.0,0.0,0.0,0.0,0.0,0.0,0.0,0.0,0.0,0.0,0.0,0.0,0.0,0.0,0.0,0.0,0.0,0.0,0.0,0.0,0.0,0.0,0.0,0.0,0.0,0.0,0.0,0.0,0.0,0.0,0.0,0.0,0.0,0.0,0.0,0.0,0.0,0.0,0.0,0.0,0.0,0.0,0.0,0.0,0.0,0.0,0.0,0.0,0.0,0.0,0.0,0.0,0.0,0.0,0.0,0.0,0.0,0.0,0.0,0.0,0.0,0.0,0.0,0.0,0.0,0.0,0.0,0.0,0.0,0.0,0.0,0.0,0.0,0.0,0.0,0.0,0.0,0.0,0.0,0.0,0.0,0.0,0.0,0.0,0.0,0.0,0.0,0.0,0.0,0.0,0.0,0.0,0.0,0.0,0.0,0.0,0.0,0.0,0.0,0.0,0.0,0.0,0.0,0.0,0.0,0.0,0.0,0.0,0.0,0.0,0.0,0.0,0.0,0.0,0.0,0.0,0.0,0.0,0.0,0.0,0.0,0.0,0.0,0.0,0.0,0.0,0.0,0.0,0.0,0.0,0.0,0.0,0.0,0.0,0.0,0.0,0.0,0.0,0.0,0.0,0.0,0.0,0.0,0.0,0.0,0.0,0.0,0.0,0.0,0.0,0.0,0.0,0.0,0.0,0.0,0.0,0.0,0.0,0.0,0.0,0.0,0.0,0.0,0.0,0.0,0.0,0.0,0.0,0.0,0.0,0.0,0.0,0.0,0.0,0.0,0.0,0.0,0.0,0.0,0.0,0.0,0.0,0.0,0.0,0.0,0.0,0.0,0.0,0.0,0.0,0.0,0.0,0.0,0.0,0.0,0.0,0.0,0.0,0.0,0.0,0.0,0.0,0.0,0.0,0.0,0.0,0.0,0.0,0.0,0.0,0.0,0.0,0.0,0.0,0.0,0.0,0.0,0.0,0.0,0.0,0.0,0.0,0.0,0.0,0.0,0.0,0.0,0.0,0.0,0.0,0.0,0.0,0.0,0.0,0.0,0.0,0.0,0.0,0.0,0.0,0.0,0.0,0.0,0.0,0.0,0.0,0.0,0.0,0.0,0.0,0.0,0.0,0.0,0.0,0.0,0.0,0.0,0.0,0.0,0.0,0.0,0.0,0.0,0.0,0.0,0.0,0.0,0.0,0.0,0.0,0.0,0.0,0.0,0.0,0.0,0.0,0.0,0.0,0.0,0.0,0.0,0.0,0.0,0.0,0.0,0.0,0.0,0.0,0.0,0.0,0.0,0.0,0.0,0.0,0.0,0.0,0.0,0.0,0.0,0.0,0.0,0.0,0.0,0.0,0.0,0.0,0.0,0.0,0.0,0.0,0.0,0.0,0.0,0.0,0.0,0.0,0.0,0.0,0.0,0.0,0.0,0.0,0.0,0.0,0.0,0.0,0.0,0.0,0.0,0.0,0.0,0.0,0.0,0.0,0.0,0.0,0.0,0.0,0.0,0.0,0.0,0.0,0.0,0.0,0.0,0.0,0.0,0.0,0.0,0.0,0.0,0.0,0.0,0.0,0.0,0.0,0.0,0.0,0.0,0.0,0.0,0.0,2.0836,0.0,0.0,0.0,0.0,0.0,0.0,0.0,0.0,0.0,0.0,0.0,0.0,0.0,0.0,0.0,0.0,0.0,0.0,0.0,0.0,0.0,0.0,0.0,0.0,0.0,0.0,0.0,0.0,0.0,0.0,0.0,0.0,0.0,0.0,0.0,0.0,0.0,0.0,1.9708,1.9164,1.8646,1.8151,1.8689,1.8641,1.8062,0.0,0.0,0.0,0.0,0.0,0.0,0.0,0.0,0.0,0.0,0.0,0.0,0.0,0.0,0.0,0.0,0.0,0.0,0.0,0.0,0.0,0.0,0.0,0.0,0.0,0.0,0.0,0.0,0.0,0.0,0.0,0.0,0.0,0.0,0.0,0.0,0.0,0.0,0.0,0.0,0.0,0.0,0.0,0.0,0.0,0.0,0.0,0.0,0.0,0.0,0.0,0.0,0.0,0.0,0.0,0.0,0.0,0.0,0.0,0.0,0.0,0.0,0.0,0.0,0.0,0.0,0.0,0.0,0.0,0.0,0.0,2.2073,0.0,0.0,0.0,0.0,0.0,0.0,0.0,0.0,0.0,0.0,0.0,0.0,0.0,0.0,0.0,0.0,0.0,0.0,0.0,0.0,0.0,0.0,0.0,1.9901,1.9708,1.9708,1.9708,1.9708,0.0,0.0,0.0,0.0,0.0,0.0,1.9551,1.9118,1.9062,1.9415,1.8565,1.8287,1.8629,1.8976,1.8971,1.8633,1.7261,0.0,0.0,0.0,0.0,0.0,0.0,0.0,0.0,0.0,0.0,0.0,0.0,0.0,0.0,0.0,0.0,0.0,0.0,0.0,0.0,0.0,0.0,0.0,0.0,0.0,0.0,0.0,0.0,0.0,0.0,0.0,0.0,0.0,0.0,0.0,0.0,0.0,0.0,0.0,0.0,0.0,0.0,0.0,0.0,0.0,0.0,0.0,0.0,0.0,0.0,0.0,0.0,0.0,0.0,0.0,0.0,0.0,0.0,0.0,0.0,0.0,0.0,0.0,2.7058,2.7073,2.6736,2.6849,2.6522,2.5841,2.5678,2.4934,2.3823,0.0,0.0,0.0,0.0,0.0,0.0,0.0,0.0,0.0,0.0,0.0,0.0,0.0,0.0,0.0,0.0,0.0,0.0,0.0,0.0,0.0,0.0,1.9744,1.9708,1.9708,1.9708,1.9708,1.9708,0.0,0.0,0.0,0.0,0.0,1.9015,1.894,1.8722,1.8298,1.8239,1.8922,2.0283,1.9863,2.0167,2.0943,1.8413,1.81,1.9333,0.0,0.0,0.0,0.0,0.0,0.0,0.0,0.0,0.0,0.0,0.0,0.0,0.0,0.0,0.0,0.0,0.0,0.0,0.0,0.0,0.0,0.0,0.0,0.0,0.0,0.0,0.0,0.0,0.0,0.0,0.0,0.0,0.0,0.0,0.0,0.0,0.0,0.0,0.0,0.0,0.0,2.2283,2.1884,0.0,0.0,0.0,0.0,0.0,0.0,0.0,0.0,0.0,0.0,0.0,0.0,0.0,2.4777,2.4559,2.6384,2.7031,2.6541,2.8868,2.9591,2.8915,2.9498,3.0017,3.0402,2.9921,0.0,2.4654,2.3662,0.0,0.0,0.0,0.0,0.0,0.0,0.0,0.0,0.0,0.0,0.0,0.0,0.0,0.0,0.0,0.0,0.0,0.0,0.0,0.0,0.0,2.0028,2.0109,1.9729,2.0726,2.0906,1.9768,2.0417,0.0,0.0,0.0,1.9314,1.8453,1.876,1.8959,1.9068,2.003,2.0848,2.156,2.1616,2.1931,2.2332,2.084,1.9848,1.9271,1.7991,0.0,0.0,0.0,0.0,0.0,0.0,0.0,0.0,0.0,0.0,0.0,0.0,0.0,0.0,0.0,0.0,0.0,0.0,0.0,0.0,0.0,0.0,0.0,0.0,0.0,0.0,0.0,0.0,0.0,0.0,0.0,0.0,0.0,0.0,0.0,0.0,0.0,0.0,0.0,2.3422,2.4369,2.2921,2.4268,2.4358,0.0,0.0,0.0,0.0,0.0,0.0,0.0,0.0,0.0,2.5521,2.7122,2.811,2.8357,2.9893,3.085,3.1231,3.24,3.2713,3.2239,3.2517,3.2347,3.1785,3.1571,3.0006,2.7573,2.6677,2.5756,2.4931,0.0,0.0,0.0,0.0,2.4875,2.4827,0.0,0.0,0.0,0.0,0.0,0.0,0.0,0.0,0.0,0.0,0.0,0.0,1.9908,2.0557,2.0817,2.0516,2.1714,2.1802,2.012,2.0499,2.0147,1.876,1.9071,1.8932,1.8139,1.8782,1.9542,2.0448,2.1689,2.2527,2.2939,2.3213,2.3562,2.3942,2.3235,2.2035,2.0387,1.8995,1.8167,1.769,0.0,0.0,0.0,0.0,0.0,0.0,0.0,0.0,0.0,0.0,0.0,0.0,0.0,0.0,0.0,0.0,0.0,0.0,0.0,0.0,0.0,0.0,0.0,0.0,0.0,0.0,0.0,0.0,0.0,0.0,0.0,0.0,0.0,0.0,0.0,0.0,0.0,2.5058,2.5888,2.4294,2.6085,2.6404,0.0,0.0,0.0,0.0,0.0,0.0,2.6484,2.8251,2.8908,2.8054,2.9977,3.1252,3.1681,3.257,3.358,3.4647,3.4647,3.46,3.4536,3.4536,3.3926,3.2821,3.2566,3.1738,3.055,2.9143,2.7752,2.6468,2.6175,2.5986,2.6008,2.7172,2.7248,2.7004,0.0,0.0,0.0,0.0,0.0,0.0,0.0,0.0,0.0,0.0,0.0,1.9241,2.0509,2.1246,2.1884,2.2493,2.2184,2.1634,2.0878,1.9226,1.8254,1.8131,1.8161,1.8204,1.8189,1.9232,2.0557,2.2175,2.2277,2.3114,2.4661,2.4191,2.4804,2.6282,2.5164,2.4619,2.4264,2.0537,1.9848,2.0966,1.7791,0.0,0.0,0.0,0.0,0.0,0.0,0.0,0.0,0.0,0.0,0.0,0.0,0.0,0.0,0.0,0.0,0.0,0.0,0.0,0.0,0.0,0.0,0.0,0.0,0.0,0.0,0.0,0.0,0.0,0.0,0.0,0.0,0.0,0.0,0.0,0.0,0.0,0.0,2.5527,2.8025,0.0,0.0,0.0,0.0,2.7783,2.8619,2.9366,2.993,3.1738,3.2597,3.2208,3.2954,3.324,3.3017,3.3067,3.3395,3.395,3.395,3.4208,3.467,3.467,3.4648,3.4527,3.3517,3.3014,3.268,2.9461,2.7831,2.723,2.616,2.6106,2.6725,2.7309,2.7892,2.8393,0.0,0.0,0.0,0.0,0.0,0.0,0.0,0.0,2.0934,2.078,2.0312,2.0498,2.1854,2.2456,2.3055,2.3682,2.3278,2.248,2.1312,2.0079,1.9191,1.8709,1.8634,1.9152,2.0302,2.1035,2.206,2.3384,2.4085,2.4549,2.4789,2.4607,2.4844,2.5389,2.4986,2.4791,2.4666,2.2534,2.1164,2.0263,1.8744,1.769,0.0,0.0,0.0,0.0,0.0,0.0,0.0,0.0,0.0,0.0,0.0,0.0,0.0,0.0,0.0,0.0,0.0,0.0,0.0,0.0,0.0,0.0,0.0,0.0,0.0,0.0,0.0,0.0,0.0,0.0,0.0,0.0,0.0,0.0,0.0,0.0,0.0,2.8079,3.0294,0.0,2.8651,2.935,3.0278,3.1014,3.2182,3.3022,3.3403,3.4774,3.5198,3.4441,3.5378,3.5849,3.5753,3.6081,3.6182,3.6006,3.6006,3.5931,3.5803,3.5803,3.5579,3.5157,3.4427,3.3746,3.2986,3.1382,3.0554,3.0262,2.9847,2.9948,3.0371,3.0989,3.1002,3.0697,0.0,0.0,0.0,0.0,0.0,0.0,0.0,0.0,2.0575,2.0464,2.0588,2.1238,2.2705,2.3576,2.4346,2.5107,2.4197,2.3008,2.1639,2.0063,1.8873,1.8189,1.9016,2.0048,2.1199,2.2471,2.3504,2.4271,2.4789,2.4965,2.4796,2.4413,2.4413,2.4796,2.4623,2.4715,2.5016,2.4061,2.2611,2.0839,1.9943,1.9359,1.8919,0.0,0.0,0.0,0.0,0.0,0.0,0.0,0.0,0.0,0.0,0.0,0.0,0.0,0.0,0.0,0.0,0.0,0.0,0.0,0.0,0.0,0.0,0.0,0.0,0.0,0.0,0.0,0.0,0.0,0.0,0.0,0.0,0.0,0.0,0.0,3.1192,3.081,3.2885,3.3607,3.1748,3.2262,3.3138,3.4139,3.4909,3.5514,3.5867,3.6796,3.7036,3.6359,3.7086,3.7462,3.7462,3.7814,3.7814,3.7462,3.7462,3.721,3.6658,3.6658,3.6332,3.5757,3.5205,3.4552,3.3872,3.3273,3.2954,3.2765,3.201,3.1829,3.2072,3.2695,3.2554,3.2004,0.0,0.0,0.0,0.0,0.0,0.0,0.0,2.0175,1.9767,1.9458,2.02,2.1382,2.3055,2.4488,2.5751,2.6802,2.4845,2.3043,2.1862,1.9024,1.716,1.6651,1.9233,2.0741,2.0833,2.3444,2.4807,2.4792,2.4295,2.4284,2.4723,2.3606,2.3712,2.4745,2.4221,2.457,2.55,2.5012,2.4148,2.2981,2.1436,2.1404,2.2031,0.0,0.0,0.0,0.0,0.0,0.0,0.0,0.0,0.0,0.0,0.0,0.0,0.0,0.0,0.0,0.0,0.0,0.0,0.0,0.0,0.0,0.0,0.0,0.0,0.0,0.0,0.0,0.0,0.0,0.0,0.0,0.0,0.0,3.0293,3.1608,3.2836,3.3587,3.5711,3.645,3.4854,3.5579,3.641,3.703,3.6692,3.671,3.7188,3.7764,3.8015,3.7916,3.7966,3.7991,3.7991,3.7991,3.799,3.804,3.804,3.7739,3.7235,3.721,3.6909,3.6381,3.5757,3.5508,3.5458,3.4929,3.4703,3.4477,3.234,3.1486,3.1537,3.2064,3.2219,3.2194,0.0,0.0,0.0,0.0,0.0,0.0,1.9869,1.9844,1.9767,1.9458,2.0892,2.2443,2.3855,2.4998,2.6015,2.6832,2.3945,2.1945,2.1611,1.8561,1.7576,1.9447,2.0273,2.1831,2.4195,2.4507,2.4697,2.4805,2.4935,2.4522,2.3562,2.3234,2.3455,2.4062,2.3559,2.3712,2.4323,2.4661,2.4396,2.3727,2.3258,2.3009,2.2719,0.0,0.0,0.0,0.0,0.0,0.0,0.0,0.0,0.0,0.0,0.0,0.0,0.0,0.0,0.0,0.0,0.0,0.0,0.0,0.0,0.0,0.0,0.0,0.0,0.0,0.0,0.0,0.0,0.0,0.0,0.0,0.0,3.2503,3.1899,3.3975,3.5546,3.5622,3.7588,3.848,3.7192,3.7715,3.8204,3.8381,3.8641,3.8388,3.746,3.8954,3.8638,3.612,3.7101,3.7625,3.7625,3.7625,3.7998,3.8668,3.8668,3.8366,3.7764,3.7386,3.7135,3.6934,3.5932,3.5508,3.5458,3.4929,3.4703,3.4653,3.4025,3.3571,3.3219,3.337,3.2918,3.2194,0.0,0.0,0.0,0.0,0.0,0.0,1.9095,1.928,1.93,1.8944,2.097,2.2781,2.3702,2.463,2.5317,2.5656,2.3109,2.1206,2.0514,1.8844,1.8932,2.1281,2.2046,2.3287,2.5137,2.5012,2.4851,2.463,2.4873,2.4516,2.3649,2.3649,2.3786,2.4043,2.3767,2.3786,2.4088,2.4464,2.4728,2.4934,2.5427,2.5321,2.4646,2.2879,2.2713,2.3291,2.1931,2.1755,2.2024,2.1059,0.0,0.0,0.0,0.0,0.0,0.0,0.0,0.0,0.0,0.0,0.0,0.0,0.0,0.0,0.0,0.0,0.0,0.0,0.0,0.0,0.0,0.0,0.0,0.0,3.3836,3.5545,3.5153,3.6745,3.8097,3.8391,3.9597,4.0098,3.9445,3.9077,3.8883,3.8883,3.8594,3.8034,3.7168,3.8236,3.8233,3.6838,3.7003,3.7648,3.8741,3.8105,3.8238,3.9245,3.9245,3.8919,3.8366,3.8065,3.7788,0.0,3.6836,3.656,3.651,3.5981,3.5755,0.0,0.0,0.0,0.0,0.0,3.3345,3.2566,0.0,0.0,0.0,0.0,0.0,0.0,1.8297,1.8545,1.8616,1.8038,2.0489,2.2388,2.2605,2.3441,2.3897,2.3739,2.2221,2.0715,1.9284,1.9557,2.065,2.2566,2.3899,2.4671,2.4847,2.5231,2.5117,2.4492,2.459,2.4547,2.4391,2.4449,2.4492,2.4492,2.441,2.443,2.4492,2.441,2.4968,2.5991,2.7084,2.7489,2.7208,2.4708,2.5283,2.7185,2.5494,2.4349,2.3623,2.3449,0.0,0.0,0.0,0.0,0.0,0.0,0.0,0.0,0.0,0.0,0.0,0.0,0.0,0.0,0.0,0.0,0.0,0.0,0.0,0.0,0.0,0.0,0.0,0.0,3.7088,3.8733,3.9292,3.9707,4.0207,4.0812,4.1198,4.125,4.0936,3.9678,3.8821,3.8732,3.7508,3.6649,3.6365,0.0,0.0,0.0,0.0,3.7471,3.9853,3.8574,3.8476,3.9539,3.9695,3.9522,3.8994,3.8919,3.8617,3.809,3.804,3.8015,3.7965,3.7487,3.7311,3.7111,3.5431,3.4803,3.4728,3.4198,3.3696,3.3291,0.0,0.0,0.0,0.0,0.0,0.0,1.7209,1.8058,1.8256,1.671,1.9119,2.0673,1.9884,2.1146,2.2029,2.1999,2.084,2.0201,2.0365,2.0006,2.1288,2.4654,2.3882,2.426,2.6241,2.5869,2.5429,2.4965,2.5688,2.5469,2.4391,2.4809,2.4965,2.4945,2.457,2.4609,2.4945,2.457,2.4529,2.4759,2.4991,2.6454,2.8461,2.7968,2.7864,2.772,2.6038,2.6163,2.6917,2.5567,2.5509,2.577,2.4305,2.3291,0.0,0.0,0.0,0.0,0.0,0.0,0.0,0.0,0.0,0.0,0.0,0.0,0.0,0.0,0.0,0.0,0.0,0.0,0.0,3.7071,4.0002,4.2226,4.2765,4.215,4.0845,3.8713,4.0523,4.1034,3.8706,3.8625,3.8386,3.7576,3.7656,3.6868,3.4925,3.637,0.0,3.4034,3.4533,3.5216,3.6047,3.6668,3.7437,3.8419,0.0,0.0,3.9521,3.9095,3.8843,3.8693,3.8216,3.8015,3.799,3.7889,3.7839,3.7688,3.6008,3.5332,3.5282,3.4753,3.4477,3.4377,0.0,0.0,0.0,0.0,0.0,0.0,1.7126,1.8063,1.8311,1.6992,1.8769,1.9899,1.9084,1.9748,2.0137,1.9861,1.8942,1.9025,2.0608,2.0997,2.2411,2.5271,2.5037,2.555,2.7014,2.6383,2.6055,2.6035,2.6484,2.6367,2.5698,2.5747,2.5747,2.5747,2.5508,2.541,2.541,2.541,2.5273,2.5102,2.5742,2.6876,2.8164,2.7687,2.7531,2.7549,2.7298,2.7407,2.7611,2.7041,2.7218,2.7419,2.5737,2.4846,2.4247,0.0,0.0,0.0,0.0,0.0,0.0,0.0,0.0,0.0,0.0,0.0,0.0,0.0,0.0,3.2345,0.0,0.0,3.8332,4.0202,4.1645,4.2443,4.2096,4.1977,4.1476,4.0126,4.0455,4.0213,3.8803,3.8204,3.7675,3.7169,3.6652,3.5811,3.4621,3.55,3.5718,3.4977,3.4691,3.517,3.6496,3.6259,3.6958,3.8508,3.9322,3.9833,4.0099,3.9823,3.9546,3.9296,3.8969,3.8843,3.8818,3.8542,3.8266,3.7914,3.7087,3.6409,3.5931,3.5655,3.5203,3.4613,0.0,0.0,0.0,0.0,0.0,0.0,0.0,1.8009,1.8256,1.7207,1.835,1.9044,1.8434,1.8437,1.8393,1.8078,1.7703,1.8477,2.0848,2.2009,2.3492,2.5444,2.6154,2.6769,2.7325,2.6884,2.6797,2.7148,2.7201,2.7187,2.6986,2.6758,2.6582,2.6504,2.6504,2.6309,2.5991,2.6367,2.6309,2.6026,2.7056,2.7427,2.7282,2.6468,2.6618,2.7355,2.8168,2.782,2.7086,2.7846,2.8032,2.7745,2.6615,2.6088,2.5652,2.4182,2.3815,0.0,0.0,0.0,0.0,0.0,0.0,0.0,0.0,0.0,3.0163,3.1433,3.3052,3.4941,3.7179,3.8615,4.0136,4.2103,4.2215,4.1739,4.0841,4.115,4.1509,4.1669,4.036,3.9299,3.8864,3.773,3.6956,3.677,3.5638,3.4883,3.4707,3.4707,3.5348,3.6738,3.5413,3.5773,3.7954,3.6921,3.7389,3.9366,3.9603,4.0087,4.0827,4.07,4.0349,3.9848,3.9747,3.9697,3.9672,3.9245,3.8768,3.8341,3.8341,3.7566,3.6498,3.6637,3.5942,3.4751,0.0,0.0,0.0,0.0,0.0,0.0,0.0,0.0,1.7333,1.5744,1.6647,1.7057,1.6176,1.6493,1.6963,1.7437,1.8708,2.022,2.1988,2.2637,2.3861,2.5946,2.5896,2.6207,2.7013,2.7382,2.7565,2.7624,2.7995,2.7754,2.7031,2.7389,2.733,2.6928,2.6928,2.6889,2.685,2.6889,2.6889,2.6875,2.7027,2.6842,2.6512,2.6389,2.6962,2.7761,2.7421,2.6634,2.6022,2.7583,2.78,2.7519,2.8279,2.7896,2.6876,2.5686,2.434,2.3431,2.4487,2.5676,2.6966,2.833,2.8514,2.952,0.0,0.0,3.5204,3.6639,3.7564,3.803,3.7884,3.8394,3.9168,4.0251,4.1225,4.1906,4.2136,4.0979,4.0108,4.0142,3.9626,3.8491,3.6588,3.6621,3.6439,3.5671,3.5765,3.5527,3.4746,3.4707,3.4982,3.5559,3.5001,3.5721,3.7878,3.8803,3.9863,4.1144,4.2089,4.2346,4.1984,4.1428,4.0926,4.0374,3.9898,3.9697,3.9697,3.9622,3.9572,3.9496,3.9496,3.8328,3.677,3.7543,3.6923,3.565,0.0,0.0,0.0,0.0,0.0,0.0,0.0,0.0,0.0,1.5519,1.6363,1.6742,1.5805,1.6185,1.6611,1.6848,1.7909,1.9229,2.0751,2.193,2.3368,2.505,2.5985,2.6615,2.6986,2.7676,2.8054,2.8054,2.8203,2.7988,2.7428,2.7324,2.7187,2.6986,2.6758,2.6777,2.6986,2.6986,2.6986,2.6986,2.6986,2.6758,2.6367,2.6113,2.5655,2.5223,2.5616,2.5167,0.0,2.6306,2.6946,2.7176,2.8132,2.7695,2.6608,2.5485,2.4867,2.4984,2.6987,2.8484,2.9777,3.0986,3.2097,3.3416,3.5476,3.5987,3.6251,3.7195,3.7819,3.8325,3.8765,3.9513,4.0275,0.0,4.0891,4.0746,4.0939,3.9468,3.8119,3.7354,3.7555,3.7468,3.6827,3.6934,3.6894,3.6523,3.6445,3.623,3.5859,3.584,3.582,3.5762,3.582,3.6054,3.6428,3.7909,3.9258,4.0425,4.1904,4.2614,4.2663,4.2384,4.1656,4.0501,4.0275,3.9626,3.8759,3.852,3.8041,3.7449,3.722,3.664,3.601,3.691,3.6092,3.4413,0.0,0.0,0.0,0.0,0.0,0.0,0.0,0.0,0.0,0.0,1.6211,1.6383,1.5754,1.6185,1.65,1.65,1.7171,1.8125,1.9402,2.1054,2.2575,2.3831,2.564,2.6635,2.6635,2.7617,2.8125,2.8125,2.8242,2.8144,2.7858,2.7519,2.7363,2.7363,2.7051,2.709,2.7363,2.7363,2.7363,2.7363,2.7246,2.6875,2.6309,2.5601,2.4297,2.2942,2.3714,2.3265,2.2532,2.4324,2.5165,2.5684,2.6845,2.6758,2.6105,2.546,2.5762,2.667,2.8359,3.0129,3.1659,3.2456,3.4302,3.5904,3.5867,3.6307,3.6923,3.7599,3.7677,3.7898,3.8885,3.9356,3.9778,4.0319,3.9807,3.9363,3.9363,3.8067,3.6738,3.5684,3.5898,3.6289,3.6738,3.709,3.7246,3.7129,3.7051,3.6973,3.689,3.6871,3.6641,3.6211,3.6504,3.6583,3.6283,3.7493,3.9001,4.0821,4.1791,4.2734,4.3693,4.3215,4.2261,4.0926,4.0324,3.9396,3.8268,3.7559,3.6782,3.6072,3.577,3.5324,3.4946,3.5608,3.4832,3.3328,0.0,0.0,0.0,0.0,0.0,0.0,0.0,0.0,0.0,0.0,0.0,0.0,0.0,1.6185,1.65,1.65,1.6996,1.7695,1.8567,2.0261,2.1635,2.2521,2.4606,2.5732,2.5732,2.7031,2.7702,2.7702,2.8112,2.8281,2.8281,2.8262,2.8262,2.8262,2.8242,2.8242,2.8262,2.8262,2.8262,2.8223,2.7839,2.7174,2.625,2.4941,2.3398,2.1935,2.1976,2.0787,1.9523,2.1477,2.2134,2.2478,2.4316,2.5218,2.5753,2.6298,2.7211,2.7921,2.748,2.9328,3.1419,3.1532,3.3549,3.552,3.5518,3.6673,3.8088,3.919,3.8212,3.7285,3.7864,3.697,3.6323,3.6774,3.7469,3.7962,3.7962,3.7242,3.6558,3.6055,3.5273,3.4941,0.0,3.6562,3.7129,3.6753,3.7441,3.7715,3.7305,3.7285,3.709,3.6695,3.6695,3.7283,3.8498,3.8543,4.0267,4.3566,4.26,4.3257,4.5347,4.3743,4.2688,4.203,3.9875,3.8919,3.8753,3.7241,3.6608,3.6579,3.6579,3.5409,3.3757,3.3794,3.3499,3.312,0.0,0.0,0.0,0.0,0.0,0.0,0.0,0.0,0.0,0.0,0.0,0.0,0.0,0.0,0.0,0.0,1.6835,1.701,1.7676,1.9342,2.0573,2.1212,2.3555,2.484,2.484,2.5835,2.6523,2.6842,2.6953,2.7031,2.7031,2.7031,2.7031,2.7012,2.6693,2.707,2.7858,2.7266,2.7187,2.7383,2.668,2.5859,2.4941,2.363,2.1914,2.0115,0.0,1.9322,1.9213,1.9957,2.0703,2.1625,2.3176,2.3562,2.3753,2.5427,2.6052,2.6731,2.8943,3.0589,3.1979,3.3321,3.5152,3.6799,3.748,3.7723,3.774,3.7535,3.6235,3.4988,3.4599,3.4369,3.4629,3.5664,3.6543,3.7285,3.7816,3.7676,3.6816,3.4941,3.5234,0.0,0.0,0.0,0.0,3.7051,3.7344,3.7578,3.7715,3.7715,3.7519,3.709,3.7363,3.8002,3.8992,4.0168,4.1171,4.202,4.1294,4.1161,4.1618,4.0695,3.9803,3.8958,3.8229,3.7296,3.6253,3.548,3.4719,3.4033,3.3776,3.3273,3.2704,3.2704,3.2424,3.2024,0.0,0.0,0.0,0.0,0.0,0.0,0.0,0.0,0.0,0.0,0.0,0.0,0.0,0.0,0.0,0.0,0.0,1.5888,1.678,1.7705,1.8509,1.9177,2.1191,2.2323,2.2323,2.3181,2.3923,2.4551,2.4707,2.5019,2.5469,2.5469,2.5649,2.5923,2.5625,2.6055,2.6934,2.6236,2.5898,2.5781,2.4742,2.3708,2.2635,2.123,1.9629,0.0,1.7389,1.7552,1.8128,1.8642,1.9403,2.0375,2.1453,2.2366,2.3273,2.4564,2.5884,2.7502,3.0125,3.1551,3.2726,3.4335,3.5836,3.6963,3.7216,3.6978,3.6415,3.5383,3.3973,3.2715,3.1992,3.1953,3.2519,3.4004,3.4857,3.5742,3.7016,3.6836,3.6113,3.4902,3.5098,3.4902,0.0,0.0,0.0,3.6777,3.7402,3.7812,3.7874,3.8223,3.8125,3.7539,3.7773,3.8442,3.9508,3.996,4.0272,4.0421,4.0706,4.0503,3.9833,3.9542,3.8849,3.7903,3.7338,3.6411,3.5214,3.4378,3.3638,3.2988,3.2715,3.2519,3.2413,3.2413,3.2129,3.1699,0.0,0.0,0.0,0.0,0.0,0.0,0.0,0.0,0.0,0.0,0.0,0.0,0.0,0.0,0.0,0.0,0.0,0.0,1.5841,1.5574,1.5752,1.6617,1.7854,1.8539,1.8539,1.9376,2.0215,2.1054,2.1523,2.2344,2.3555,2.3555,2.4027,2.4789,2.4789,2.5019,2.5386,2.4961,2.432,2.3457,2.2187,2.0918,1.9591,1.7966,1.6805,1.6004,1.5355,1.5579,1.6385,1.7559,1.8379,1.8946,1.9417,2.1705,2.4202,2.4062,2.6779,3.0032,3.0958,3.2218,3.3551,3.4587,3.5552,3.593,3.4916,3.4629,3.4199,3.293,3.1621,3.0586,0.0,0.0,3.0126,3.1905,3.2598,3.3691,3.5806,3.5117,3.4805,0.0,0.0,0.0,0.0,0.0,0.0,3.606,0.0,3.8379,3.7972,3.8769,3.8809,3.7952,3.7933,3.8637,4.0093,3.8317,3.7992,3.9075,4.0715,4.0985,3.9926,4.0031,3.9561,3.8634,3.7061,3.6133,3.5602,3.4027,3.3386,3.3386,3.3386,3.3184,3.2832,3.2832,3.2589,3.2179,0.0,0.0,0.0,0.0,0.0,0.0,0.0,0.0,0.0,0.0,0.0,0.0,0.0,0.0,0.0,0.0,0.0,0.0,1.5055,1.5071,1.5294,1.592,1.709,1.7695,1.7695,1.8223,1.8732,1.926,1.9377,1.9786,2.0449,2.0449,2.0566,2.0781,2.0781,2.0996,2.1347,2.0937,2.0644,2.0371,1.9394,1.8613,1.7927,1.6848,1.6173,1.5731,1.5275,1.5653,1.6573,1.8135,1.9861,2.1409,2.153,2.2386,2.3811,2.6213,2.7772,2.9306,3.194,3.3024,3.3667,3.493,3.5196,3.5039,3.4766,3.3711,3.2472,3.1133,2.9618,2.8288,2.75,0.0,0.0,3.1807,3.3645,0.0,3.7617,3.8203,0.0,3.709,0.0,3.7183,3.6441,3.6914,0.0,0.0,3.7851,3.832,3.8848,3.9082,3.8965,3.8418,3.8418,3.9062,4.0382,3.9634,3.9371,3.9657,3.8528,3.7854,3.7543,3.6929,3.6537,3.6208,3.5176,3.4624,3.4453,3.3713,3.3386,3.3386,3.3386,3.3328,3.3262,3.3262,3.2988,3.2617,0.0,0.0,0.0,0.0,0.0,0.0,0.0,0.0,0.0,0.0,0.0,0.0,0.0,0.0,0.0,0.0,0.0,0.0,0.0,1.4206,1.4204,1.4503,1.5099,1.5425,1.5425,1.5659,1.6055,1.6629,1.6629,1.7054,1.7905,1.7905,1.8103,1.8474,1.8474,1.8691,1.9025,1.865,1.824,0.0,0.0,1.6394,1.6005,1.533,1.5008,1.4863,1.49,1.6206,1.8097,1.9351,2.0908,2.2416,2.2979,2.4115,2.5606,2.7769,2.937,3.0878,3.2793,3.3624,3.416,3.4902,3.4746,3.4238,3.3476,3.2266,3.0723,2.8652,2.735,2.6236,2.5156,2.6016,2.7682,0.0,0.0,0.0,3.7379,3.82,3.8476,0.0,3.8672,0.0,3.8125,3.834,3.8652,0.0,3.8887,3.8906,3.918,4.017,4.0528,4.0085,3.9883,3.9733,3.9648,4.0228,4.0138,3.9318,3.7896,3.7226,3.7187,3.6348,3.5859,3.5625,0.0,3.4531,3.4336,3.4082,3.3867,3.373,3.3906,3.3867,3.373,3.3926,3.3711,3.3359,0.0,0.0,0.0,0.0,0.0,0.0,0.0,0.0,0.0,0.0,0.0,0.0,0.0,0.0,0.0,0.0,0.0,0.0,0.0,0.0,1.3082,1.3232,1.31,1.3066,1.3138,1.3138,1.3484,1.4188,1.411,1.4655,1.5787,1.5787,1.6156,1.6809,1.6888,1.7069,1.7305,1.6934,1.6425,1.5728,1.4978,1.459,1.4412,0.0,1.3921,1.4013,1.4669,1.6771,1.9419,2.0743,2.1891,2.3001,2.433,2.6303,2.8282,2.9107,3.1145,3.3201,3.3552,3.4219,3.4766,3.4726,3.4297,3.3489,3.1738,3.0391,2.875,2.601,2.498,2.4261,2.3142,2.4121,2.5864,2.8164,0.0,3.2519,3.6499,3.7047,3.7809,3.9824,3.9707,3.9629,4.0019,3.9707,3.9785,4.0547,4.0273,3.9863,3.9394,4.1408,4.2428,4.2003,4.1605,4.0525,3.8689,4.0197,4.0157,3.8611,3.8125,3.7913,3.7969,3.709,3.6484,3.6118,0.0,0.0,3.4785,3.4726,3.4473,3.4231,3.4551,3.4473,3.4231,3.457,3.4466,3.4114,0.0,0.0,0.0,0.0,0.0,0.0,0.0,0.0,0.0,0.0,1.5477,1.502,0.0,0.0,0.0,0.0,0.0,0.0,0.0,0.0,0.0,1.4465,1.3993,1.3936,1.4376,1.4398,1.4452,1.4603,1.4104,1.3976,1.4204,1.4204,1.4008,1.3691,1.4188,1.4198,1.3783,1.3704,1.3886,1.4183,1.4038,1.4245,1.4636,1.4559,0.0,0.0,1.5615,1.6031,1.6834,2.1179,2.3804,2.5492,2.6724,2.7858,2.9112,3.1055,3.2202,3.3209,3.4655,3.5156,3.5176,3.4805,3.3848,3.2559,3.082,2.8105,2.563,2.4375,2.2949,2.1913,2.207,2.3753,2.6138,2.9336,3.1328,3.3945,3.8164,3.8769,3.9316,0.0,4.0879,4.0898,4.0976,4.0917,0.0,0.0,0.0,4.0762,4.0312,4.1755,4.2428,4.2003,4.2027,4.1105,3.9138,3.9059,3.8918,3.8611,3.8125,3.8105,3.8418,3.7262,3.6851,3.7012,3.5879,0.0,3.5234,3.4863,3.4648,3.459,3.4668,3.4648,3.459,3.4668,3.4466,3.4114,0.0,0.0,0.0,0.0,0.0,0.0,0.0,1.5616,1.5591,1.5922,1.5739,1.5384,1.4924,1.4247,0.0,0.0,0.0,0.0,0.0,0.0,0.0,1.3896,1.36,1.3561,1.3805,1.3827,1.396,1.4272,0.0,1.3986,1.4271,1.4271,1.4097,1.3848,1.4132,1.4097,1.3836,1.3836,1.4013,1.4271,1.4271,1.4629,1.5175,1.5175,0.0,0.0,1.5007,1.5685,1.6919,2.0032,2.2894,2.5538,2.7937,2.9394,3.0576,3.2324,3.3125,3.3789,3.5312,3.5723,3.5508,3.459,3.3242,3.1504,2.9082,2.6387,2.3987,2.2443,2.1641,2.1132,2.0898,2.2988,2.543,2.7513,2.9512,3.2285,3.6601,3.7402,3.8359,4.0566,4.1035,4.1211,0.0,4.1211,0.0,0.0,0.0,4.1074,4.0879,4.2205,4.3261,4.3874,4.2741,4.1279,3.9608,3.8906,3.8728,3.8887,3.8457,3.8379,3.8591,3.7695,3.7324,3.7246,3.6426,0.0,3.5703,3.5488,3.5254,3.5078,3.5293,3.5254,3.5078,3.5312,3.4961,3.4394,0.0,0.0,0.0,0.0,0.0,0.0,0.0,1.5188,1.5325,1.5723,1.5775,1.5569,1.5037,1.4149,1.3523,0.0,0.0,0.0,0.0,0.0,0.0,0.0,0.0,0.0,1.3662,0.0,0.0,1.459,1.4335,0.0,0.0,0.0,0.0,0.0,1.4835,1.4812,1.4698,1.4698,1.4766,0.0,0.0,1.5254,0.0,0.0,0.0,0.0,0.0,1.5256,1.6953,1.8709,2.1133,2.404,2.7545,2.9774,3.1328,3.2539,3.3437,3.4349,3.543,3.5767,3.5566,3.4258,3.25,3.0332,2.7376,2.4922,2.2676,2.0723,2.0508,2.0489,2.0001,2.1991,2.4157,2.5479,2.7279,3.003,3.4492,3.5644,3.7109,0.0,4.0859,0.0,4.1211,4.1211,0.0,0.0,0.0,0.0,4.1614,4.2734,4.3836,4.4918,4.3063,4.1346,3.992,3.906,3.8789,3.9199,3.8769,3.8611,3.8591,3.8125,3.7734,3.7402,3.6894,0.0,0.0,3.6021,3.582,3.5566,3.5898,3.582,3.5566,3.5864,3.5527,3.4824,0.0,0.0,0.0,0.0,0.0,0.0,0.0,1.5105,1.5293,1.5121,1.503,1.4878,1.4605,1.4764,1.4301,0.0,0.0,0.0,0.0,0.0,0.0,0.0,0.0,0.0,0.0,0.0,0.0,1.6811,1.5759,0.0,0.0,0.0,0.0,0.0,0.0,1.522,1.4698,1.4698,0.0,0.0,0.0,0.0,0.0,0.0,0.0,0.0,0.0,1.4389,1.4894,1.8184,1.9746,2.0918,2.4418,2.7467,2.995,3.0859,3.255,3.4212,3.4687,3.5137,3.5137,3.3809,3.1601,2.909,2.642,2.3552,2.1054,1.9687,1.9103,1.9046,1.9766,2.0781,2.2418,2.5226,2.6537,2.8828,3.3567,3.5254,3.6992,3.9648,0.0,0.0,4.1211,0.0,0.0,0.0,0.0,0.0,4.3023,4.3371,4.3305,4.2894,4.2415,4.1476,3.992,3.906,3.8789,3.9199,3.8769,3.8611,3.8591,3.8125,3.7874,3.7777,3.7012,0.0,0.0,3.6191,3.5962,3.5942,3.5996,3.5962,3.5942,3.5982,3.5723,3.5273,0.0,0.0,0.0,0.0,0.0,0.0,1.5388,1.5632,1.5723,1.5845,1.577,1.5418,1.4583,1.4759,1.4339,0.0,0.0,0.0,0.0,0.0,0.0,0.0,0.0,0.0,0.0,0.0,1.5276,1.6034,1.555,0.0,0.0,0.0,0.0,0.0,0.0,1.6489,1.6242,1.5919,0.0,0.0,0.0,0.0,0.0,0.0,0.0,0.0,0.0,0.0,1.5602,1.6329,1.7715,1.9279,2.0195,2.2717,2.5957,2.9188,3.125,3.2851,3.4316,3.5039,3.5078,3.3718,3.1289,2.8496,2.5918,2.2988,2.0469,1.9142,1.8947,1.9141,1.9473,2.0449,2.1756,2.3493,2.4059,2.5684,2.9696,3.1094,3.3184,3.709,3.8535,0.0,0.0,0.0,0.0,0.0,0.0,0.0,4.3748,4.2733,4.2981,4.4852,4.2235,4.0629,4.0273,3.9141,3.8926,3.9609,3.8943,3.8611,3.8611,3.8398,3.8027,3.7539,3.7461,0.0,0.0,3.6367,3.625,3.5982,3.5982,3.5982,3.5982,3.5982,3.5762,3.5332,0.0,0.0,0.0,0.0,0.0,1.4415,1.562,1.5908,1.5912,1.5836,1.5969,1.5632,1.4444,1.4512,1.4257,1.335,0.0,0.0,0.0,0.0,0.0,0.0,0.0,0.0,0.0,0.0,1.5341,1.6045,1.5986,1.6388,0.0,0.0,1.7261,1.749,0.0,0.0,0.0,0.0,0.0,0.0,0.0,0.0,0.0,0.0,0.0,0.0,0.0,0.0,0.0,0.0,0.0,1.7425,1.7106,1.8846,2.1875,2.6348,2.9219,3.1289,3.293,3.3984,3.4336,3.3144,3.0655,2.7871,2.5297,2.258,2.0175,1.8732,1.8691,1.8984,1.9256,2.0039,2.1015,2.2148,2.2518,2.3867,2.7233,2.8613,3.0752,3.4752,0.0,0.0,0.0,0.0,0.0,0.0,0.0,0.0,0.0,4.2762,4.2327,4.5244,4.1531,3.9707,4.0117,3.9101,3.8982,3.9687,3.8962,3.8611,3.8611,3.8474,3.8047,3.75,0.0,0.0,0.0,3.6543,3.6406,3.5982,3.5982,3.5982,3.5982,3.5982,3.584,3.5508,0.0,0.0,0.0,0.0,0.0,0.0,1.5098,1.5667,1.5706,1.4584,1.512,1.5172,1.4016,1.4101,1.4134,1.3913,0.0,0.0,0.0,0.0,0.0,0.0,0.0,0.0,0.0,0.0,1.6707,1.7766,1.7577,1.7474,1.7487,1.7205,1.6738,1.6127,0.0,0.0,0.0,0.0,0.0,0.0,0.0,0.0,0.0,0.0,0.0,0.0,0.0,0.0,0.0,0.0,0.0,0.0,0.0,1.6731,1.822,2.2049,2.623,2.9715,3.0128,3.1494,3.2617,3.1758,2.959,2.7018,2.4418,2.215,2.0097,1.8359,1.801,1.8281,1.9139,1.9315,1.9902,2.1622,2.2576,2.4176,2.7272,2.9149,3.0996,0.0,0.0,0.0,0.0,0.0,0.0,0.0,0.0,0.0,0.0,4.3917,4.1221,4.2769,4.0084,3.8789,3.9219,3.8789,3.8789,3.9199,3.8769,3.8611,3.8591,3.8125,3.7894,0.0,0.0,0.0,0.0,3.6714,3.6406,3.5982,3.5982,3.5982,3.5982,3.5982,3.5982,3.5957,0.0,0.0,0.0,0.0,0.0,0.0,0.0,1.5333,1.5233,1.4753,1.4806,1.4686,1.4111,1.3745,1.3709,1.4214,0.0,0.0,0.0,0.0,0.0,0.0,0.0,0.0,0.0,0.0,1.7203,1.7882,1.7817,1.8143,1.8797,1.823,1.7954,1.7847,1.7012,0.0,0.0,0.0,0.0,0.0,0.0,0.0,0.0,0.0,0.0,0.0,0.0,0.0,0.0,0.0,0.0,0.0,0.0,0.0,0.0,1.8934,2.2584,2.6269,2.7324,2.8437,2.9031,2.7825,2.6289,2.4515,2.2479,2.1055,1.9893,1.9049,1.9107,1.9377,1.9646,2.0198,2.0977,2.2135,2.2752,2.3864,2.603,0.0,0.0,3.3094,3.796,0.0,0.0,0.0,0.0,0.0,0.0,0.0,0.0,4.6007,4.4272,4.4766,4.102,3.9062,3.9199,3.8789,3.8789,3.9199,3.8769,3.8611,3.8591,3.8125,0.0,0.0,0.0,0.0,0.0,3.7007,3.6855,3.6445,3.6133,3.5982,3.5982,3.5982,3.5982,3.5923,0.0,0.0,0.0,0.0,0.0,0.0,0.0,1.5265,1.5099,1.4923,1.4851,1.4698,1.4439,1.4087,1.3924,1.4092,0.0,0.0,0.0,0.0,0.0,0.0,0.0,0.0,0.0,1.6446,1.7075,1.7848,1.8,1.8522,1.9431,1.9136,1.8788,1.836,1.7604,1.7038,0.0,0.0,0.0,0.0,0.0,0.0,1.7227,0.0,0.0,0.0,0.0,0.0,0.0,0.0,0.0,0.0,0.0,0.0,0.0,0.0,1.9373,2.2127,2.4473,2.6008,2.6635,2.5306,2.4141,2.2938,2.1471,2.0474,1.9781,1.9498,1.9656,1.994,2.0321,2.0713,2.1354,2.2611,2.2707,2.343,2.5693,0.0,0.0,3.3301,0.0,0.0,0.0,0.0,0.0,0.0,0.0,0.0,0.0,4.5598,4.4302,4.4395,4.0881,3.8965,3.8965,3.94,3.94,3.9002,3.9436,3.9261,3.8591,3.7969,0.0,0.0,0.0,0.0,0.0,3.6894,3.6816,3.6406,3.6133,3.5982,3.5982,3.5982,3.5982,3.5942,0.0,0.0,0.0,0.0,0.0,0.0,0.0,0.0,1.5261,1.5121,1.5133,1.5047,1.4933,1.4852,1.4529,1.3789,0.0,0.0,0.0,0.0,0.0,0.0,0.0,0.0,0.0,1.595,1.6615,1.789,1.8232,1.8851,1.9643,1.9906,1.9311,1.7973,1.7916,1.7336,1.6487,0.0,0.0,0.0,0.0,0.0,0.0,0.0,0.0,0.0,0.0,0.0,0.0,0.0,0.0,0.0,0.0,0.0,0.0,0.0,0.0,0.0,0.0,2.3867,2.4908,2.3694,2.2806,2.1987,2.1071,2.0291,0.0,1.9729,1.9775,2.0089,2.1128,2.1012,2.1403,2.3231,2.2746,2.3204,0.0,2.7827,0.0,0.0,0.0,0.0,0.0,0.0,0.0,0.0,0.0,0.0,0.0,4.3478,4.2156,4.2099,3.9783,3.8591,3.8611,4.0264,4.0264,3.8611,4.03,4.0228,3.8591,3.7695,0.0,0.0,0.0,0.0,0.0,3.6504,3.6426,3.6055,3.6001,3.5982,3.5982,3.5982,3.5982,3.5982,0.0,0.0,0.0,0.0,0.0,0.0,0.0,0.0,0.0,0.0,1.5284,1.5188,1.5088,1.4448,1.4209,0.0,0.0,0.0,0.0,0.0,0.0,0.0,0.0,0.0,0.0,1.6418,1.7562,1.864,1.9279,2.0104,2.1085,2.0665,1.983,1.8651,1.8134,1.8047,1.8293,1.8611,0.0,0.0,0.0,0.0,0.0,0.0,0.0,0.0,1.5631,1.4698,0.0,0.0,0.0,0.0,0.0,0.0,0.0,0.0,1.645,1.7479,1.8617,0.0,2.0137,1.958,1.9525,1.9553,0.0,1.9524,1.9726,2.0018,2.0412,2.1027,2.2144,2.2538,2.3354,2.5402,2.504,2.5348,2.7855,0.0,0.0,0.0,0.0,0.0,0.0,0.0,0.0,0.0,0.0,0.0,0.0,4.5003,4.2918,4.1095,3.9089,3.8242,3.8611,3.9027,3.9027,3.8611,3.9027,3.9027,3.8591,3.7695,0.0,0.0,0.0,0.0,3.6523,3.6656,3.6656,3.6484,3.6152,3.5982,3.5982,3.5982,3.5982,3.5982,0.0,0.0,0.0,0.0,0.0,0.0,0.0,0.0,0.0,0.0,0.0,0.0,0.0,0.0,0.0,0.0,0.0,0.0,0.0,0.0,0.0,0.0,0.0,1.4996,1.4624,1.5731,1.7027,1.8518,1.9189,2.0316,2.1904,2.1533,2.0874,1.9918,1.8838,1.8759,1.939,1.939,1.9759,2.0335,2.0814,0.0,0.0,0.0,0.0,0.0,1.5982,1.5174,0.0,1.3991,1.432,1.4849,0.0,0.0,0.0,0.0,1.6218,1.6621,1.7038,1.8394,1.9561,1.8992,1.9206,1.9624,1.9825,1.968,1.9679,2.0296,2.0868,2.1565,2.2677,2.3327,2.4406,2.651,2.6562,0.0,0.0,0.0,0.0,0.0,0.0,0.0,0.0,0.0,0.0,0.0,0.0,0.0,0.0,4.4232,4.2551,3.9505,3.8248,3.7851,3.8281,3.9306,3.9405,3.8611,3.9442,3.9306,3.8262,3.7598,3.7187,0.0,0.0,0.0,3.6367,3.6367,3.6367,3.6348,3.6113,3.5982,3.5982,3.5982,3.5982,3.5982,0.0,0.0,0.0,0.0,0.0,0.0,0.0,0.0,0.0,0.0,0.0,0.0,0.0,0.0,0.0,0.0,0.0,0.0,0.0,0.0,0.0,0.0,0.0,1.4568,1.4589,1.4987,1.6203,1.8314,1.8932,2.0265,2.218,2.2386,2.1955,2.0953,1.9525,1.9249,1.9839,1.9839,1.9701,1.9557,2.0434,0.0,0.0,0.0,0.0,0.0,0.0,0.0,0.0,1.4283,1.4906,1.5916,1.4889,0.0,0.0,0.0,0.0,0.0,1.6658,1.8936,2.0834,1.9725,2.0038,2.0672,2.0896,2.0313,1.9934,2.0682,2.1306,2.2096,2.3271,2.4132,2.539,2.7562,0.0,0.0,0.0,0.0,0.0,0.0,0.0,0.0,0.0,0.0,0.0,0.0,0.0,0.0,0.0,4.2776,4.1683,3.8212,3.7524,3.7363,3.7699,3.9775,4.0019,3.8513,4.0055,3.9744,3.7874,3.7422,3.7012,0.0,0.0,0.0,3.5982,3.5982,3.5982,3.5982,3.5982,3.5982,3.5982,3.5982,3.5982,3.5982,0.0,0.0,0.0,0.0,0.0,0.0,0.0,0.0,0.0,0.0,0.0,0.0,0.0,0.0,0.0,0.0,0.0,0.0,0.0,0.0,0.0,0.0,1.4711,1.5211,1.6378,1.6149,1.7062,1.921,2.031,2.1115,2.1663,2.272,2.2158,2.0149,1.9276,1.8944,1.908,1.908,1.9244,1.9518,1.968,0.0,0.0,0.0,0.0,0.0,0.0,0.0,0.0,1.4618,1.4623,1.4613,1.4105,0.0,0.0,0.0,0.0,0.0,1.8076,1.9982,2.0935,1.893,1.9584,2.0714,2.0725,2.0976,2.1203,2.1354,2.2171,2.3336,2.4933,2.6111,2.7701,0.0,0.0,3.4841,0.0,0.0,0.0,0.0,0.0,0.0,0.0,0.0,0.0,0.0,0.0,0.0,0.0,4.3104,4.1253,3.9059,3.7553,3.6832,3.6855,3.7901,3.8295,3.8027,3.8295,3.8219,3.7855,3.7129,3.6773,3.6675,0.0,3.5982,3.5982,3.5982,3.5982,3.5982,3.5982,3.5982,3.5982,3.5982,3.5982,3.5982,0.0,0.0,0.0,0.0,0.0,0.0,0.0,0.0,0.0,0.0,0.0,0.0,0.0,0.0,0.0,0.0,0.0,0.0,0.0,0.0,0.0,1.5733,1.5563,1.5721,1.6309,1.7052,1.8126,1.9523,2.0632,2.1453,2.193,2.1914,2.1207,1.9963,1.9033,1.8535,1.8357,1.8554,1.8645,1.8638,0.0,0.0,0.0,0.0,0.0,0.0,0.0,0.0,0.0,0.0,1.5568,1.5881,1.5028,0.0,0.0,0.0,0.0,0.0,1.736,1.887,1.9974,1.9258,2.0804,2.2487,2.2487,2.2211,2.2121,2.2723,2.3461,2.444,2.5829,2.7487,2.9632,3.2641,0.0,0.0,0.0,0.0,0.0,0.0,0.0,0.0,0.0,0.0,0.0,0.0,0.0,0.0,0.0,0.0,4.0604,4.0583,3.78,3.6768,3.7733,3.7401,3.7363,3.7598,3.7598,3.7461,3.7226,3.689,3.6577,3.6309,0.0,3.5982,3.5982,3.5982,3.5982,3.5982,3.5982,3.5982,3.5982,3.5982,3.5982,3.5982,0.0,0.0,0.0,0.0,0.0,0.0,0.0,0.0,0.0,0.0,0.0,0.0,0.0,0.0,0.0,0.0,0.0,0.0,0.0,0.0,1.5492,1.6131,1.6282,1.6594,1.7086,1.8006,1.9049,2.0187,2.1053,2.1725,2.2173,2.1037,2.015,1.9482,1.8651,1.8046,1.7659,1.7909,1.7831,1.7561,0.0,0.0,0.0,0.0,0.0,0.0,0.0,0.0,0.0,0.0,0.0,0.0,0.0,0.0,0.0,1.6618,1.65,1.6586,1.6977,1.8105,1.9334,2.0037,2.182,2.3552,2.4079,2.3512,2.3236,2.4506,2.5293,2.6021,2.6909,2.9095,0.0,3.5086,3.7892,0.0,0.0,0.0,0.0,0.0,0.0,0.0,0.0,0.0,0.0,0.0,0.0,0.0,0.0,0.0,3.9683,4.0703,3.767,3.6581,3.7844,3.6987,3.6773,3.7148,3.7148,3.6992,3.6695,3.6597,3.6289,3.5879,3.5879,3.5879,3.5879,3.5879,3.6155,3.6573,3.6152,3.5982,3.5982,3.5982,3.5982,3.5982,0.0,0.0,0.0,0.0,0.0,0.0,0.0,0.0,0.0,0.0,0.0,0.0,0.0,0.0,0.0,0.0,0.0,0.0,0.0,0.0,1.516,1.5122,1.6442,1.8298,2.0571,1.923,1.9623,2.1907,2.2127,2.2077,2.182,2.0798,1.95,1.8044,1.7975,1.7531,1.6889,1.6908,1.6726,1.6411,1.6439,0.0,0.0,0.0,0.0,0.0,0.0,0.0,0.0,0.0,0.0,0.0,0.0,0.0,1.6394,1.6476,1.65,1.6826,1.8406,1.9271,2.0012,2.1105,2.1532,2.2221,2.4264,2.4691,2.5067,2.6716,2.7896,2.8612,2.8706,3.1411,3.4703,3.8066,0.0,0.0,0.0,0.0,0.0,0.0,0.0,0.0,0.0,0.0,0.0,0.0,0.0,0.0,0.0,0.0,0.0,3.7646,3.6569,3.5854,3.563,3.5927,3.6289,3.6753,3.6753,3.6734,3.6695,3.625,3.584,3.543,3.543,3.543,3.543,3.543,3.663,3.8254,3.664,3.5982,3.5982,3.5982,3.5982,3.5982,0.0,0.0,0.0,0.0,0.0,0.0,0.0,0.0,0.0,0.0,0.0,0.0,0.0,0.0,0.0,0.0,0.0,0.0,0.0,0.0,1.5425,1.6374,1.6894,1.8248,2.0571,2.0175,2.0631,2.2039,2.1513,2.0935,2.0288,1.9076,1.8246,1.7738,1.7172,1.685,1.6719,1.6545,1.6521,1.6531,1.6143,1.592,0.0,0.0,0.0,0.0,0.0,0.0,0.0,0.0,1.5779,1.5951,1.6123,1.6276,1.6421,1.6485,1.65,1.6626,1.7277,1.8882,2.0527,2.1306,2.2523,2.3879,2.5034,2.6096,2.7326,2.9026,3.0206,3.1065,3.1436,0.0,3.585,3.7103,0.0,0.0,0.0,0.0,0.0,0.0,0.0,0.0,0.0,0.0,0.0,0.0,0.0,0.0,0.0,0.0,0.0,4.0318,3.7021,3.5627,3.657,3.566,3.5273,3.5449,3.5996,3.6269,3.625,3.582,3.5547,3.5371,3.5078,3.4961,3.498,3.5273,3.587,3.6563,3.6169,3.6674,3.7475,3.6403,3.5982,3.5982,0.0,0.0,0.0,0.0,0.0,0.0,0.0,0.0,0.0,0.0,0.0,0.0,0.0,0.0,0.0,0.0,0.0,0.0,1.4993,1.4929,1.5379,1.6442,1.679,1.7792,1.951,1.9972,2.0558,2.1383,2.0404,1.9534,1.875,1.7876,1.7532,1.7576,1.6785,1.6739,1.7197,1.644,1.6363,1.6659,1.6046,1.5799,0.0,0.0,0.0,0.0,0.0,0.0,0.0,0.0,1.6221,1.6339,1.6658,1.6625,1.65,1.65,1.65,1.65,1.65,1.8279,2.0301,2.0829,2.2899,2.5118,2.6364,2.7821,2.9408,3.124,3.2089,3.2767,3.3696,3.4974,0.0,0.0,0.0,0.0,0.0,0.0,0.0,0.0,0.0,0.0,0.0,0.0,0.0,0.0,0.0,0.0,0.0,0.0,0.0,0.0,3.6652,3.5196,3.6271,3.5229,3.4707,3.4707,3.5312,3.5854,3.6336,3.6037,3.6146,3.6473,3.565,3.5251,3.5271,3.5611,3.6138,3.6738,3.7187,3.7782,3.8145,3.6581,3.5982,3.5982,0.0,0.0,0.0,0.0,0.0,0.0,0.0,0.0,0.0,0.0,0.0,0.0,0.0,0.0,0.0,0.0,0.0,0.0,1.4991,1.4965,1.4848,1.4728,1.6005,1.7027,1.7696,1.8415,1.9159,1.9985,1.8911,1.8049,1.7393,1.7599,1.7569,1.7386,1.6917,1.7319,1.8276,1.653,1.6159,1.6659,1.6046,1.5799,1.5741,0.0,0.0,0.0,0.0,0.0,0.0,0.0,1.6742,1.6408,1.7086,1.6942,1.65,1.65,1.65,1.6536,1.65,1.7729,1.9158,1.971,2.2357,2.5569,2.8304,2.981,3.126,3.347,3.3517,3.3621,3.5207,3.5082,0.0,0.0,0.0,0.0,0.0,0.0,0.0,0.0,0.0,0.0,0.0,0.0,0.0,0.0,0.0,0.0,0.0,3.6823,3.5031,3.5766,3.5068,3.4473,3.4114,3.4473,3.4687,3.4687,3.4687,3.5548,3.7106,3.7053,3.7726,3.878,3.7174,3.6478,3.6509,3.6509,3.7701,3.957,4.0061,3.9246,3.7696,3.6447,3.6016,3.5982,0.0,0.0,0.0,0.0,0.0,0.0,0.0,0.0,0.0,0.0,0.0,0.0,0.0,0.0,0.0,0.0,0.0,0.0,1.5735,1.5572,1.5937,1.7028,1.7483,1.7906,1.8329,1.7709,1.7669,1.818,1.7854,1.7436,1.691,1.6968,1.6945,1.691,1.675,1.6885,1.7136,1.6202,1.6159,1.6659,1.6046,1.5587,1.5299,0.0,0.0,0.0,0.0,0.0,0.0,0.0,0.0,0.0,1.7209,1.7473,1.754,1.6737,1.7063,1.7615,1.7236,1.8643,2.0502,2.1805,2.4926,2.8204,3.0206,3.0909,3.2014,3.505,3.5527,3.5552,3.6055,3.6609,0.0,0.0,0.0,0.0,0.0,0.0,0.0,0.0,0.0,0.0,0.0,0.0,0.0,0.0,0.0,0.0,0.0,3.5743,3.3804,3.5724,3.4218,3.3437,3.3613,3.373,3.3809,3.3809,3.3809,3.4359,3.5418,3.5119,3.5804,3.7112,3.5145,3.5594,3.7717,3.8038,3.9437,4.1105,3.8922,3.8678,3.9236,3.6535,3.5762,3.5982,0.0,0.0,0.0,0.0,0.0,0.0,0.0,0.0,0.0,0.0,1.5372,0.0,0.0,0.0,0.0,0.0,0.0,0.0,0.0,1.6466,1.6756,1.7582,1.7913,1.8153,1.8412,1.758,1.7022,1.6709,1.6742,1.6474,1.5957,1.6726,1.7187,1.7395,1.7471,1.7585,1.7698,1.6623,1.6383,1.6644,1.6113,1.5577,1.508,0.0,0.0,0.0,0.0,0.0,0.0,0.0,0.0,0.0,1.75,1.7728,1.7667,1.6752,1.6988,1.7515,1.7412,1.9007,2.1144,2.2985,2.6046,2.9183,3.1537,3.2914,3.4421,3.6884,3.7034,3.6859,3.731,3.7562,0.0,0.0,0.0,0.0,0.0,0.0,0.0,0.0,0.0,0.0,0.0,0.0,0.0,0.0,0.0,0.0,0.0,3.5024,3.3155,3.5209,3.3527,3.2676,3.293,3.3086,3.3164,3.3164,3.3164,3.3437,3.4009,3.5184,3.6618,3.8045,3.6789,3.7385,3.9164,3.9462,4.0704,4.215,3.9014,3.8707,3.9617,3.6532,3.5664,3.5982,0.0,0.0,0.0,0.0,0.0,0.0,0.0,0.0,0.0,0.0,1.535,1.5336,0.0,0.0,0.0,0.0,0.0,0.0,0.0,0.0,1.7369,1.7145,1.7752,1.8097,1.8074,1.7832,1.7115,1.5783,1.5828,1.5497,1.4849,1.6742,1.7811,1.8176,1.8406,1.8728,1.8957,1.731,1.6576,1.6507,1.6079,1.5544,1.4948,1.4717,0.0,0.0,0.0,0.0,0.0,0.0,0.0,0.0,1.7858,1.7794,1.7319,1.6697,1.6575,1.6787,1.7437,1.9133,2.127,2.3703,2.649,2.9453,3.2591,3.5326,3.7512,3.8542,3.8014,3.7688,3.8768,3.814,0.0,0.0,0.0,0.0,0.0,0.0,0.0,0.0,0.0,0.0,0.0,0.0,0.0,0.0,0.0,0.0,0.0,3.4702,3.2905,3.4265,3.3005,3.2291,3.2198,3.2693,3.2889,3.2734,3.2734,3.2734,3.2878,3.6148,3.8533,4.0046,4.0334,4.0449,4.0449,4.0593,4.155,4.2656,3.9992,3.9164,3.9122,3.6514,3.572,3.5942,0.0,0.0,0.0,0.0,0.0,0.0,0.0,0.0,0.0,0.0,0.0,0.0,0.0,0.0,0.0,0.0,0.0,0.0,0.0,0.0,1.8351,1.8772,1.8778,1.8469,1.7806,1.7959,1.7495,1.6487,1.6282,1.571,1.4819,1.6256,1.6705,1.6388,1.6908,1.6923,1.6539,1.6158,1.5765,1.545,1.5322,1.4833,1.416,1.4078,1.3777,0.0,0.0,0.0,0.0,0.0,0.0,0.0,1.8007,1.8358,1.8349,1.6925,1.7127,1.8053,1.9032,1.9987,2.1647,2.5603,2.9654,3.3068,3.4628,3.6132,3.7286,3.7512,3.809,3.8743,3.9421,0.0,0.0,0.0,0.0,0.0,0.0,0.0,0.0,0.0,0.0,0.0,0.0,0.0,0.0,0.0,0.0,0.0,3.7235,3.4468,3.2828,3.2684,3.3128,3.3009,3.2198,3.3426,3.3467,0.0,3.2335,3.2335,3.2366,3.3124,3.433,3.5866,3.8346,3.9355,3.936,4.0648,4.1631,4.2196,4.0344,3.9367,3.885,3.7287,3.6219,3.5566,0.0,0.0,0.0,0.0,0.0,0.0,0.0,0.0,0.0,0.0,0.0,0.0,0.0,0.0,0.0,0.0,0.0,0.0,0.0,0.0,1.9257,1.9427,1.9257,1.8923,1.8487,1.8507,1.8006,1.6885,1.6944,1.6467,1.5544,1.681,1.734,1.7184,1.7519,1.731,1.6697,1.6368,1.5794,1.5124,1.5455,1.4911,1.3942,1.4254,1.402,1.3648,1.4458,0.0,0.0,0.0,0.0,0.0,0.0,0.0,1.835,1.7203,1.7121,1.769,1.9045,2.0413,2.2663,2.7645,3.1411,3.4048,3.4603,3.5581,3.6483,3.6758,3.7713,3.8542,3.8843,0.0,0.0,0.0,0.0,0.0,0.0,0.0,0.0,0.0,0.0,0.0,0.0,0.0,0.0,0.0,0.0,3.7679,3.7114,3.5224,3.3997,3.3675,3.419,3.4197,3.3696,3.4639,3.4368,3.2931,3.362,3.3876,3.3688,3.3439,3.453,3.6745,3.8386,3.9461,4.0117,4.0954,4.1478,4.1645,4.0326,3.9244,3.8317,3.721,3.62,3.5544,0.0,0.0,0.0,0.0,0.0,0.0,0.0,0.0,0.0,0.0,0.0,0.0,0.0,0.0,0.0,0.0,0.0,0.0,0.0,0.0,0.0,1.9376,1.9324,1.9242,1.9095,1.902,1.8445,1.7353,1.7772,1.759,1.6835,1.7663,1.8235,1.8514,1.8424,1.8057,1.7473,1.6816,1.6006,1.5186,1.5736,1.5192,1.4141,1.4794,1.4659,1.4226,1.5144,1.5987,1.6878,1.8099,0.0,0.0,0.0,0.0,1.7983,1.7466,1.6932,1.6876,1.8531,2.0977,2.4205,2.9082,3.2064,3.3746,3.3746,3.4577,3.5531,3.613,3.711,3.7889,0.0,0.0,0.0,0.0,0.0,0.0,0.0,0.0,0.0,0.0,0.0,0.0,0.0,0.0,0.0,0.0,0.0,3.7697,3.7242,3.6141,3.5377,3.5015,3.526,3.5332,3.5154,3.5633,3.524,3.3996,3.5219,3.5614,3.5283,3.4841,3.6163,3.8816,3.8816,3.9661,4.1026,4.1026,4.1076,4.1041,4.0029,3.8943,3.7799,3.6858,3.6108,3.5818,0.0,0.0,0.0,0.0,0.0,0.0,0.0,0.0,0.0,0.0,0.0,0.0,0.0,0.0,0.0,0.0,0.0,0.0,0.0,0.0,0.0,1.8327,1.8923,1.8981,1.828,1.8762,1.8811,1.8402,1.8848,1.9042,1.8978,1.79,1.7578,1.781,1.7234,1.6928,1.6778,1.6189,1.5662,1.5285,1.5383,1.515,1.4834,1.5386,1.5363,1.5222,1.6778,1.6879,1.6632,1.8973,1.9145,0.0,0.0,0.0,1.7983,1.7466,1.6932,1.6876,1.8531,2.2397,2.6457,2.858,3.1185,3.3215,3.3215,3.4048,3.4954,0.0,3.6533,0.0,0.0,0.0,0.0,0.0,0.0,0.0,0.0,0.0,0.0,0.0,0.0,0.0,0.0,0.0,0.0,0.0,3.9267,3.8424,3.6143,3.6341,3.5709,3.3879,3.5063,3.5349,3.4508,3.5366,3.5564,3.5096,3.5268,3.5356,3.5288,3.5229,3.6123,3.7694,3.7694,3.854,3.9923,3.9923,4.0199,4.0517,3.9424,3.8382,3.7392,3.673,3.6436,3.6414,0.0,0.0,0.0,0.0,0.0,0.0,0.0,0.0,0.0,0.0,0.0,0.0,0.0,0.0,0.0,0.0,0.0,0.0,0.0,0.0,0.0,1.8805,1.9095,1.9132,1.8798,1.8907,1.8856,1.8612,1.907,1.9215,1.9068,1.9227,1.9271,1.9126,1.8602,1.8177,1.7788,1.7146,1.648,1.5894,1.618,1.5742,1.4976,1.5816,1.6164,1.6382,1.7611,0.0,0.0,0.0,2.0035,1.9798,1.9952,0.0,0.0,0.0,1.7157,1.7077,1.9673,2.2698,2.5728,2.8254,3.0105,3.1406,3.2009,3.2742,3.3448,3.4048,3.4801,0.0,0.0,0.0,0.0,0.0,0.0,0.0,0.0,0.0,0.0,0.0,0.0,0.0,0.0,0.0,0.0,0.0,3.8617,3.8241,3.7093,3.729,3.7011,3.6086,3.6692,3.6839,3.642,3.6839,3.6961,3.6779,3.5154,3.5394,3.7285,3.6443,3.6584,3.7503,3.7503,3.8321,3.9697,3.9697,3.9848,4.0021,3.9857,3.9176,3.8239,3.8306,3.8132,3.7999,0.0,0.0,0.0,0.0,0.0,0.0,0.0,0.0,0.0,0.0,0.0,0.0,0.0,0.0,0.0,0.0,0.0,0.0,0.0,0.0,0.0,1.9323,1.9315,1.9288,1.9234,1.9008,1.8868,1.8788,1.9148,1.928,1.9265,2.044,2.0762,2.0265,1.9883,1.9339,1.8672,1.7989,1.7235,1.6518,1.6785,1.6226,1.5369,1.6331,1.6885,1.7298,1.8547,0.0,0.0,0.0,0.0,0.0,0.0,1.929,0.0,0.0,0.0,1.7113,1.9886,2.1884,2.3853,2.6724,2.8304,2.9453,3.0507,3.1311,3.2014,0.0,0.0,0.0,0.0,0.0,0.0,0.0,0.0,0.0,0.0,0.0,0.0,0.0,0.0,0.0,0.0,0.0,0.0,0.0,3.7914,3.7889,3.7613,3.7713,3.7739,3.7588,3.7588,3.7663,3.7789,3.7939,3.7939,3.7764,3.5708,3.6121,3.8617,3.7676,3.7479,3.7841,3.7985,3.8687,3.9697,3.9697,3.9697,3.9721,3.9854,3.942,3.8741,3.9066,3.9157,3.9323,0.0,0.0,0.0,0.0,0.0,0.0,0.0,0.0,0.0,0.0,0.0,0.0,0.0,1.9835,1.9835,1.9835,0.0,0.0,0.0,0.0,0.0,1.9323,1.9315,0.0,1.9032,1.8761,1.8813,1.9265,1.9366,1.9739,2.042,2.1022,2.0918,2.0265,1.9883,1.9339,1.8672,1.7989,1.7453,1.7004,1.6546,1.6306,1.6307,1.6992,0.0,0.0,0.0,0.0,0.0,0.0,0.0,0.0,0.0,1.929,1.8092,0.0,0.0,0.0,1.8016,1.9598,2.1281,2.2985,2.5419,2.7695,2.8781,0.0,3.0964,0.0,0.0,0.0,0.0,0.0,0.0,0.0,0.0,0.0,0.0,0.0,0.0,0.0,0.0,0.0,0.0,0.0,0.0,0.0,3.7713,3.7563,3.6556,3.6959,3.7009,3.6505,3.648,3.6733,3.7261,3.7739,3.7739,3.7261,3.7591,3.7866,3.8065,3.8567,3.8793,3.8868,3.9343,3.9645,3.9697,3.9697,3.9697,3.9618,3.8613,3.8183,3.808,3.7673,3.8487,3.986,0.0,0.0,0.0,0.0,0.0,0.0,0.0,0.0,0.0,0.0,0.0,0.0,0.0,1.9809,1.9809,1.9809,1.9713,0.0,0.0,0.0,0.0,1.9319,1.9315,1.9281,1.9198,1.9272,1.9391,1.957,1.9933,2.0123,2.0143,2.0933,2.0804,1.9918,2.0212,1.9959,1.9292,1.8726,1.8198,1.7675,1.6786,0.0,0.0,0.0,0.0,0.0,0.0,0.0,0.0,0.0,0.0,0.0,2.027,1.929,1.7953,1.7281,1.6805,1.6762,1.7891,1.8631,1.966,2.2006,2.3612,2.4992,2.6448,2.7946,2.9208,2.9935,0.0,0.0,0.0,0.0,0.0,0.0,0.0,0.0,0.0,0.0,0.0,0.0,0.0,0.0,0.0,0.0,0.0,0.0,0.0,3.6408,3.6405,3.6207,3.6207,3.6381,3.6405,3.6482,3.6683,3.6157,3.6157,3.6683,3.6508,3.6786,3.7487,3.7713,3.8014,3.8341,3.8919,3.9396,3.9697,3.9697,3.9697,3.9645,3.93,3.9531,4.0141,3.9961,4.0738,4.1879,0.0,0.0,0.0,0.0,0.0,0.0,0.0,0.0,0.0,0.0,0.0,0.0,0.0,0.0,1.9647,1.9647,1.9538,1.9503,1.9503,1.9387,1.9315,1.9315,1.9569,1.9604,1.9443,1.9632,1.9884,2.0198,2.003,2.0049,2.0288,2.0603,2.0276,1.9453,1.9897,1.9838,1.9396,1.8864,0.0,1.7739,0.0,0.0,1.6027,0.0,0.0,0.0,0.0,0.0,0.0,0.0,0.0,0.0,0.0,1.891,1.7643,1.6763,1.65,1.6661,1.7414,1.7777,1.8505,2.0865,2.173,2.2533,2.4582,2.5912,2.6992,0.0,0.0,0.0,0.0,0.0,0.0,0.0,0.0,0.0,0.0,0.0,0.0,0.0,0.0,0.0,0.0,0.0,0.0,0.0,0.0,0.0,3.5803,3.5431,3.5406,3.5828,3.5828,3.5828,3.5828,3.5255,3.5255,3.5828,3.5805,3.6083,3.6659,3.701,3.7387,3.7764,3.8366,3.8919,3.9446,3.9622,3.9697,3.9697,3.9697,4.0149,4.08,4.1177,4.1779,4.2484,0.0,0.0,0.0,0.0,0.0,0.0,0.0,0.0,0.0,1.9342,0.0,0.0,0.0,0.0,0.0,1.9344,1.9348,1.9348,1.9296,1.9344,1.9385,1.9341,0.0,0.0,1.9785,1.9815,2.0305,2.121,1.9628,1.9603,2.0959,2.0094,1.9396,1.8902,1.8874,1.8855,1.8826,0.0,1.7791,1.7275,0.0,1.6418,1.6458,0.0,0.0,0.0,2.0667,2.1237,0.0,2.0512,0.0,0.0,0.0,1.8141,1.7188,1.6646,1.65,0.0,0.0,0.0,0.0,1.9334,1.9736,2.0489,2.3251,0.0,2.4406,0.0,0.0,0.0,0.0,0.0,0.0,0.0,0.0,0.0,0.0,0.0,0.0,0.0,0.0,0.0,0.0,0.0,0.0,0.0,3.4678,3.4678,3.4703,3.4703,3.4703,3.4703,3.4678,3.4678,3.4703,3.5182,3.5182,3.4703,3.5803,3.6031,3.5533,3.6659,3.716,3.721,3.7739,3.8291,3.8894,3.9446,3.9672,3.9672,3.9697,3.9697,3.9848,4.0901,4.1302,4.1478,0.0,0.0,0.0,0.0,0.0,0.0,0.0,0.0,1.9376,0.0,0.0,0.0,2.0107,2.0743,2.0799,2.0013,2.066,2.0677,1.9674,2.0557,2.0998,2.0767,2.1195,2.1381,2.1216,2.1325,2.1371,2.1331,2.0712,2.0424,2.0459,1.9567,1.9034,1.8874,1.8082,1.7733,1.7723,1.7588,0.0,1.7839,1.6484,1.6135,0.0,0.0,0.0,0.0,0.0,1.9881,1.9603,0.0,1.9865,1.9696,0.0,0.0,0.0,1.6646,0.0,0.0,1.65,0.0,0.0,0.0,0.0,0.0,0.0,0.0,0.0,0.0,0.0,0.0,0.0,0.0,0.0,0.0,0.0,0.0,0.0,0.0,0.0,0.0,0.0,0.0,0.0,0.0,0.0,0.0,3.4327,3.4276,3.4678,3.4703,3.4703,3.4703,3.4301,3.4324,3.4703,3.4073,3.4073,3.4703,3.4625,3.4926,3.5508,3.5832,3.6207,3.6632,3.721,3.7537,3.7738,3.8718,3.912,3.917,3.9546,3.9948,4.0299,4.06,4.1254,4.2009,0.0,0.0,0.0,0.0,0.0,0.0,1.8203,1.8798,1.9315,0.0,0.0,0.0,2.0562,2.1211,2.1297,2.0526,2.1023,2.1046,2.0214,2.0945,2.13,2.109,2.1609,2.1819,2.1662,2.1769,2.1709,2.1475,2.0862,2.0365,1.9998,1.9246,1.8674,1.82,1.7588,1.7178,1.6985,0.0,0.0,0.0,1.6433,0.0,0.0,1.7501,1.7658,0.0,0.0,0.0,2.0058,1.9541,1.9062,0.0,0.0,0.0,0.0,0.0,0.0,0.0,0.0,0.0,0.0,0.0,0.0,0.0,1.9171,2.0049,0.0,0.0,0.0,0.0,0.0,0.0,0.0,0.0,0.0,0.0,0.0,0.0,0.0,0.0,0.0,0.0,0.0,3.3068,3.3319,3.3624,3.3596,3.3696,3.4022,3.4048,3.4048,3.4048,3.3721,3.3721,3.4022,3.3621,3.3621,3.4048,3.4377,3.4778,3.5182,3.5656,3.6056,3.643,3.6733,3.6859,3.6934,3.7813,3.8467,3.8944,3.9471,3.9898,4.0199,4.0399,4.1078,4.1856,0.0,0.0,0.0,1.7279,1.8353,1.9091,1.846,1.8955,1.942,0.0,1.9988,2.0477,2.0875,2.1279,2.1356,2.0943,2.0991,2.101,2.086,2.0991,2.1054,2.1016,2.173,2.1978,2.1712,2.1696,2.1696,2.1597,2.0499,1.9784,1.9498,1.8967,1.82,1.7302,0.0,0.0,0.0,0.0,0.0,1.65,1.65,1.6835,0.0,0.0,1.8488,1.8983,1.9516,2.0473,2.1219,1.9429,1.8171,0.0,0.0,0.0,0.0,0.0,1.6611,0.0,0.0,0.0,0.0,0.0,0.0,0.0,1.8506,1.8543,1.8555,0.0,0.0,0.0,0.0,0.0,0.0,0.0,0.0,0.0,0.0,0.0,0.0,0.0,0.0,0.0,3.1406,3.1838,3.2093,3.2093,3.2641,3.3014,3.3014,3.3065,3.309,3.309,3.309,3.309,3.309,3.3571,3.3571,3.3115,3.4552,3.5029,3.4653,3.5653,3.618,3.6306,3.6306,3.6331,3.6455,3.6984,3.7838,3.8843,3.9396,3.9647,3.9747,4.0249,4.0775,4.1378,0.0,0.0,0.0,1.8761,1.9095,1.9458,1.996,1.9966,2.0165,2.0829,2.134,2.1666,2.1758,2.2397,2.2446,2.1527,2.2218,2.2253,2.1201,2.2129,2.26,2.2332,2.2729,2.2947,2.2882,2.2632,2.218,2.1506,2.0583,1.9763,1.9034,1.8052,1.7507,1.7281,1.6858,1.6607,0.0,0.0,0.0,1.65,1.65,0.0,1.7382,1.7471,1.7585,1.7786,1.8286,1.8642,1.8865,1.8406,1.8112,1.7884,0.0,0.0,0.0,0.0,0.0,0.0,0.0,0.0,0.0,0.0,0.0,0.0,1.7827,1.8304,1.8907,0.0,0.0,0.0,0.0,0.0,0.0,0.0,0.0,0.0,0.0,0.0,0.0,0.0,0.0,0.0,3.1406,3.1486,3.1562,3.1562,3.2064,3.239,3.239,3.2839,3.309,3.309,3.309,3.309,3.309,3.3215,3.3215,3.309,3.3416,3.3746,3.4073,3.4274,3.4851,3.5682,3.5682,3.5956,3.6455,3.6984,3.7612,3.8241,3.8843,3.9321,3.9697,3.9823,4.0449,4.1327,0.0,0.0,0.0,1.9748,1.9895,2.0108,2.0784,2.0793,2.0764,2.1029,2.1593,2.2025,2.2128,2.2626,2.2683,0.0,0.0,0.0,0.0,0.0,2.2686,2.2507,2.2667,2.2764,2.2764,2.2344,2.1874,2.1241,2.0355,1.9414,1.8463,1.7663,1.7157,1.69,1.6603,1.65,1.65,0.0,1.6661,1.6923,1.6611,0.0,1.7771,1.7451,1.7709,1.8229,1.8451,1.8414,1.8338,1.9182,1.8923,0.0,0.0,1.7518,1.7681,0.0,1.7149,1.7473,0.0,0.0,0.0,1.8204,0.0,0.0,0.0,1.7777,1.7904,1.8493,1.8155,0.0,0.0,0.0,0.0,0.0,0.0,0.0,0.0,0.0,0.0,0.0,0.0,0.0,3.0131,3.0683,3.111,3.1361,3.1637,3.1813,3.1813,3.234,3.2641,3.2641,3.2939,3.309,3.309,3.309,3.309,3.309,3.3366,3.3621,3.3922,3.4452,3.5004,3.5508,3.5807,3.613,3.643,3.6683,3.7135,3.7688,3.8567,3.907,3.9346,3.9597,4.0374,4.1302,1.8243,0.0,0.0,2.0235,2.0478,2.0767,2.1359,2.1386,2.1277,2.1102,2.1587,2.1986,2.2162,0.0,0.0,0.0,0.0,0.0,0.0,0.0,0.0,2.2313,2.2313,2.2313,2.2313,2.1838,2.1361,2.0838,1.9915,1.8938,1.7923,1.7404,1.6921,1.65,1.65,1.655,1.6661,0.0,0.0,1.7512,0.0,1.7375,1.8152,1.7719,1.8178,1.9011,1.9011,1.8591,1.8295,1.9831,0.0,1.8339,1.7676,1.7924,0.0,0.0,0.0,0.0,0.0,0.0,0.0,0.0,0.0,1.814,0.0,0.0,0.0,1.7727,1.7138,0.0,0.0,0.0,0.0,0.0,0.0,0.0,0.0,0.0,0.0,0.0,0.0,0.0,0.0,2.9484,3.0281,3.1055,3.0984,3.1009,3.1235,3.1763,3.2064,3.2064,3.2537,3.2813,3.2939,3.2939,3.2989,3.3115,3.352,3.3746,3.3771,3.4653,3.5132,3.5357,3.5855,3.618,3.6405,3.6405,3.6658,3.716,3.8291,3.8793,3.8969,3.9496,4.0299,4.1177,1.8862,1.9492,0.0,0.0,2.0322,2.1045,2.1808,2.1669,2.1644,2.2058,2.1859,2.1647,0.0,0.0,0.0,0.0,0.0,0.0,2.2519,0.0,0.0,0.0,2.2313,2.2313,2.2313,2.1838,2.1156,2.0282,1.9358,1.8378,1.7384,1.6848,1.6565,1.65,1.65,1.6798,1.7286,0.0,1.7613,0.0,1.8016,1.8088,0.0,1.8127,1.8491,1.9006,1.9006,1.8349,1.76,0.0,1.8737,1.8898,0.0,1.8519,1.8965,0.0,0.0,0.0,0.0,0.0,0.0,0.0,2.0037,0.0,0.0,0.0,1.7765,1.6876,0.0,1.6862,1.8067,0.0,0.0,0.0,0.0,0.0,0.0,0.0,0.0,0.0,0.0,0.0,0.0,2.7871,2.8316,2.9854,2.9484,2.9634,3.0638,3.121,3.1486,3.1486,3.1557,3.1813,3.2315,3.2315,3.2566,3.309,3.3165,3.319,3.319,3.3316,3.3897,3.4803,3.4853,3.5454,3.6405,3.6405,3.6455,3.6582,3.7663,3.8417,3.8969,3.9496,4.0074,4.065,1.9583,1.976,0.0,0.0,2.1288,2.169,2.2309,2.2255,2.2084,2.1923,2.1876,0.0,0.0,0.0,0.0,0.0,0.0,2.1956,0.0,0.0,0.0,0.0,0.0,0.0,0.0,2.1279,2.0511,1.9849,1.8872,1.8005,1.7291,1.6752,1.65,1.65,1.65,0.0,1.6898,0.0,1.7877,0.0,0.0,0.0,0.0,1.8932,1.8995,1.9472,1.9472,1.897,1.8368,0.0,1.9307,0.0,0.0,0.0,0.0,0.0,0.0,0.0,0.0,0.0,0.0,0.0,0.0,0.0,1.8281,0.0,1.7264,0.0,0.0,0.0,0.0,0.0,0.0,0.0,1.9133,0.0,0.0,0.0,0.0,0.0,0.0,0.0,0.0,0.0,0.0,0.0,2.7745,2.8323,2.9126,2.998,3.0608,3.0934,3.1235,3.1662,3.2194,3.2194,3.2516,3.309,3.309,3.309,3.3115,3.3416,3.3972,3.4728,3.5029,3.5629,3.6405,3.6405,3.6582,3.6934,3.7688,3.814,3.8492,3.9371,4.0049,4.0524,2.0408,0.0,0.0,0.0,0.0,2.2134,0.0,0.0,0.0,0.0,0.0,0.0,2.2329,2.236,0.0,0.0,2.2226,2.2084,0.0,0.0,2.1987,0.0,0.0,0.0,0.0,2.0921,2.0127,1.9627,1.8451,1.7619,1.7063,1.6667,1.6478,1.6452,1.666,1.6813,1.6918,0.0,1.8368,1.9208,1.9208,1.971,2.0365,1.9522,1.9472,1.9811,1.9811,1.9447,1.9033,1.9158,1.9834,0.0,1.9051,0.0,0.0,0.0,0.0,0.0,2.0112,0.0,0.0,0.0,0.0,0.0,0.0,0.0,0.0,0.0,0.0,0.0,0.0,0.0,1.8204,0.0,0.0,1.8594,0.0,0.0,0.0,0.0,0.0,0.0,0.0,0.0,0.0,0.0,0.0,2.6816,2.7821,2.88,2.9654,3.0357,3.0909,3.1436,3.1989,3.2139,3.2516,3.309,3.309,3.309,3.3115,3.3517,3.4048,3.4728,3.513,3.5705,3.6405,3.6405,3.6708,3.7236,3.7789,3.809,3.8366,3.9346,3.9948,4.03,2.1268,2.1455,0.0,0.0,0.0,0.0,0.0,0.0,0.0,0.0,0.0,0.0,0.0,0.0,0.0,0.0,0.0,2.2278,2.2278,0.0,2.1243,0.0,0.0,2.2669,0.0,0.0,2.0221,1.969,1.8109,1.7042,1.6532,1.6511,1.6435,1.635,1.7042,1.7539,1.7897,1.8635,1.9271,1.9786,1.9786,1.9811,1.9836,0.0,1.9786,1.9811,1.9811,0.0,0.0,1.961,1.9898,0.0,0.0,0.0,0.0,0.0,0.0,0.0,0.0,0.0,0.0,2.127,0.0,0.0,0.0,0.0,1.9409,0.0,0.0,0.0,0.0,0.0,1.8204,0.0,0.0,0.0,0.0,0.0,0.0,0.0,0.0,0.0,0.0,0.0,0.0,0.0,0.0,0.0,2.7211,2.7846,2.8674,2.9779,3.0357,3.0884,3.1411,3.1938,3.2516,3.309,3.309,3.309,3.309,3.3115,3.3696,3.4703,3.4728,3.5353,3.6405,3.6405,3.6708,3.7236,3.7789,3.8341,3.8944,3.9497,3.9697,3.9798,0.0,0.0,0.0,0.0,0.0,0.0,0.0,2.2039,0.0,0.0,0.0,0.0,0.0,2.4832,2.4675,0.0,0.0,2.3161,2.3161,2.2576,0.0,0.0,0.0,2.2479,0.0,0.0,2.0189,1.9296,1.8364,1.7607,1.7088,1.6603,1.6537,1.6835,1.7087,1.7255,0.0,0.0,0.0,0.0,0.0,2.0603,2.084,0.0,0.0,1.9811,1.9811,1.9673,0.0,1.9736,2.0104,2.0399,1.9938,2.0117,2.0386,1.9938,2.0226,0.0,0.0,0.0,2.2698,2.1945,0.0,0.0,0.0,0.0,0.0,0.0,0.0,0.0,0.0,0.0,0.0,0.0,0.0,0.0,0.0,0.0,0.0,0.0,0.0,0.0,0.0,0.0,0.0,0.0,0.0,0.0,0.0,2.6866,2.8072,2.9157,3.0111,3.0859,3.1386,3.1938,3.2516,3.309,3.309,3.309,3.3115,3.3467,3.4022,3.4728,3.5079,3.568,3.6405,3.6405,3.6934,3.7739,3.7939,3.8592,3.9446,3.9622,3.9697,3.9722,2.2219,0.0,0.0,0.0,0.0,0.0,0.0,0.0,0.0,0.0,2.5138,0.0,2.659,0.0,2.6123,0.0,2.4837,2.4208,2.3958,2.358,0.0,2.2733,2.2912,0.0,0.0,0.0,1.9989,1.9112,1.823,1.7624,1.7293,1.6551,1.6481,1.7006,1.7269,1.7476,1.774,1.882,1.9472,0.0,0.0,2.0717,0.0,0.0,2.0376,2.0651,0.0,2.0388,2.0388,2.0388,2.0653,2.0918,2.0527,2.0678,2.0918,2.0527,2.0815,2.1331,2.1694,2.2182,0.0,2.2357,2.1769,0.0,2.0301,0.0,0.0,0.0,0.0,0.0,0.0,0.0,0.0,0.0,0.0,0.0,0.0,1.6837,0.0,0.0,0.0,0.0,0.0,0.0,0.0,0.0,0.0,0.0,0.0,0.0,2.7293,2.858,3.0086,3.106,3.1406,3.2139,3.2738,3.309,3.309,3.309,3.3115,3.3467,3.4022,3.4728,3.5079,3.568,3.6406,3.6607,3.7186,3.8015,3.8241,3.8894,3.9697,3.9697,3.9697,3.9722,0.0,0.0,0.0,0.0,2.1474,0.0,0.0,0.0,2.4612,0.0,2.6404,2.7867,2.8502,2.7995,2.762,2.7561,2.6343,0.0,2.4716,2.4574,0.0,0.0,2.3265,2.2703,2.094,0.0,0.0,0.0,1.7797,1.7144,1.7119,1.6388,1.6326,1.6872,1.7641,0.0,1.8741,1.9513,1.9836,1.9836,1.9886,2.0251,2.0831,2.0792,2.1457,2.2322,2.1694,2.1507,2.1507,2.1507,2.1507,2.1507,2.1507,2.1507,2.1507,2.1507,2.187,2.2307,2.2307,2.2694,2.297,2.2433,0.0,0.0,0.0,0.0,2.1995,0.0,0.0,0.0,0.0,0.0,0.0,0.0,0.0,0.0,0.0,0.0,0.0,0.0,0.0,0.0,0.0,0.0,0.0,0.0,0.0,0.0,0.0,0.0,2.6389,2.8021,3.0231,3.1406,3.1406,3.2537,3.309,3.309,3.309,3.309,3.309,3.3165,3.3721,3.4703,3.4753,3.5403,3.6455,3.6984,3.7513,3.8065,3.8668,3.9245,3.9697,3.9697,3.9697,3.9772,2.2422,2.219,2.2207,0.0,2.1943,2.1538,0.0,0.0,0.0,0.0,2.7189,2.8137,2.8146,2.7988,2.7692,2.72,2.6006,0.0,0.0,0.0,0.0,2.3317,2.3018,2.2215,2.0846,2.0654,0.0,1.9095,0.0,1.7702,1.7677,1.6948,1.6868,1.744,1.8631,1.899,1.8778,1.996,2.0465,2.0515,2.0904,2.1644,0.0,0.0,2.2598,2.3376,2.201,2.1507,2.1507,2.1507,2.1507,2.1507,2.1507,2.1507,2.1507,2.1507,2.187,2.2307,2.2307,2.2694,2.297,2.2433,2.1995,2.1619,0.0,0.0,0.0,0.0,0.0,0.0,0.0,0.0,0.0,0.0,0.0,0.0,0.0,0.0,0.0,1.7928,0.0,0.0,0.0,0.0,0.0,0.0,0.0,0.0,0.0,0.0,0.0,2.7487,3.005,3.1406,3.1406,3.2537,3.309,3.309,3.309,3.309,3.3115,3.3922,3.4427,3.4753,3.5602,3.613,3.6455,3.6984,3.7513,3.8065,3.8668,3.9245,3.9697,3.9697,3.9697,3.9772,2.3009,0.0,0.0,2.3997,0.0,0.0,2.3043,0.0,0.0,2.6185,2.7624,0.0,2.8121,2.8235,2.8106,2.7485,2.6536,0.0,2.623,0.0,0.0,2.3909,2.3275,2.2287,2.0823,2.0506,0.0,1.9064,0.0,1.77,1.8224,1.7154,1.7161,1.8133,1.9148,1.9576,1.9604,2.0209,2.0482,2.0506,2.08,0.0,0.0,2.2276,2.2834,2.3487,2.2533,2.2196,2.2196,2.2196,2.2196,2.2196,2.2196,2.2196,2.2196,2.2196,2.2408,2.2644,2.2644,2.2869,2.302,2.2734,2.2433,2.2146,2.1895,2.1895,2.1769,0.0,0.0,0.0,0.0,0.0,0.0,0.0,0.0,0.0,0.0,0.0,0.0,0.0,1.8003,0.0,0.0,0.0,0.0,0.0,0.0,0.0,0.0,0.0,0.0,2.6927,2.9849,3.1406,3.1406,3.2763,3.3341,3.309,3.309,3.3215,3.3467,3.4073,3.4603,3.5104,3.573,3.6155,3.6455,3.7235,3.7739,3.809,3.8919,3.9421,3.9697,3.9697,3.9697,3.9798,2.4012,0.0,0.0,0.0,0.0,0.0,0.0,2.551,0.0,2.641,0.0,2.8823,2.824,2.8457,2.8431,2.7958,0.0,2.6667,2.6295,2.6113,2.5595,2.4655,2.3783,2.2587,2.0934,2.0258,0.0,0.0,0.0,0.0,1.8902,1.7434,1.7531,1.8952,1.9651,2.0318,0.0,2.0598,2.049,2.049,2.0562,2.0848,2.1368,2.2119,2.2694,2.308,2.2975,2.2944,2.2959,2.305,2.302,2.2959,2.3065,2.3095,2.3095,2.3095,2.3095,2.3095,2.3095,2.3095,2.3095,2.302,2.2995,2.2869,2.2408,2.1945,2.1594,2.1594,2.0765,2.0188,0.0,0.0,0.0,0.0,0.0,0.0,0.0,0.0,0.0,0.0,0.0,0.0,0.0,0.0,0.0,0.0,0.0,0.0,0.0,0.0,0.0,2.6474,2.9623,3.1361,3.1486,0.0,3.3617,3.3215,3.3215,3.3467,3.3897,3.4048,3.4628,3.5508,3.5583,3.5931,3.648,3.7563,3.809,3.8316,3.9295,3.9697,3.9697,3.9697,3.9747,3.9948,0.0,0.0,0.0,0.0,0.0,2.675,2.6127,2.7321,2.8021,2.7277,2.8437,2.9004,2.8198,2.7795,2.7522,2.742,2.645,0.0,0.0,0.0,0.0,2.5625,2.4031,2.2585,2.1409,2.0813,2.0255,0.0,0.0,0.0,2.0079,1.8754,1.8857,2.0146,2.1303,2.1906,2.2006,2.1962,0.0,2.1979,2.2412,2.266,2.275,2.291,2.302,2.3005,2.2341,2.211,2.2202,2.2884,2.2671,2.2218,2.2884,2.3095,2.3095,2.3095,2.3095,2.3095,2.3095,2.3095,2.2995,2.2558,2.2433,2.2408,2.2332,2.2232,2.2171,2.2171,2.1644,2.1217,2.1331,0.0,0.0,0.0,0.0,0.0,0.0,0.0,0.0,0.0,0.0,0.0,0.0,0.0,0.0,0.0,0.0,0.0,0.0,0.0,0.0,0.0,2.9271,0.0,0.0,0.0,3.3416,3.3746,3.3746,3.3796,3.3922,3.4828,3.5307,3.5533,3.6031,3.6306,3.648,3.7563,3.8542,3.9421,3.9622,3.9697,3.9697,3.9697,3.9973,4.0449,0.0,0.0,0.0,0.0,0.0,0.0,0.0,2.8699,0.0,2.7524,2.8156,2.8477,2.7749,2.7695,2.7595,2.7311,2.6532,2.6097,2.6131,2.5574,2.501,2.4562,2.3484,0.0,2.1204,2.043,2.0087,2.0276,0.0,0.0,2.0962,1.9946,2.0027,2.1014,2.1912,2.2458,0.0,0.0,0.0,2.2122,2.2366,2.2488,2.2509,2.2944,2.3095,2.31,2.3007,2.2361,2.1557,2.1745,2.1862,2.2018,2.2681,2.3198,2.3637,2.3898,2.3772,2.3637,2.3913,2.3547,2.312,2.316,2.3175,2.3085,2.2784,2.2719,2.2633,2.2357,2.187,2.1507,2.1507,2.1069,0.0,0.0,0.0,0.0,0.0,0.0,0.0,0.0,0.0,0.0,0.0,0.0,0.0,0.0,0.0,0.0,0.0,0.0,0.0,0.0,0.0,0.0,0.0,0.0,0.0,3.347,3.3771,3.4048,3.4327,3.5132,3.5682,3.5981,3.6256,3.6557,3.6909,3.8014,3.8944,3.9697,3.9697,3.9697,3.9722,4.0023,4.0449,4.0951,0.0,2.9502,0.0,0.0,2.9297,0.0,2.9168,2.9496,2.9346,2.8015,2.8197,2.8298,2.7889,2.8097,2.7955,2.7225,2.6742,2.6159,2.5367,2.5301,2.4764,2.3547,2.2971,2.2174,2.0997,2.0255,2.0115,0.0,0.0,0.0,0.0,2.0932,2.1024,0.0,0.0,0.0,0.0,0.0,2.2288,2.2226,2.2415,2.2533,2.2596,2.3216,2.3471,2.3475,2.3556,2.2756,2.1563,2.0891,2.1144,2.191,2.2839,2.3534,2.4104,2.4641,2.449,2.4264,2.4691,2.4148,2.3572,2.4039,2.418,2.4054,2.3572,2.3371,2.317,2.2734,2.2221,2.1769,2.1532,2.1331,0.0,0.0,0.0,0.0,0.0,0.0,0.0,0.0,0.0,0.0,0.0,0.0,0.0,0.0,0.0,0.0,0.0,0.0,0.0,0.0,0.0,3.0809,3.1562,0.0,3.3495,3.3467,3.3872,3.4327,3.4904,3.5456,3.5956,3.6405,3.6405,3.6758,3.7437,3.8492,3.922,3.9697,3.9697,3.9697,3.9747,4.03,4.0826,4.1327,0.0,0.0,0.0,0.0,0.0,0.0,2.8955,2.9416,2.9729,2.9597,2.9603,2.9603,2.9553,2.9107,2.8244,2.6796,2.6556,2.5864,2.4416,2.4337,2.4277,2.4119,2.3199,2.2216,2.1195,2.1391,2.1074,0.0,0.0,0.0,0.0,0.0,0.0,0.0,0.0,0.0,0.0,2.3441,2.3553,2.3264,2.4164,2.4528,2.4528,2.4609,2.4641,2.4432,2.2794,2.2659,2.3035,2.1333,2.0994,2.1661,2.3904,2.4342,2.4104,2.4641,2.475,2.4741,2.4791,2.47,2.465,2.4716,2.4741,2.4716,2.465,2.4264,2.3904,2.3853,2.3361,2.2644,2.1683,2.2257,2.2719,0.0,0.0,0.0,0.0,0.0,0.0,0.0,0.0,0.0,0.0,1.9786,0.0,0.0,0.0,0.0,0.0,0.0,0.0,2.6449,0.0,3.0608,3.2093,3.229,3.3097,3.4552,3.4603,3.4904,3.5433,3.6031,3.6331,3.6405,3.6405,3.6984,3.799,3.8642,3.922,3.9697,3.9697,3.9697,3.9747,4.03,4.0826,4.1378,0.0,0.0,0.0,0.0,0.0,0.0,0.0,2.8621,2.8549,2.7911,2.8391,2.8787,2.8787,2.7671,2.6659,2.604,2.5451,2.4869,2.4249,2.394,2.3519,2.2918,2.2275,2.1553,2.0727,2.084,2.0988,0.0,0.0,0.0,0.0,0.0,0.0,0.0,0.0,2.2025,2.216,2.2585,2.2634,2.2491,2.2904,2.3055,2.3055,2.3055,2.3055,2.3018,2.2574,2.2687,2.3046,2.3261,2.3001,2.2804,2.4102,2.4715,2.5059,2.5653,2.5561,2.536,2.5728,2.5335,2.4892,2.5193,2.5285,2.5193,2.4867,2.4867,2.4782,2.413,2.3537,2.297,2.2533,2.2558,2.2659,0.0,0.0,0.0,0.0,0.0,0.0,0.0,0.0,0.0,0.0,0.0,0.0,0.0,0.0,0.0,0.0,0.0,0.0,2.6449,0.0,3.0055,3.1712,3.239,3.3244,3.4248,3.4879,3.5282,3.5508,3.613,3.6581,3.6909,3.7235,3.7813,3.8592,3.9145,3.9522,3.9697,3.9697,3.9697,3.9798,4.065,4.1127,4.1428,3.0528,0.0,2.9902,0.0,2.9406,2.8694,2.8163,2.7824,2.736,2.6607,2.6871,2.7256,2.7582,2.6573,2.5676,2.5218,2.4695,2.4185,2.3722,2.3399,2.2878,2.218,2.1909,0.0,2.0873,2.1288,2.1601,2.1745,2.2834,0.0,0.0,0.0,0.0,0.0,2.1682,2.1511,2.1712,2.201,2.2063,2.1962,2.2244,2.2372,2.2372,2.2372,2.2372,2.2381,2.2464,2.2862,2.3448,2.3939,2.4231,2.4444,2.4842,2.5257,2.5728,2.6323,2.6197,2.5954,2.6373,2.5904,2.5385,2.5778,2.5854,2.5778,2.5385,2.546,2.5285,2.423,2.3662,2.3296,2.3145,2.2794,2.2659,2.3045,0.0,0.0,0.0,0.0,0.0,0.0,2.1733,2.1669,2.1532,0.0,0.0,0.0,0.0,0.0,0.0,0.0,0.0,0.0,0.0,0.0,0.0,3.2612,3.3542,3.4377,3.5132,3.5683,3.6033,3.6584,3.6984,3.7261,3.7939,3.8517,3.8944,3.9497,3.9697,3.9697,3.9697,3.9798,4.0049,4.0976,4.1403,4.1706,3.0262,3.0188,3.0105,2.9871,2.8885,2.8124,2.8104,2.7197,2.6524,2.6504,2.5525,2.5273,2.64,2.6504,2.5891,2.4343,2.4577,2.4154,2.2626,2.2521,2.2502,0.0,0.0,2.2461,2.1979,2.3403,2.3413,2.1893,0.0,0.0,2.2318,0.0,2.2293,2.1909,2.1909,2.1633,2.1272,2.2265,2.2422,2.2092,2.308,2.3485,2.3485,2.3485,2.3485,2.3356,2.2355,2.3283,2.4671,2.2691,2.4013,2.6457,2.6457,2.608,2.5728,2.6323,2.6474,2.6474,2.6499,2.6474,2.6474,2.6474,2.6474,2.6474,2.6474,2.603,2.5285,2.423,2.3979,2.3828,2.3221,2.3095,2.3095,2.3095,0.0,0.0,0.0,0.0,0.0,0.0,2.2282,2.2081,2.1557,0.0,0.0,0.0,0.0,0.0,0.0,0.0,0.0,2.7261,2.8919,0.0,3.2169,3.2813,3.3897,3.5483,3.5483,3.6083,3.721,3.7739,3.7688,3.7261,3.8391,3.8894,3.8944,3.9497,3.9697,3.9697,3.9697,4.0023,4.0549,4.1102,4.1681,4.2288,2.9958,2.9313,2.8738,2.8659,2.7747,2.6748,2.5963,2.5567,2.5062,2.4295,2.3865,2.3779,2.4145,2.4188,2.3977,0.0,2.333,2.302,0.0,2.2246,2.209,2.209,2.1828,2.161,2.1451,2.2575,2.2615,2.1411,0.0,0.0,0.0,2.2003,2.1631,2.1385,2.079,2.0633,2.081,2.1133,2.1176,2.1088,2.1394,2.1527,2.1527,2.1527,2.1527,2.147,2.1165,2.1868,2.2858,2.2226,2.308,2.4451,2.4451,2.4803,2.5241,2.5428,2.4992,2.4594,2.53,2.5476,2.5634,2.6344,2.6499,2.6499,2.6499,2.603,2.5485,2.5159,2.4808,2.449,2.4274,2.3963,2.3838,2.4199,2.3622,0.0,0.0,0.0,0.0,0.0,2.3452,2.3401,0.0,2.3201,0.0,0.0,0.0,0.0,0.0,0.0,0.0,0.0,2.9478,0.0,3.2813,3.3721,3.4628,3.5508,3.6284,3.7036,3.7739,3.7914,3.8115,3.8391,3.8743,3.912,3.9472,3.9622,3.9697,3.9697,3.9697,4.0023,4.0549,4.1102,4.1681,4.2288,2.9188,2.8247,2.7501,2.7501,2.6584,2.5609,2.4914,2.4446,2.3908,2.319,2.3101,2.3101,2.3101,2.3101,0.0,2.3101,2.2869,2.2732,2.2732,2.2479,2.2363,2.2363,2.2285,2.217,2.199,0.0,0.0,2.1764,2.2818,2.2923,2.2125,2.1582,2.1192,2.0947,2.0402,2.0332,2.0605,2.0605,2.0605,2.0605,2.0605,2.0605,2.0605,2.0605,2.0605,2.0605,2.0605,2.1202,2.1962,2.1583,2.2483,2.3702,2.3329,2.3742,2.4414,2.4618,2.426,2.3932,2.471,2.4923,2.518,2.6243,2.6328,2.6237,2.6463,2.6223,2.5879,2.5653,2.5335,2.5042,2.4842,2.4515,2.4415,2.4741,2.4023,2.3562,2.3954,0.0,0.0,0.0,0.0,0.0,0.0,2.4481,2.4732,0.0,0.0,0.0,0.0,0.0,0.0,2.8699,3.0337,0.0,3.3391,3.4452,3.538,3.6158,3.7287,3.7914,3.8015,3.8442,3.8718,3.8894,3.912,3.9396,3.9697,3.9697,3.9697,3.9697,3.9697,4.0149,4.0851,4.1202,4.1806,4.2537,2.7984,2.7116,2.638,0.0,2.5441,0.0,2.4681,2.3779,2.3101,2.3101,2.3101,2.3101,2.3101,2.3101,2.3101,2.3101,0.0,0.0,0.0,2.3101,2.3101,2.3101,2.361,2.368,2.3243,2.3802,2.365,2.2702,2.213,2.1639,2.1252,2.119,2.0969,2.0644,2.0644,2.0625,2.0605,2.0664,2.0683,2.0644,2.0644,2.0664,2.0683,2.0644,2.0644,2.0703,2.0703,2.1245,2.1857,2.0995,2.2167,2.3872,2.2928,2.2888,2.3318,2.3947,2.4082,2.4155,2.4654,2.4767,2.5001,2.6278,2.6158,2.5877,2.6474,2.6549,2.6348,2.5829,2.5711,2.5561,2.5017,2.4917,2.4917,2.4917,2.4431,2.4079,2.4104,0.0,0.0,0.0,0.0,0.0,0.0,2.5385,2.5661,0.0,0.0,0.0,0.0,0.0,2.8316,2.9854,3.1486,3.2867,3.3997,3.5079,3.6183,3.7336,3.8391,3.8642,3.8165,3.922,3.9446,3.8969,3.9471,3.9697,3.9697,3.9697,3.9697,3.9697,3.9697,4.0375,4.1302,4.1302,4.2005,4.3014,0.0,0.0,2.521,2.521,2.4253,2.3517,2.3517,2.3256,2.3101,2.3101,2.3101,2.3101,2.3101,2.3101,2.3101,2.3101,2.3101,2.3101,2.3101,2.3101,2.3101,2.3101,2.2949,2.2801,2.2702,2.2912,2.2954,2.27,2.1813,2.149,2.1709,2.1055,2.0859,2.1054,2.1054,2.0879,2.0644,2.1309,2.1387,2.1054,2.1054,2.1269,2.1563,2.1191,2.1289,2.1602,2.1602,2.1746,2.1888,2.1664,2.1967,2.2392,2.2149,2.2147,2.2391,2.3277,2.3016,2.2797,2.4491,2.4316,2.4316,2.7031,2.7309,2.704,2.7591,2.7102,2.6575,2.6834,2.6909,2.6733,2.6197,2.6097,2.6097,2.6097,2.5259,2.4741,2.5159,2.5209,0.0,0.0,2.6381,2.6708,2.6708,2.6457,2.6298,0.0,0.0,0.0,0.0,2.9503,3.0608,3.1009,3.2641,3.4,3.513,3.6257,3.7362,3.8492,3.8768,3.9044,3.9295,3.9572,3.9622,3.9522,3.9647,3.9697,3.9697,3.9697,3.9697,3.9697,3.9697,4.0375,4.1302,4.1302,4.2005,4.3014,2.5714,2.4829,2.4017,2.4017,2.3517,2.3101,2.3101,2.3101,2.3101,2.3101,2.3101,2.3101,2.3101,2.3101,2.3101,2.3101,2.3101,2.3101,2.3101,2.3101,2.3101,2.3101,2.2908,2.2693,2.2498,2.255,2.2412,2.2027,2.1688,2.1542,2.1562,2.1329,2.1191,2.121,2.1425,2.1289,2.0918,2.1622,2.1758,2.1503,2.1503,2.168,2.1855,2.1621,2.168,2.1915,2.1915,2.1915,2.1915,2.1915,2.2012,2.2168,2.2168,2.2305,2.2567,2.3055,2.2726,2.2458,2.3784,2.4073,2.4581,2.7119,2.7872,2.8047,2.8097,2.7645,2.7311,2.7613,2.767,2.7587,2.7286,2.701,2.6876,2.6876,2.5929,2.5285,2.5561,2.5829,0.0,2.6449,2.7185,2.767,2.767,2.762,2.7512,2.7261,0.0,0.0,2.9227,3.111,3.206,3.1763,3.3919,3.5303,3.5906,3.7311,3.8291,3.8894,3.9145,3.9421,3.9697,3.9697,3.9697,3.9697,3.9697,3.9697,3.9697,3.9697,3.9697,3.9722,3.9973,4.0575,4.1327,4.163,4.2258,4.3014,2.4532,2.3757,2.3101,2.3101,2.3101,2.3101,2.3101,2.3101,2.3101,2.3101,2.3159,2.322,2.322,2.322,2.322,2.322,2.314,2.3101,2.3101,2.3101,2.3101,2.3101,2.3101,2.2925,2.2596,2.2596,2.2206,2.1405,2.1797,2.1816,2.1483,2.1777,2.1719,2.1405,2.1816,2.1738,2.1347,2.1855,2.2031,2.1973,2.1973,2.2032,2.207,2.2012,2.2031,2.207,2.207,2.207,2.207,2.207,2.2305,2.2596,2.2596,2.283,2.3101,2.3101,2.2869,2.2697,2.3223,2.4318,2.5605,2.6843,2.8032,2.8787,2.8448,2.8204,2.8122,2.8204,2.8204,2.8197,2.8104,2.772,2.7412,2.7412,2.6465,2.5787,2.5937,0.0,2.6801,2.6977,2.7871,2.8524,2.8599,2.8932,2.9007,2.8624,2.993,3.0738,3.0839,3.2516,3.3219,3.2696,3.51,3.6531,3.6758,3.819,3.8944,3.9019,3.9471,3.9697,3.9697,3.9697,3.9747,3.9823,3.9722,3.9798,3.9948,3.9848,3.9873,3.9998,4.0424,4.0951,4.1503,4.2009,4.2537,4.3014,2.3365,2.3212,2.3101,2.3101,2.3101,2.3101,2.3101,2.3101,2.3101,2.3101,2.3457,2.3691,2.3691,2.3691,2.3691,2.3691,2.3337,2.3101,2.3101,2.3101,2.3101,2.3101,2.3101,2.3062,2.3003,2.3003,2.2771,2.2303,2.2383,2.2537,2.2789,2.2187,2.2031,2.2303,2.2362,2.2187,2.1836,2.2596,2.2713,2.2422,2.2422,2.2596,2.2888,2.2537,2.2615,2.2906,2.2906,2.2906,2.2906,2.2906,2.2967,2.3003,2.3003,2.3042,2.3101,2.3101,2.3042,2.3221,2.4254,2.6025,2.7438,2.678,2.7754,2.9007,2.9428,2.88,2.8247,2.8681,2.8781,2.8631,2.8197,2.8021,2.7971,2.7971,2.706,2.6675,2.7595,0.0,2.8197,2.917,2.9829,3.0407,3.0834,3.0538,3.0487,3.0859,3.111,3.1461,3.1938,3.3975,3.5082,3.4981,3.5929,3.706,3.8492,3.8768,3.912,3.9572,3.9647,3.9697,3.9697,3.9697,3.9948,4.035,3.9898,4.0224,4.1026,4.0549,4.0625,4.1076,4.1152,4.1555,4.206,4.2187,4.2537,4.3065,2.3101,2.3101,2.3101,2.3101,2.3101,2.3201,2.3435,2.3496,2.3552,2.3767,2.3981,2.4121,2.4121,2.4121,2.4121,2.4121,2.373,2.3496,2.3496,2.324,2.3101,2.3101,2.3101,2.3101,2.3101,2.3101,2.2886,2.2498,2.2713,2.281,2.2771,2.2615,2.2518,2.2498,2.2732,2.2596,2.2266,2.2849,2.2984,2.283,2.283,2.2925,2.3081,2.2908,2.2947,2.3101,2.3101,2.3101,2.3101,2.3101,2.3101,2.3101,2.3101,2.3101,2.3101,2.3101,2.3101,2.3343,2.451,2.5983,2.7258,2.734,2.8376,2.9478,2.9729,2.9377,2.9101,2.9327,2.9383,2.9327,2.9051,2.875,2.853,2.853,2.7871,0.0,0.0,2.8355,2.885,2.9704,3.0281,3.0914,3.1763,3.1612,3.1712,3.2286,3.2566,3.3119,3.395,3.5255,3.6384,3.7312,3.7612,3.824,3.9321,3.9346,3.9472,3.9697,3.9697,3.9848,4.0149,4.0149,4.0399,4.0926,4.0675,4.0851,4.1275,4.1051,4.1076,4.1327,4.1656,4.1959,4.2288,4.2838,4.324,4.3489,2.3101,2.3101,2.3101,2.3101,2.3201,2.3376,2.373,2.3867,2.4043,2.4352,2.4489,2.457,2.457,2.457,2.457,2.457,2.418,2.3887,2.3811,2.3454,2.3198,2.3101,2.3101,2.3101,2.3101,2.3101,2.2967,2.2635,2.2967,2.2925,2.2654,2.2967,2.2947,2.2654,2.2945,2.2947,2.2654,2.2986,2.3101,2.3101,2.3101,2.3101,2.3101,2.3101,2.3101,2.3101,2.3101,2.3101,2.3101,2.3101,2.3101,2.3101,2.3101,2.3101,2.3101,2.3101,2.3101,2.3278,2.4168,2.542,2.6709,2.7522,2.8767,2.9804,2.9804,2.9804,2.9849,2.9955,2.988,2.988,3.0131,2.9459,2.9007,2.9258,0.0,0.0,0.0,2.8932,2.9459,3.0432,3.0934,3.1612,3.267,3.2771,3.3022,3.3596,3.4173,3.4901,3.5857,3.6609,3.7613,3.9044,3.9095,3.9296,3.9697,3.9697,3.9697,3.9697,3.9823,4.0099,4.0499,4.0625,4.0976,4.1503,4.1378,4.1453,4.1679,4.1553,4.1578,4.1729,4.221,4.2462,4.2663,4.3489,4.389,4.4066,2.3101,2.3101,2.3101,2.3101,2.3454,2.375,2.3789,2.4121,2.4352,2.4391,2.4789,2.5043,2.5043,2.5043,2.5043,2.5043,2.4609,2.4199,2.3809,2.3769,2.3555,2.312,2.3101,2.3101,2.3101,2.3101,2.3081,2.3042,2.3081,2.3081,2.3042,2.3081,2.3081,2.3042,2.3081,2.3081,2.3042,2.3081,2.3101,2.3101,2.3101,2.3101,2.3101,2.3101,2.3101,2.3101,2.3101,2.3101,2.3101,2.3101,2.3101,2.3101,2.3101,2.3101,2.3101,2.3101,2.3101,2.3123,2.319,2.4829,2.6524,2.6607,2.8211,2.9804,2.9804,2.9804,2.993,3.0437,3.0156,3.0105,3.1105,2.996,2.9258,3.0312,0.0,0.0,3.0186,3.003,3.0527,3.2612,3.2889,3.3341,3.4402,3.4527,3.4753,3.5282,3.5882,3.6483,3.7036,3.8115,3.8994,3.9622,3.9647,3.9647,3.9697,3.9697,3.9697,3.9697,4.0199,4.0449,4.0499,4.1026,4.158,4.2085,4.1528,4.1879,4.2838,4.2336,4.2436,4.2889,4.2939,4.3237,4.3689,4.3765,4.4116,4.4614,2.3101,2.3101,2.3201,2.3474,2.375,2.4082,2.4535,2.475,2.4922,2.5171,2.5347,2.5488,2.5488,2.5488,2.5488,2.5488,2.5078,2.4769,2.4613,2.4336,2.3845,2.312,2.3101,2.3101,2.3101,2.3101,2.3101,2.3101,2.3101,2.3101,2.3101,2.3101,2.3101,2.3101,2.3101,2.3101,2.3101,2.3101,2.3101,2.3101,2.3101,2.3101,2.3101,2.3101,2.3101,2.3101,2.3101,2.3101,2.3101,2.3101,2.3101,2.3101,2.3101,2.3298,2.3571,2.3825,2.3903,2.3903,2.3903,2.5437,2.7061,2.7312,2.9103,3.0783,3.0783,3.0783,3.0834,3.106,3.0934,3.0909,3.1311,3.0884,3.0608,3.1035,0.0,3.0864,3.1491,3.1738,3.2286,3.3467,3.3617,3.4022,3.5082,3.5529,3.5981,3.6508,3.7086,3.7638,3.8215,3.8994,3.9471,3.9697,3.9697,3.9697,3.9697,3.9697,3.9873,4.0199,4.0399,4.0877,4.1557,4.1783,4.216,4.2688,4.2434,4.2585,4.2989,4.2788,4.2813,4.3039,4.3363,4.3614,4.389,4.4593,4.497,4.5246,2.3318,2.3435,2.361,2.3926,2.418,2.4535,2.5024,2.5219,2.5391,2.5654,2.5693,2.5693,2.5693,2.5693,2.5693,2.5693,2.5449,2.5239,2.5102,2.4668,2.4079,2.3357,2.3181,2.3101,2.3101,2.3101,2.3101,2.3101,2.3101,2.3101,2.3101,2.3101,2.3101,2.3101,2.3101,2.3101,2.3101,2.3101,2.3101,2.3101,2.3101,2.3101,2.3101,2.3101,2.3101,2.3101,2.3101,2.3101,2.312,2.3279,2.3318,2.3337,2.3474,2.3728,2.4043,2.4336,2.4391,2.443,2.459,2.5984,2.7393,2.7327,2.9102,3.0828,3.0828,3.1141,3.1486,3.1859,3.1763,3.1813,3.234,3.2139,3.2009,3.2139,3.234,3.2541,3.2717,3.3093,3.3596,3.4324,3.4575,3.5027,3.5958,3.6558,3.7135,3.7688,3.8065,3.8542,3.912,3.9496,3.9697,3.9697,3.9697,3.9772,3.9948,3.9948,4.0149,4.0499,4.0877,4.1456,4.2213,4.2361,4.2637,4.3014,4.3014,4.3014,4.3014,4.3014,4.3115,4.3291,4.3664,4.4016,4.4418,4.5196,4.5598,4.5799,2.3789,2.4141,2.4391,2.4391,2.4809,2.5082,2.5102,2.5449,2.5693,2.5693,2.5693,2.5693,2.5693,2.5693,2.5693,2.5693,2.5693,2.5523,2.5121,2.4668,2.4238,2.3828,2.3357,2.3101,2.3101,2.3101,2.3101,2.3101,2.3101,2.3101,2.3101,2.3101,2.3101,2.3101,2.3101,2.3101,2.3101,2.3101,2.3101,2.3101,2.3101,2.3101,2.3101,2.3101,2.3101,2.3101,2.3101,2.3101,2.3179,2.3652,2.3789,2.3867,2.4297,2.4391,2.441,2.441,2.441,2.4531,2.4984,2.6324,2.7366,2.6355,2.7896,2.9614,2.9614,3.0563,3.1758,3.2889,3.2641,3.2721,3.4402,3.3822,3.3291,3.3822,3.3467,3.3316,3.3847,3.3922,3.4301,3.5382,3.6031,3.6607,3.716,3.7688,3.8241,3.8843,3.8894,3.9145,3.9672,3.9697,3.9697,3.9697,3.9697,3.9973,4.0499,4.0499,4.0499,4.0524,4.1658,4.2213,4.2238,4.2763,4.3014,4.3014,4.3014,4.3014,4.3014,4.3014,4.3313,4.3815,4.3815,4.4493,4.5497,4.5497,4.5849,4.6301,2.418,2.4336,2.4512,2.4824,2.5004,2.52,2.5488,2.562,2.5693,2.5693,2.5693,2.5693,2.5693,2.5693,2.5693,2.5693,2.5693,2.5659,2.5523,2.5117,2.4848,2.4711,2.3984,2.3594,2.3594,2.3279,2.3101,2.3101,2.3101,2.3101,2.3101,2.3101,2.3101,2.3101,2.3435,2.3396,2.314,2.3747,2.3845,2.3633,2.3903,2.4001,2.4001,2.4001,2.4001,2.4001,2.4001,2.4001,2.404,2.4157,2.4238,2.4297,2.4769,2.5098,2.5386,2.5703,2.6016,2.6245,2.6406,2.6799,2.7236,2.7523,2.9685,3.1797,3.1797,3.2765,3.38,3.4148,3.4076,3.4101,3.4603,3.4427,3.4299,3.4427,3.4653,3.5002,3.5577,3.5979,3.6458,3.7162,3.7412,3.7588,3.7739,3.8291,3.8718,3.8894,3.9245,3.9521,3.9697,4.0074,4.0275,4.0275,4.0625,4.0901,4.1076,4.0675,4.0902,4.1708,4.2034,4.2386,4.2763,4.2939,4.3014,4.3014,4.3014,4.3187,4.3539,4.3165,4.3539,4.4338,4.4338,4.4819,4.5547,4.5924,4.6175,4.6301,2.4629,2.4824,2.4996,2.5293,2.5332,2.543,2.5654,2.5693,2.5693,2.5693,2.5693,2.5693,2.5693,2.5693,2.5693,2.5693,2.5693,2.5693,2.5693,2.5488,2.5332,2.5332,2.4691,2.4242,2.4043,2.3767,2.363,2.363,2.363,2.363,2.363,2.363,2.363,2.363,2.3903,2.3864,2.3649,2.4176,2.4277,2.4062,2.4293,2.4391,2.4391,2.4391,2.4391,2.4391,2.4391,2.4391,2.4434,2.4609,2.4902,2.5234,2.5532,2.5898,2.6264,2.6562,2.6816,2.6986,2.6986,2.7148,2.7387,2.7874,3.001,3.1971,3.1971,3.3396,3.4753,3.4979,3.5029,3.5104,3.5328,3.5378,3.5454,3.5655,3.5958,3.6359,3.6959,3.7287,3.7638,3.7965,3.8216,3.8341,3.8341,3.8894,3.922,3.922,3.9697,4.0023,4.0023,4.0524,4.0826,4.0826,4.1152,4.1403,4.1656,4.1329,4.1532,4.2213,4.2439,4.2688,4.3014,4.3014,4.3115,4.3313,4.3313,4.3614,4.4091,4.3765,4.4166,4.497,4.497,4.5321,4.5849,4.6175,4.6301,4.6301,2.5141,2.5449,2.5693,2.5693,2.5693,2.5693,2.5693,2.5693,2.5693,2.5693,2.5693,2.5693,2.5693,2.5693,2.5693,2.5693,2.5693,2.5693,2.5693,2.5693,2.5693,2.5693,2.5352,2.4941,2.4528,2.443,2.4391,2.4391,2.4391,2.4391,2.4391,2.4391,2.4391,2.4391,2.443,2.443,2.4391,2.4469,2.4512,2.4473,2.4489,2.4508,2.4508,2.4508,2.4528,2.459,2.459,2.4586,2.4707,2.5141,2.5806,2.6445,2.6445,2.6738,2.7045,2.7045,2.709,2.7129,2.7129,2.7422,2.7741,2.7741,2.9384,3.1009,3.1009,3.3005,3.4979,3.5481,3.5608,3.5832,3.6356,3.6507,3.6708,3.721,3.7286,3.7437,3.8015,3.809,3.809,3.814,3.8642,3.8969,3.8969,3.9421,3.9697,3.9697,4.0199,4.0499,4.0499,4.1051,4.1378,4.1378,4.1478,4.1806,4.2363,4.2336,4.2338,4.2288,4.2763,4.3014,4.3014,4.3065,4.3341,4.379,4.384,4.4192,4.4665,4.4614,4.4995,4.5547,4.5497,4.5824,4.6301,4.6301,4.6301,4.6326,2.5503,2.564,2.5693,2.5693,2.5693,2.5693,2.5693,2.5693,2.5693,2.5693,2.5693,2.5693,2.5693,2.5693,2.5693,2.5693,2.5693,2.5693,2.5693,2.5693,2.5693,2.5693,2.562,2.5523,2.5425,2.4742,2.4391,2.4391,2.4391,2.4391,2.4391,2.4391,2.4391,2.441,2.4766,2.4727,2.443,2.5132,2.5254,2.4984,2.5289,2.5425,2.5425,2.5425,2.564,2.5957,2.5957,2.6172,2.644,2.6562,2.6719,2.6875,2.6875,2.7168,2.7545,2.7545,2.7754,2.8008,2.8008,2.8086,2.8191,2.8191,3.0097,3.1992,3.1992,3.4077,3.6055,3.618,3.6557,3.686,3.7009,3.7386,3.7688,3.7814,3.7839,3.804,3.8617,3.8693,3.8869,3.927,3.9446,3.9547,3.9547,3.9622,3.9697,3.9697,4.0199,4.0499,4.0499,4.1482,4.2009,4.2009,4.2811,4.3313,4.3438,4.3438,4.324,4.2838,4.2939,4.3014,4.3014,4.3441,4.3689,4.3815,4.4238,4.4769,4.5271,4.479,4.5192,4.6075,4.5648,4.5824,4.6301,4.6301,4.6301,4.6376,2.5659,2.5693,2.5693,2.5693,2.5693,2.5693,2.5693,2.5693,2.5693,2.5693,2.5693,2.5693,2.5693,2.5693,2.5693,2.5693,2.5693,2.5693,2.5693,2.5693,2.5815,2.601,2.603,2.6108,2.6323,2.5874,2.5425,2.5015,2.5015,2.5132,2.5352,2.5113,2.5132,2.5352,2.5371,2.5254,2.5054,2.5523,2.5698,2.5747,2.5957,2.6147,2.6323,2.6323,2.6459,2.668,2.668,2.6836,2.6986,2.6986,2.7148,2.7324,2.7324,2.7617,2.7995,2.7995,2.8262,2.8594,2.8594,2.8594,2.8822,2.9729,3.1363,3.2647,3.2373,3.4602,3.6783,3.6783,3.721,3.7588,3.7588,3.7814,3.809,3.8366,3.8417,3.8642,3.9195,3.9296,3.9396,3.9672,3.9697,3.9697,3.9697,3.9697,3.9798,4.0074,4.0575,4.1028,4.1306,4.211,4.2587,4.2587,4.314,4.3539,4.379,4.379,4.379,4.3765,4.3489,4.3514,4.3765,4.4066,4.4342,4.4618,4.492,4.5347,4.5849,4.5547,4.5744,4.6276,4.5999,4.605,4.6301,4.6301,4.6446,4.6722,2.5693,2.5693,2.5693,2.5693,2.5693,2.5693,2.5693,2.5693,2.5693,2.5693,2.5693,2.5693,2.5693,2.5693,2.5693,2.5693,2.5693,2.5713,2.5815,2.5835,2.601,2.6484,2.6504,2.666,2.6986,2.6986,2.6635,2.5908,2.5908,2.6108,2.6484,2.6108,2.6089,2.6412,2.6069,2.5854,2.5693,2.5874,2.6108,2.6412,2.6465,2.6699,2.6986,2.6986,2.707,2.7129,2.7129,2.7168,2.7201,2.7201,2.748,2.78,2.78,2.8034,2.8301,2.8379,2.8652,2.8918,2.9004,2.9215,2.9766,3.1391,3.2757,3.3552,3.307,3.5229,3.7361,3.7361,3.7764,3.814,3.814,3.8241,3.8442,3.8969,3.9044,3.9195,3.9622,3.9697,3.9697,3.9697,3.9697,3.9747,3.9823,3.9848,4.0074,4.06,4.1127,4.1681,4.2187,4.2713,4.3014,4.3014,4.309,4.3388,4.394,4.394,4.4267,4.4865,4.4342,4.4267,4.4589,4.469,4.502,4.5497,4.5598,4.5899,4.6301,4.6301,4.6301,4.6301,4.6301,4.6301,4.6326,4.6396,4.6722,4.7124,2.5693,2.5693,2.5693,2.5693,2.5693,2.5693,2.5693,2.5693,2.5693,2.5693,2.5693,2.5693,2.5693,2.5693,2.5693,2.5693,2.5693,2.5874,2.6269,2.6309,2.6484,2.6914,2.6934,2.6928,2.6986,2.6986,2.6928,2.6811,2.6811,2.6875,2.6934,2.685,2.668,2.6406,2.6699,2.6401,2.5757,2.6498,2.666,2.6426,2.6777,2.6947,2.6986,2.6986,2.7246,2.7604,2.7604,2.7839,2.8125,2.8125,2.8164,2.8203,2.8203,2.8242,2.8359,2.873,2.884,2.9004,2.9403,3.0449,3.1467,3.1746,3.3716,3.5586,3.5515,3.6747,3.7889,3.7889,3.8341,3.8768,3.8768,3.917,3.9496,3.9572,3.9572,3.9622,3.9697,3.9697,3.9697,3.9697,3.9697,3.9873,4.035,4.04,4.06,4.1152,4.1731,4.211,4.2213,4.2713,4.3014,4.3014,4.3438,4.3966,4.4489,4.4489,4.5016,4.6075,4.5522,4.502,4.4614,4.5146,4.5422,4.5552,4.5999,4.625,4.6301,4.6301,4.6301,4.6301,4.6301,4.6301,4.6376,4.6823,4.7048,4.7249,2.5693,2.5693,2.5693,2.5693,2.5693,2.5693,2.5693,2.5693,2.5693,2.5693,2.5932,2.6094,2.6094,2.6284,2.6323,2.6113,2.6284,2.6401,2.6387,2.6602,2.6816,2.6986,2.7246,2.75,2.7715,2.7734,2.7734,2.7734,2.7246,2.7129,2.7409,2.7129,2.7051,2.7135,2.7051,2.6771,2.6459,2.683,2.7051,2.7154,2.733,2.7519,2.7734,2.7734,2.7851,2.8034,2.8034,2.8297,2.8647,2.8647,2.8817,2.9038,2.9038,2.9035,2.907,2.9238,2.9453,2.9668,2.9863,3.1005,3.2408,3.3486,3.5108,3.6716,3.7826,3.8512,3.8868,3.8542,3.8969,3.9346,3.9346,3.9521,3.9697,3.9697,3.9697,3.9798,4.0099,3.9898,3.9798,4.0124,4.0399,4.0675,4.0926,4.0951,4.1177,4.1756,4.2034,4.2462,4.3065,4.3039,4.314,4.3438,4.3689,4.4066,4.4589,4.4945,4.5522,4.6301,4.6075,4.5824,4.5543,4.5824,4.5949,4.5974,4.62,4.6301,4.6301,4.6301,4.6301,4.6301,4.6301,4.6471,4.6772,4.7023,4.75,4.8109]},{"header":{"parameterUnit":"m.s-1","parameterCategory":1,"la1":30.6,"la2":28.766,"lo1":-90.7593,"lo2":-88.6598,"dy":0.0162,"dx":0.0183,"nx":116,"ny":114,"refTime":"2023-05-25T00:00:00:Z","depth":0,"parameterNumber":3,"parameterNumberName":"V-component_of_WINDS"},"data":[0.0,0.0,0.0,0.0,0.0,0.0,0.0,0.0,0.0,0.0,0.0,0.0,0.0,0.0,0.0,0.0,0.0,0.0,0.0,0.0,0.0,0.0,0.0,0.0,0.0,0.0,0.0,0.0,0.0,0.0,0.0,0.0,0.0,0.0,0.0,0.0,0.0,0.0,0.0,0.0,0.0,0.0,0.0,0.0,0.0,0.0,0.0,0.0,0.0,0.0,0.0,0.0,0.0,0.0,0.0,0.0,0.0,0.0,0.0,0.0,0.0,0.0,0.0,0.0,0.0,0.0,0.0,0.0,0.0,0.0,0.0,0.0,0.0,0.0,0.0,0.0,0.0,0.0,0.0,0.0,0.0,0.0,0.0,0.0,0.0,0.0,0.0,0.0,0.0,0.0,0.0,0.0,0.0,0.0,0.0,0.0,0.0,0.0,0.0,0.0,0.0,0.0,0.0,0.0,0.0,0.0,0.0,0.0,0.0,0.0,0.0,0.0,0.0,0.0,0.0,0.0,0.0,0.0,0.0,0.0,0.0,0.0,0.0,0.0,0.0,0.0,0.0,0.0,0.0,0.0,0.0,0.0,0.0,0.0,0.0,0.0,0.0,0.0,0.0,0.0,0.0,0.0,0.0,0.0,0.0,0.0,0.0,0.0,0.0,0.0,0.0,0.0,0.0,0.0,0.0,0.0,0.0,0.0,0.0,0.0,0.0,0.0,0.0,0.0,0.0,0.0,0.0,0.0,0.0,0.0,0.0,0.0,0.0,0.0,0.0,0.0,0.0,0.0,0.0,0.0,0.0,0.0,0.0,0.0,0.0,0.0,0.0,0.0,0.0,0.0,0.0,0.0,0.0,0.0,0.0,0.0,0.0,0.0,0.0,0.0,0.0,0.0,0.0,0.0,0.0,0.0,0.0,0.0,0.0,0.0,0.0,0.0,0.0,0.0,0.0,0.0,0.0,0.0,0.0,0.0,0.0,0.0,0.0,0.0,0.0,0.0,0.0,0.0,0.0,0.0,0.0,0.0,0.0,0.0,0.0,0.0,0.0,0.0,0.0,0.0,0.0,0.0,0.0,0.0,0.0,0.0,0.0,0.0,0.0,0.0,0.0,0.0,0.0,0.0,0.0,0.0,0.0,0.0,0.0,0.0,0.0,0.0,0.0,0.0,0.0,0.0,0.0,0.0,0.0,0.0,0.0,0.0,0.0,0.0,0.0,0.0,0.0,0.0,0.0,0.0,0.0,0.0,0.0,0.0,0.0,0.0,0.0,0.0,0.0,0.0,0.0,0.0,0.0,0.0,0.0,0.0,0.0,0.0,0.0,0.0,0.0,0.0,0.0,0.0,0.0,0.0,0.0,0.0,0.0,0.0,0.0,0.0,0.0,0.0,0.0,0.0,0.0,0.0,0.0,0.0,0.0,0.0,0.0,0.0,0.0,0.0,0.0,0.0,0.0,0.0,0.0,0.0,0.0,0.0,0.0,0.0,0.0,0.0,0.0,0.0,0.0,0.0,0.0,0.0,0.0,0.0,0.0,0.0,0.0,0.0,0.0,0.0,0.0,0.0,0.0,0.0,0.0,0.0,0.0,0.0,0.0,0.0,0.0,0.0,0.0,0.0,0.0,0.0,0.0,0.0,0.0,0.0,0.0,0.0,0.0,0.0,0.0,0.0,0.0,0.0,0.0,0.0,0.0,0.0,0.0,0.0,0.0,0.0,0.0,0.0,0.0,0.0,0.0,0.0,0.0,0.0,0.0,0.0,0.0,0.0,0.0,0.0,0.0,0.0,0.0,0.0,0.0,0.0,0.0,0.0,0.0,0.0,0.0,0.0,0.0,0.0,0.0,0.0,0.0,0.0,0.0,0.0,0.0,0.0,0.0,0.0,0.0,0.0,0.0,0.0,0.0,0.0,0.0,0.0,0.0,0.0,0.0,0.0,0.0,0.0,0.0,0.0,0.0,0.0,0.0,0.0,0.0,0.0,0.0,0.0,0.0,0.0,0.0,0.0,0.0,0.0,0.0,0.0,0.0,0.0,0.0,0.0,0.0,0.0,0.0,0.0,0.0,0.0,0.0,0.0,0.0,0.0,0.0,0.0,0.0,0.0,0.0,0.0,0.0,0.0,0.0,0.0,0.0,0.0,0.0,0.0,0.0,0.0,0.0,0.0,0.0,0.0,0.0,0.0,0.0,0.0,0.0,0.0,0.0,0.0,0.0,0.0,0.0,0.0,0.0,0.0,0.0,0.0,0.0,0.0,0.0,0.0,0.0,0.0,0.0,0.0,0.0,0.0,0.0,0.0,0.0,0.0,0.0,0.0,0.0,0.0,0.0,0.0,0.0,0.0,0.0,0.0,0.0,0.0,0.0,0.0,0.0,0.0,0.0,0.0,0.0,0.0,0.0,0.0,0.0,0.0,0.0,0.0,0.0,0.0,0.0,0.0,0.0,0.0,0.0,0.0,0.0,0.0,0.0,0.0,0.0,0.0,0.0,0.0,0.0,0.0,0.0,0.0,0.0,0.0,0.0,0.0,0.0,0.0,0.0,0.0,0.0,0.0,0.0,0.0,0.0,0.0,0.0,0.0,0.0,0.0,0.0,0.0,0.0,0.0,0.0,0.0,0.0,0.0,0.0,0.0,0.0,0.0,0.0,0.0,0.0,0.0,0.0,0.0,0.0,0.0,0.0,0.0,0.0,0.0,0.0,0.0,0.0,0.0,0.0,0.0,0.0,0.0,0.0,0.0,0.0,0.0,0.0,0.0,0.0,0.0,0.0,0.0,0.0,0.0,0.0,0.0,0.0,0.0,0.0,0.0,0.0,0.0,0.0,0.0,0.0,0.0,0.0,0.0,0.0,0.0,0.0,0.0,0.0,0.0,0.0,0.0,0.0,0.0,0.0,0.0,0.0,0.0,0.0,0.0,0.0,0.0,0.0,0.0,0.0,0.0,0.0,0.0,0.0,0.0,0.0,0.0,0.0,0.0,0.0,0.0,0.0,0.0,0.0,0.0,0.0,0.0,0.0,0.0,0.0,0.0,0.0,0.0,0.0,0.0,0.0,0.0,0.0,0.0,0.0,0.0,0.0,0.0,0.0,0.0,0.0,0.0,0.0,0.0,0.0,0.0,0.0,0.0,0.0,0.0,0.0,0.0,0.0,0.0,0.0,0.0,0.0,0.0,0.0,0.0,0.0,0.0,0.0,0.0,0.0,0.0,0.0,0.0,0.0,0.0,0.0,0.0,0.0,0.0,0.0,0.0,0.0,0.0,0.0,0.0,0.0,0.0,0.0,0.0,0.0,0.0,0.0,0.0,0.0,0.0,0.0,0.0,0.0,0.0,0.0,0.0,0.0,0.0,0.0,0.0,0.0,0.0,0.0,0.0,0.0,0.0,0.0,0.0,0.0,0.0,0.0,0.0,0.0,0.0,0.0,0.0,0.0,0.0,0.0,0.0,0.0,0.0,0.0,0.0,0.0,0.0,0.0,0.0,0.0,0.0,0.0,0.0,0.0,0.0,0.0,0.0,0.0,0.0,0.0,0.0,0.0,0.0,0.0,0.0,0.0,0.0,0.0,0.0,0.0,0.0,0.0,0.0,0.0,0.0,0.0,0.0,0.0,0.0,0.0,0.0,0.0,0.0,0.0,0.0,0.0,0.0,0.0,0.0,0.0,0.0,0.0,0.0,0.0,0.0,0.0,0.0,0.0,0.0,0.0,0.0,0.0,0.0,0.0,0.0,0.0,0.0,0.0,0.0,0.0,0.0,0.0,0.0,0.0,0.0,0.0,0.0,0.0,0.0,0.0,0.0,0.0,0.0,0.0,0.0,0.0,0.0,0.0,0.0,0.0,0.0,0.0,0.0,0.0,0.0,0.0,0.0,0.0,0.0,0.0,0.0,0.0,0.0,0.0,0.0,0.0,0.0,0.0,0.0,0.0,0.0,0.0,0.0,0.0,0.0,0.0,0.0,0.0,0.0,0.0,0.0,0.0,0.0,0.0,0.0,0.0,0.0,0.0,0.0,0.0,0.0,0.0,0.0,0.0,0.0,0.0,0.0,0.0,0.0,0.0,0.0,0.0,0.0,0.0,0.0,0.0,0.0,0.0,0.0,0.0,0.0,0.0,0.0,0.0,0.0,0.0,0.0,0.0,0.0,0.0,0.0,0.0,0.0,0.0,0.0,0.0,0.0,0.0,0.0,0.0,0.0,0.0,0.0,0.0,0.0,0.0,0.0,0.0,0.0,0.0,0.0,0.0,0.0,0.0,0.0,0.0,0.0,0.0,0.0,0.0,0.0,0.0,0.0,0.0,0.0,0.0,0.0,0.0,0.0,0.0,0.0,0.0,0.0,0.0,0.0,0.0,0.0,0.0,0.0,0.0,0.0,0.0,0.0,0.0,0.0,0.0,0.0,0.0,0.0,0.0,0.0,0.0,0.0,0.0,0.0,0.0,0.0,0.0,0.0,0.0,0.0,0.0,0.0,0.0,0.0,0.0,0.0,0.0,0.0,0.0,0.0,0.0,0.0,0.0,0.0,0.0,0.0,0.0,0.0,0.0,0.0,0.0,0.0,0.0,0.0,0.0,0.0,0.0,0.0,0.0,0.0,0.0,0.0,0.0,0.0,0.0,0.0,0.0,0.0,0.0,0.0,0.0,0.0,0.0,0.0,0.0,0.0,0.0,0.0,0.0,0.0,0.0,0.0,0.0,0.0,0.0,0.0,0.0,0.0,0.0,0.0,0.0,0.0,0.0,0.0,0.0,0.0,0.0,0.0,0.0,0.0,0.0,0.0,0.0,0.0,0.0,0.0,0.0,0.0,0.0,0.0,0.0,0.0,0.0,0.0,0.0,0.0,0.0,0.0,0.0,0.0,0.0,0.0,0.0,0.0,0.0,0.0,0.0,0.0,0.0,0.0,0.0,0.0,0.0,0.0,0.0,0.0,0.0,0.0,0.0,0.0,0.0,0.0,0.0,0.0,0.0,0.0,0.0,0.0,0.0,0.0,0.0,0.0,0.0,0.0,0.0,0.0,0.0,0.0,0.0,0.0,0.0,0.0,0.0,0.0,0.0,0.0,0.0,0.0,0.0,0.0,0.0,0.0,0.0,0.0,0.0,0.0,0.0,0.0,0.0,0.0,0.0,0.0,0.0,0.0,0.0,0.0,0.0,0.0,0.0,0.0,0.0,0.0,0.0,0.0,0.0,0.0,0.0,0.0,0.0,0.0,0.0,0.0,0.0,0.0,0.0,0.0,0.0,0.0,0.0,0.0,0.0,0.0,0.0,0.0,0.0,0.0,0.0,0.0,0.0,0.0,0.0,0.0,0.0,0.0,0.0,0.0,0.0,0.0,0.0,0.0,0.0,0.0,0.0,0.0,0.0,0.0,0.0,0.0,0.0,0.0,0.0,0.0,0.0,0.0,0.0,0.0,0.0,0.0,0.0,0.0,0.0,0.0,0.0,0.0,0.0,0.0,0.0,0.0,0.0,0.0,0.0,0.0,0.0,0.0,0.0,0.0,0.0,0.0,0.0,0.0,0.0,0.0,0.0,0.0,0.0,0.0,0.0,0.0,0.0,0.0,0.0,0.0,0.0,0.0,0.0,0.0,0.0,0.0,0.0,0.0,0.0,0.0,0.0,0.0,0.0,0.0,0.0,0.0,0.0,0.0,0.0,0.0,0.0,0.0,0.0,0.0,0.0,0.0,0.0,0.0,0.0,0.0,0.0,0.0,0.0,0.0,0.0,0.0,0.0,0.0,0.0,0.0,0.0,0.0,0.0,0.0,0.0,0.0,0.0,0.0,0.0,0.0,0.0,0.0,0.0,0.0,0.0,0.0,0.0,0.0,0.0,0.0,0.0,0.0,0.0,0.0,0.0,0.0,0.0,0.0,0.0,0.0,0.0,0.0,0.0,0.0,0.0,0.0,0.0,0.0,0.0,0.0,0.0,0.0,0.0,0.0,0.0,0.0,0.0,0.0,0.0,0.0,0.0,0.0,0.0,0.0,0.0,0.0,0.0,0.0,0.0,0.0,0.0,0.0,0.0,0.0,0.0,0.0,0.0,0.0,0.0,0.0,0.0,0.0,0.0,0.0,0.0,0.0,0.0,0.0,1.7464,0.0,0.0,0.0,0.0,0.0,0.0,0.0,0.0,0.0,0.0,0.0,0.0,0.0,0.0,0.0,0.0,0.0,0.0,0.0,0.0,0.0,0.0,0.0,0.0,0.0,0.0,0.0,0.0,0.0,0.0,0.0,0.0,0.0,0.0,0.0,0.0,0.0,0.0,1.65,1.7011,1.7521,1.8033,1.871,1.8703,1.8122,0.0,0.0,0.0,0.0,0.0,0.0,0.0,0.0,0.0,0.0,0.0,0.0,0.0,0.0,0.0,0.0,0.0,0.0,0.0,0.0,0.0,0.0,0.0,0.0,0.0,0.0,0.0,0.0,0.0,0.0,0.0,0.0,0.0,0.0,0.0,0.0,0.0,0.0,0.0,0.0,0.0,0.0,0.0,0.0,0.0,0.0,0.0,0.0,0.0,0.0,0.0,0.0,0.0,0.0,0.0,0.0,0.0,0.0,0.0,0.0,0.0,0.0,0.0,0.0,0.0,0.0,0.0,0.0,0.0,0.0,0.0,1.8542,0.0,0.0,0.0,0.0,0.0,0.0,0.0,0.0,0.0,0.0,0.0,0.0,0.0,0.0,0.0,0.0,0.0,0.0,0.0,0.0,0.0,0.0,0.0,1.6205,1.65,1.65,1.65,1.65,0.0,0.0,0.0,0.0,0.0,0.0,1.6625,1.7063,1.7126,1.6784,1.7889,1.9103,2.0441,2.1075,2.0658,1.9421,1.9725,0.0,0.0,0.0,0.0,0.0,0.0,0.0,0.0,0.0,0.0,0.0,0.0,0.0,0.0,0.0,0.0,0.0,0.0,0.0,0.0,0.0,0.0,0.0,0.0,0.0,0.0,0.0,0.0,0.0,0.0,0.0,0.0,0.0,0.0,0.0,0.0,0.0,0.0,0.0,0.0,0.0,0.0,0.0,0.0,0.0,0.0,0.0,0.0,0.0,0.0,0.0,0.0,0.0,0.0,0.0,0.0,0.0,0.0,0.0,0.0,0.0,0.0,0.0,2.3651,2.4457,2.5622,2.573,2.6234,2.6905,2.3841,2.1867,2.0823,0.0,0.0,0.0,0.0,0.0,0.0,0.0,0.0,0.0,0.0,0.0,0.0,0.0,0.0,0.0,0.0,0.0,0.0,0.0,0.0,0.0,0.0,1.6457,1.65,1.65,1.65,1.65,1.65,0.0,0.0,0.0,0.0,0.0,1.7178,1.726,1.7497,1.7884,1.9095,2.0649,2.2527,2.3001,2.3718,2.4494,2.1774,2.1476,2.2837,0.0,0.0,0.0,0.0,0.0,0.0,0.0,0.0,0.0,0.0,0.0,0.0,0.0,0.0,0.0,0.0,0.0,0.0,0.0,0.0,0.0,0.0,0.0,0.0,0.0,0.0,0.0,0.0,0.0,0.0,0.0,0.0,0.0,0.0,0.0,0.0,0.0,0.0,0.0,0.0,0.0,1.8657,1.8343,0.0,0.0,0.0,0.0,0.0,0.0,0.0,0.0,0.0,0.0,0.0,0.0,0.0,2.3771,2.5156,2.6703,2.7327,2.7097,2.9026,2.985,2.9747,3.0215,3.0746,3.1243,3.0183,0.0,2.4843,2.2676,0.0,0.0,0.0,0.0,0.0,0.0,0.0,0.0,0.0,0.0,0.0,0.0,0.0,0.0,0.0,0.0,0.0,0.0,0.0,0.0,0.0,1.6787,1.6873,1.6536,1.7353,1.7503,1.655,1.7113,0.0,0.0,0.0,1.69,1.7723,1.7456,1.8268,2.0247,2.1859,2.3436,2.4994,2.5562,2.6165,2.6644,2.4837,2.368,2.2992,2.1465,0.0,0.0,0.0,0.0,0.0,0.0,0.0,0.0,0.0,0.0,0.0,0.0,0.0,0.0,0.0,0.0,0.0,0.0,0.0,0.0,0.0,0.0,0.0,0.0,0.0,0.0,0.0,0.0,0.0,0.0,0.0,0.0,0.0,0.0,0.0,0.0,0.0,0.0,0.0,1.961,2.0425,1.9233,2.0363,2.0439,0.0,0.0,0.0,0.0,0.0,0.0,0.0,0.0,0.0,2.5633,2.7181,2.8512,2.9525,3.0921,3.1842,3.2235,3.3223,3.4061,3.4724,3.4946,3.5262,3.5613,3.5333,3.3693,3.0995,2.7564,2.5063,2.3325,0.0,0.0,0.0,0.0,2.1458,2.2281,0.0,0.0,0.0,0.0,0.0,0.0,0.0,0.0,0.0,0.0,0.0,0.0,1.6687,1.725,1.7487,1.7177,1.8423,1.8621,1.7222,1.78,1.7963,1.7513,1.7115,1.7443,1.854,1.8782,2.0281,2.3112,2.5088,2.6787,2.817,2.9053,2.9424,2.9368,2.8533,2.679,2.435,2.2662,2.1675,2.1106,0.0,0.0,0.0,0.0,0.0,0.0,0.0,0.0,0.0,0.0,0.0,0.0,0.0,0.0,0.0,0.0,0.0,0.0,0.0,0.0,0.0,0.0,0.0,0.0,0.0,0.0,0.0,0.0,0.0,0.0,0.0,0.0,0.0,0.0,0.0,0.0,0.0,2.1425,2.2257,2.0453,2.2328,2.2676,0.0,0.0,0.0,0.0,0.0,0.0,2.5603,2.7371,2.8876,2.992,3.1866,3.3294,3.4123,3.5003,3.5931,3.6912,3.6912,3.7595,3.8865,3.8865,3.8985,3.9158,3.8811,3.7823,3.6168,3.1734,2.8426,2.6067,2.5416,2.4312,2.3188,2.4172,2.5077,2.602,0.0,0.0,0.0,0.0,0.0,0.0,0.0,0.0,0.0,0.0,0.0,1.6145,1.7247,1.7827,1.8343,1.8832,1.9433,1.9522,1.8902,1.8385,1.8095,1.8052,1.8023,1.8585,1.9785,2.21,2.4309,2.6368,2.8449,3.0466,3.2431,3.3797,3.4415,3.429,3.298,3.1229,2.8949,2.453,2.368,2.4986,2.1225,0.0,0.0,0.0,0.0,0.0,0.0,0.0,0.0,0.0,0.0,0.0,0.0,0.0,0.0,0.0,0.0,0.0,0.0,0.0,0.0,0.0,0.0,0.0,0.0,0.0,0.0,0.0,0.0,0.0,0.0,0.0,0.0,0.0,0.0,0.0,0.0,0.0,0.0,2.1658,2.5151,0.0,0.0,0.0,0.0,2.605,2.8557,3.0343,3.0993,3.2723,3.4388,3.581,3.6559,3.7612,3.9044,3.9104,3.9492,4.0148,4.0148,4.0543,4.1227,4.1227,4.1246,4.1194,3.99,3.9302,3.8817,3.3705,3.1079,3.0043,2.7627,2.6975,2.7463,2.8094,2.8726,2.9274,0.0,0.0,0.0,0.0,0.0,0.0,0.0,0.0,1.4778,1.4994,1.6067,1.72,1.8318,1.9715,2.0805,2.1393,2.1946,2.1875,2.1058,1.9861,1.9423,1.9888,1.9149,1.9897,2.2351,2.4466,2.6971,2.9863,3.1495,3.3101,3.4714,3.5225,3.544,3.5389,3.4909,3.4279,3.3258,2.8045,2.5279,2.4148,2.2363,2.1106,0.0,0.0,0.0,0.0,0.0,0.0,0.0,0.0,0.0,0.0,0.0,0.0,0.0,0.0,0.0,0.0,0.0,0.0,0.0,0.0,0.0,0.0,0.0,0.0,0.0,0.0,0.0,0.0,0.0,0.0,0.0,0.0,0.0,0.0,0.0,0.0,0.0,2.7324,3.0031,0.0,2.8247,2.9318,3.0543,3.1354,3.2999,3.4685,3.6254,3.7701,3.9006,4.0192,4.124,4.202,4.2562,4.3,4.312,4.291,4.291,4.2821,4.2622,4.2622,4.2402,4.1991,4.1074,4.0217,3.9224,3.6948,3.5032,3.3463,3.2573,3.1732,3.1109,3.1707,3.2455,3.3171,0.0,0.0,0.0,0.0,0.0,0.0,0.0,0.0,1.4541,1.4698,1.6285,1.8079,1.9846,2.1509,2.2977,2.4272,2.425,2.3722,2.2654,2.1027,2.0216,2.0469,2.0775,2.2265,2.5096,2.7442,3.0117,3.3064,3.4474,3.5737,3.6848,3.7103,3.7103,3.6848,3.6634,3.6384,3.5892,3.2003,2.8682,2.5849,2.4059,2.3071,2.2522,0.0,0.0,0.0,0.0,0.0,0.0,0.0,0.0,0.0,0.0,0.0,0.0,0.0,0.0,0.0,0.0,0.0,0.0,0.0,0.0,0.0,0.0,0.0,0.0,0.0,0.0,0.0,0.0,0.0,0.0,0.0,0.0,0.0,0.0,0.0,3.1672,3.2044,3.4654,3.553,3.3309,3.4221,3.5381,3.637,3.7682,3.9141,4.0764,4.182,4.2699,4.3379,4.4197,4.4646,4.4646,4.5065,4.5065,4.4646,4.4646,4.4296,4.3638,4.3638,4.3299,4.2661,4.2002,4.1224,4.0367,3.9697,3.8585,3.7197,3.6301,3.5311,3.4506,3.51,3.5761,3.6254,0.0,0.0,0.0,0.0,0.0,0.0,0.0,1.3608,1.4263,1.4746,1.6394,1.8689,2.1783,2.3111,2.4786,2.7333,2.6181,2.4819,2.3624,2.1764,2.0428,1.9887,2.2972,2.5727,2.793,3.1147,3.3833,3.5905,3.7366,3.8348,3.8948,3.9727,3.9709,3.8935,3.8342,3.7654,3.6887,3.6181,3.3972,3.0567,2.6471,2.5536,2.6285,0.0,0.0,0.0,0.0,0.0,0.0,0.0,0.0,0.0,0.0,0.0,0.0,0.0,0.0,0.0,0.0,0.0,0.0,0.0,0.0,0.0,0.0,0.0,0.0,0.0,0.0,0.0,0.0,0.0,0.0,0.0,0.0,0.0,3.1403,3.4456,3.6349,3.5549,3.8802,3.9821,3.6608,3.8658,4.0437,4.1036,4.2583,4.3798,4.4417,4.5056,4.5406,4.5438,4.5447,4.5426,4.5426,4.5426,4.5376,4.5334,4.5334,4.4975,4.4326,4.4296,4.3938,4.3309,4.2661,4.241,4.2351,4.1673,4.1403,4.1134,3.8542,3.7524,3.7584,3.8212,3.8439,3.8409,0.0,0.0,0.0,0.0,0.0,0.0,1.2431,1.3401,1.4263,1.4746,1.7883,2.0723,2.2416,2.5382,2.7655,2.8711,2.6798,2.5384,2.5053,2.1853,2.0946,2.315,2.5601,2.8547,3.1999,3.4003,3.6018,3.806,3.9045,3.9628,3.9752,3.999,4.0269,4.0546,3.9845,3.9709,3.9887,3.8617,3.7254,3.5636,3.1432,2.8765,2.7136,0.0,0.0,0.0,0.0,0.0,0.0,0.0,0.0,0.0,0.0,0.0,0.0,0.0,0.0,0.0,0.0,0.0,0.0,0.0,0.0,0.0,0.0,0.0,0.0,0.0,0.0,0.0,0.0,0.0,0.0,0.0,0.0,3.6019,3.5195,3.7899,4.0266,4.0978,4.3719,4.4807,4.2926,4.3867,4.4632,4.4789,4.5696,4.662,4.7518,4.7519,4.7927,4.8981,4.8242,4.7835,4.7835,4.7835,4.7239,4.6031,4.6031,4.5672,4.5005,4.4506,4.4207,4.3967,4.287,4.241,4.2351,4.1673,4.1403,4.1343,4.0595,4.0008,3.9589,3.9768,3.923,3.8409,0.0,0.0,0.0,0.0,0.0,0.0,1.1975,1.305,1.3974,1.4454,1.8329,2.1619,2.314,2.5955,2.8086,2.8935,2.6908,2.5244,2.4448,2.2483,2.2562,2.5334,2.8282,3.1363,3.4559,3.6607,3.8542,4.0341,4.0788,4.1003,4.1014,4.1014,4.1251,4.1644,4.1217,4.1251,4.1617,4.0715,3.996,3.9092,3.6272,3.345,3.0708,2.857,2.7799,2.7726,2.6165,2.5956,2.6189,2.4548,0.0,0.0,0.0,0.0,0.0,0.0,0.0,0.0,0.0,0.0,0.0,0.0,0.0,0.0,0.0,0.0,0.0,0.0,0.0,0.0,0.0,0.0,0.0,0.0,3.8752,4.1663,4.2502,4.3309,4.4312,4.5651,4.7189,4.784,4.7061,4.7722,4.8231,4.8231,4.9011,4.9792,5.0344,5.0227,5.0279,5.0587,5.0466,4.9791,4.8596,4.9047,4.8396,4.6719,4.6719,4.6381,4.5723,4.5313,4.4984,0.0,4.3948,4.3619,4.3559,4.288,4.2611,0.0,0.0,0.0,0.0,0.0,3.9738,3.8811,0.0,0.0,0.0,0.0,0.0,0.0,1.1629,1.2671,1.3587,1.4093,1.8167,2.169,2.3459,2.5303,2.6893,2.8166,2.6482,2.4687,2.3032,2.3567,2.4995,2.7314,3.1145,3.427,3.6578,3.9226,4.1188,4.2422,4.2591,4.257,4.23,4.2401,4.2422,4.2422,4.2333,4.2367,4.2422,4.2333,4.1916,4.1243,4.0487,3.845,3.5499,3.2346,3.1749,3.2362,3.0416,2.9082,2.806,2.6768,0.0,0.0,0.0,0.0,0.0,0.0,0.0,0.0,0.0,0.0,0.0,0.0,0.0,0.0,0.0,0.0,0.0,0.0,0.0,0.0,0.0,0.0,0.0,0.0,4.3376,4.7196,5.0746,4.9474,4.8613,4.9785,4.9922,4.993,4.9936,5.0842,5.1401,5.1224,5.2222,5.2829,5.2788,0.0,0.0,0.0,0.0,5.1575,4.9105,4.982,4.9302,4.7594,4.7464,4.7048,4.642,4.633,4.5971,4.5394,4.5334,4.5304,4.5244,4.4676,4.4416,4.4227,4.2271,4.1523,4.1433,4.0756,4.0157,3.9631,0.0,0.0,0.0,0.0,0.0,0.0,1.1649,1.2689,1.3679,1.4478,1.8383,2.1198,2.1463,2.4059,2.5878,2.6159,2.4837,2.4048,2.4216,2.5463,2.8027,3.2239,3.4871,3.7761,4.0992,4.2788,4.3549,4.3186,4.4437,4.4113,4.23,4.2916,4.3186,4.3152,4.2557,4.2625,4.3152,4.2557,4.222,4.2085,4.1902,4.0015,3.7049,3.4653,3.3577,3.3036,3.1031,3.118,3.2078,3.0201,3.0199,3.0644,2.8711,2.6646,0.0,0.0,0.0,0.0,0.0,0.0,0.0,0.0,0.0,0.0,0.0,0.0,0.0,0.0,0.0,0.0,0.0,0.0,0.0,4.3596,4.7461,5.049,5.182,5.2872,5.3592,5.3714,5.3836,5.3841,5.3767,5.4401,5.4379,5.323,5.3841,5.4148,5.3845,5.3542,0.0,5.5607,5.4467,5.3842,5.3948,5.2673,5.1116,4.9396,0.0,0.0,4.71,4.654,4.6241,4.6061,4.5544,4.5304,4.5274,4.5155,4.5095,4.4915,4.296,4.2201,4.2141,4.1463,4.1134,4.1014,0.0,0.0,0.0,0.0,0.0,0.0,1.1282,1.2545,1.3736,1.4689,1.8184,2.0696,2.0872,2.2843,2.3999,2.367,2.3314,2.3998,2.6083,2.844,3.142,3.5185,3.8142,4.069,4.2815,4.4347,4.5128,4.5094,4.5872,4.5669,4.4567,4.4539,4.4539,4.4539,4.4181,4.4012,4.4012,4.4012,4.3775,4.3423,4.3001,4.1884,4.0316,3.8548,3.7163,3.6025,3.4588,3.4302,3.4288,3.2585,3.2437,3.2677,3.0672,2.9123,2.7679,0.0,0.0,0.0,0.0,0.0,0.0,0.0,0.0,0.0,0.0,0.0,0.0,0.0,0.0,3.4196,0.0,0.0,4.4831,4.7752,5.0971,5.3537,5.4799,5.6407,5.6825,5.5102,5.549,5.5859,5.5804,5.664,5.6853,5.6157,5.6914,5.7309,5.7124,5.6951,5.7091,5.764,5.731,5.642,5.501,5.4652,5.309,5.0412,4.988,4.897,4.7788,4.7459,4.713,4.6779,4.6441,4.6292,4.6262,4.5933,4.5603,4.5185,4.4247,4.3439,4.2821,4.2491,4.1953,4.1479,0.0,0.0,0.0,0.0,0.0,0.0,0.0,1.2348,1.3679,1.4859,1.7662,1.9785,2.0406,2.1445,2.1944,2.1545,2.2305,2.4325,2.7919,3.1178,3.4381,3.7589,4.0955,4.3153,4.4049,4.5412,4.6413,4.7022,4.7173,4.709,4.68,4.6346,4.6041,4.5906,4.5906,4.5568,4.5074,4.5669,4.5568,4.4964,4.426,4.3893,4.3661,4.2512,4.0842,3.8976,3.8198,3.6751,3.51,3.4349,3.3742,3.3066,3.1719,3.1091,3.0335,2.7423,2.6653,0.0,0.0,0.0,0.0,0.0,0.0,0.0,0.0,0.0,3.1474,3.3123,3.6628,4.0328,4.3195,4.6584,4.973,5.2109,5.446,5.6535,5.8192,5.9595,5.9488,5.6829,5.7241,5.7786,5.7891,5.8869,5.9358,5.9059,5.9976,6.0419,6.0114,6.0114,5.9785,5.9079,5.9746,5.8664,5.5677,5.618,5.4785,5.1477,5.1148,5.0171,4.8656,4.8558,4.8139,4.7489,4.7369,4.7309,4.7279,4.6719,4.6202,4.5693,4.5693,4.5068,4.4128,4.3808,4.3168,4.258,0.0,0.0,0.0,0.0,0.0,0.0,0.0,0.0,1.3345,1.5187,1.672,1.7955,1.8856,1.9612,2.0238,2.0757,2.2444,2.5194,2.9212,3.2217,3.5922,4.0532,4.3045,4.4994,4.6378,4.7248,4.7684,4.7785,4.8428,4.8071,4.6819,4.738,4.7278,4.6699,4.6699,4.6631,4.6563,4.6631,4.6631,4.6549,4.6461,4.6026,4.5404,4.525,4.294,3.9693,3.9025,3.6658,3.4144,3.5704,3.4638,3.2796,3.3739,3.3245,3.1959,3.0408,2.8783,2.7403,2.7046,2.7116,2.7501,2.8238,2.8827,3.0303,0.0,0.0,3.6976,4.0072,4.374,4.6963,4.8872,5.2303,5.5357,5.6888,5.8399,5.964,6.0527,6.1693,6.2355,6.1961,6.1458,6.13,6.1729,6.2481,6.2406,6.109,6.1713,6.1535,6.0182,6.0114,6.0362,6.0974,6.0395,5.9745,5.8959,5.7461,5.5629,5.356,5.1918,5.0746,4.9979,4.9426,4.8828,4.8169,4.7549,4.7309,4.7309,4.7219,4.716,4.707,4.707,4.7173,4.7116,4.5645,4.5597,4.6303,0.0,0.0,0.0,0.0,0.0,0.0,0.0,0.0,0.0,1.525,1.6561,1.7662,1.8608,1.931,1.9818,2.0079,2.224,2.5373,2.9532,3.3172,3.7171,4.1639,4.4446,4.6157,4.68,4.7936,4.8529,4.8529,4.8849,4.8477,4.7447,4.7327,4.709,4.68,4.6346,4.638,4.68,4.68,4.68,4.68,4.68,4.6346,4.5669,4.5229,4.2962,3.9927,3.9163,3.7399,0.0,3.4909,3.4219,3.3635,3.3862,3.3006,3.1675,3.0372,2.9668,2.9415,3.0104,3.0213,3.0434,3.1601,3.3786,3.6189,3.8168,4.1126,4.3927,4.5728,4.912,5.2209,5.3724,5.5974,5.7921,0.0,6.0482,6.1706,6.2,6.3085,6.3363,6.2091,6.2425,6.2978,6.3626,6.3971,6.3903,6.326,6.3125,6.2753,6.211,6.2076,6.2042,6.1941,6.2042,6.159,6.0551,5.9078,5.7388,5.5513,5.4059,5.2448,5.0787,5.0511,4.9643,4.8267,4.7997,4.8231,4.8781,4.8372,4.88,4.9696,4.9281,4.9179,4.9111,4.7403,4.7195,4.7857,0.0,0.0,0.0,0.0,0.0,0.0,0.0,0.0,0.0,0.0,1.6105,1.7302,1.8548,1.931,1.9708,1.9708,2.1879,2.4976,2.9036,3.3088,3.7156,4.1225,4.4465,4.6191,4.6191,4.7834,4.8714,4.8714,4.8917,4.8748,4.8191,4.7665,4.7394,4.7394,4.6853,4.6921,4.7394,4.7394,4.7394,4.7394,4.7192,4.6549,4.5568,4.4398,4.2083,3.9437,3.8841,3.7051,3.4738,3.3364,3.2832,3.2726,3.2493,3.1854,3.1076,3.0342,3.0702,3.1469,3.2125,3.2844,3.3876,3.5692,3.9071,4.2178,4.3078,4.6733,5.0185,5.1045,5.3684,5.6187,5.7311,5.8831,6.0098,6.0771,6.2409,6.361,6.361,6.3985,6.3632,6.1806,6.2178,6.2854,6.3632,6.4241,6.4512,6.4309,6.4174,6.4038,6.3815,6.3781,6.3463,6.2719,6.3226,6.2729,6.1138,6.022,5.8785,5.6769,5.5522,5.3905,5.2013,5.1445,5.0308,4.8828,4.8972,4.9472,5.0154,4.9956,5.0627,5.1756,5.1204,5.1038,5.0966,4.9691,4.9285,4.9469,0.0,0.0,0.0,0.0,0.0,0.0,0.0,0.0,0.0,0.0,0.0,0.0,0.0,1.931,1.9708,1.9708,2.132,2.3886,2.7527,3.1462,3.5305,3.8959,4.2672,4.4682,4.4682,4.6819,4.7921,4.7921,4.8631,4.8984,4.8984,4.8951,4.8951,4.8951,4.8917,4.8917,4.8951,4.8951,4.8951,4.8883,4.8157,4.7008,4.5466,4.32,4.0527,3.7944,3.792,3.4767,3.0682,3.1358,3.0222,2.8738,2.9465,3.0087,3.0658,3.1271,3.2392,3.3275,3.2676,3.4797,3.7987,4.1093,4.4369,4.7676,5.0666,5.305,5.4968,5.6296,5.7528,5.8596,5.9293,6.0999,6.2519,6.3296,6.4654,6.5587,6.5587,6.4424,6.324,6.2448,6.1095,6.052,0.0,6.3328,6.4309,6.3579,6.485,6.5324,6.4613,6.458,6.4241,6.3477,6.3477,6.2589,6.0649,6.0574,5.9348,5.697,5.5643,5.4687,5.4042,5.2073,5.0817,5.0145,5.0638,5.0836,5.0963,5.203,5.2525,5.2545,5.2545,5.2682,5.2924,5.2854,5.2394,5.1801,0.0,0.0,0.0,0.0,0.0,0.0,0.0,0.0,0.0,0.0,0.0,0.0,0.0,0.0,0.0,0.0,2.0697,2.2935,2.596,2.9963,3.3573,3.6602,4.0798,4.3078,4.3078,4.4804,4.594,4.6433,4.6684,4.6819,4.6819,4.6819,4.6819,4.6786,4.6293,4.6887,4.8191,4.7225,4.709,4.7428,4.621,4.479,4.32,4.098,3.7956,3.4665,0.0,3.1453,3.0231,2.9038,2.8268,2.7867,2.8177,2.8111,2.8308,3.0269,3.3232,3.6249,3.7762,4.0778,4.4218,4.7148,4.9681,5.2009,5.3964,5.6257,5.7838,5.7319,5.8058,5.859,5.7867,5.8639,5.9979,6.1772,6.3294,6.458,6.5581,6.5256,6.3768,6.052,6.1028,0.0,0.0,0.0,0.0,6.4174,6.4681,6.5087,6.5324,6.5324,6.4986,6.4241,6.4715,6.3797,6.1353,6.0543,5.9486,5.8168,5.7295,5.6523,5.5797,5.4683,5.3545,5.247,5.2618,5.314,5.381,5.3668,5.4302,5.5333,5.4848,5.4698,5.4767,5.4767,5.4298,5.3627,0.0,0.0,0.0,0.0,0.0,0.0,0.0,0.0,0.0,0.0,0.0,0.0,0.0,0.0,0.0,0.0,0.0,2.1918,2.4443,2.7858,3.0804,3.3132,3.675,3.8713,3.8713,4.0202,4.1487,4.2523,4.2794,4.3335,4.4113,4.4113,4.437,4.4843,4.4384,4.5128,4.665,4.5384,4.4857,4.4654,4.2909,4.1115,3.9254,3.6772,3.3998,0.0,2.8377,2.7584,2.7584,2.6287,2.6072,2.6463,2.6759,2.7528,2.8804,3.137,3.498,3.8824,4.1847,4.4955,4.8178,5.1568,5.376,5.545,5.6967,5.8606,5.9279,5.7529,5.7103,5.6664,5.5412,5.5344,5.6325,5.8896,6.0298,6.1907,6.4194,6.3802,6.255,6.0452,6.0791,6.0452,0.0,0.0,0.0,6.37,6.4783,6.5493,6.5683,6.6203,6.6034,6.5019,6.5425,6.4535,6.209,6.1753,6.0989,5.9856,5.8952,5.8047,5.7086,5.6669,5.5676,5.4384,5.4773,5.5207,5.5608,5.5487,5.6121,5.7137,5.6664,5.6325,5.6071,5.6071,5.5649,5.4905,0.0,0.0,0.0,0.0,0.0,0.0,0.0,0.0,0.0,0.0,0.0,0.0,0.0,0.0,0.0,0.0,0.0,0.0,2.2861,2.5229,2.7215,2.8746,3.0963,3.2192,3.2192,3.3603,3.5058,3.6558,3.728,3.87,4.0798,4.0798,4.1563,4.2882,4.2882,4.3335,4.4025,4.3234,4.207,4.0629,3.843,3.6231,3.3975,3.1079,2.8998,2.734,2.4813,2.351,2.3051,2.3354,2.4007,2.4803,2.5622,2.8544,3.219,3.4605,3.7804,4.1336,4.4939,4.7485,5.0213,5.4618,5.6688,5.8063,5.9722,5.9979,5.9235,5.7036,5.4769,5.2976,0.0,0.0,5.2114,5.5192,5.6461,5.8355,6.2096,6.0825,6.0283,0.0,0.0,0.0,0.0,0.0,0.0,6.2536,0.0,6.6474,6.5852,6.7151,6.7218,6.5818,6.5784,6.4782,6.2782,6.3927,6.3621,6.1855,6.0647,5.9424,5.8161,5.8042,5.7227,5.6016,5.7069,5.706,5.6426,5.748,5.79,5.79,5.79,5.7476,5.6867,5.6867,5.6375,5.5665,0.0,0.0,0.0,0.0,0.0,0.0,0.0,0.0,0.0,0.0,0.0,0.0,0.0,0.0,0.0,0.0,0.0,0.0,2.03,2.3096,2.508,2.5979,2.9013,3.0649,3.0649,3.1562,3.2486,3.3444,3.3647,3.4313,3.5374,3.5374,3.5577,3.5949,3.5949,3.6366,3.7021,3.6265,3.5712,3.5239,3.3592,3.2239,3.1011,2.9108,2.7286,2.5545,2.4356,2.2989,2.1994,2.3554,2.5971,2.867,3.0464,3.3149,3.6189,3.8954,4.3073,4.7416,5.0561,5.3431,5.624,5.9079,5.9602,5.9559,5.999,5.8389,5.6172,5.3923,5.1235,4.8935,4.7631,0.0,0.0,5.5023,5.8201,0.0,6.5155,6.617,0.0,6.4241,0.0,6.4323,6.3037,6.3937,0.0,0.0,6.5561,6.6373,6.7286,6.7692,6.7489,6.6542,6.6542,6.5575,6.3617,6.335,6.3007,6.255,6.2565,6.2382,6.2022,6.0932,6.0211,5.9816,5.8979,5.8488,5.8272,5.8027,5.79,5.79,5.79,5.7798,5.7611,5.7611,5.7137,5.6494,0.0,0.0,0.0,0.0,0.0,0.0,0.0,0.0,0.0,0.0,0.0,0.0,0.0,0.0,0.0,0.0,0.0,0.0,0.0,2.1186,2.2676,2.3042,2.5379,2.6683,2.6683,2.7089,2.7807,2.8874,2.8874,2.9576,3.0934,3.0934,3.1316,3.1958,3.1958,3.2374,3.2994,3.2263,3.1553,0.0,0.0,2.7971,2.6703,2.5514,2.443,2.3415,2.2834,2.3415,2.4851,2.7604,3.028,3.2845,3.5007,3.7854,4.0978,4.4278,4.7928,5.1581,5.4577,5.7083,5.9167,6.0452,6.0182,5.9302,5.7983,5.5886,5.3213,4.9627,4.7312,4.5384,4.3572,4.506,4.7887,0.0,0.0,0.0,6.4661,6.6081,6.6643,0.0,6.6981,0.0,6.6034,6.6406,6.6948,0.0,6.7354,6.7387,6.7861,6.7688,6.7201,6.6465,6.6131,6.572,6.5177,6.4222,6.4002,6.4555,6.4495,6.4478,6.441,6.2956,6.211,6.1704,0.0,5.981,5.9471,5.9032,5.866,5.8423,5.8727,5.866,5.8423,5.8761,5.8389,5.778,0.0,0.0,0.0,0.0,0.0,0.0,0.0,0.0,0.0,0.0,0.0,0.0,0.0,0.0,0.0,0.0,0.0,0.0,0.0,0.0,2.0242,2.0424,2.143,2.2044,2.2137,2.2137,2.2749,2.4057,2.4104,2.5097,2.6969,2.6969,2.7703,2.9041,2.8995,2.9342,2.9973,2.933,2.827,2.6868,2.5587,2.4044,2.2406,0.0,2.1514,2.1501,2.1344,2.426,2.879,3.2915,3.5376,3.7124,3.9654,4.266,4.5983,4.9724,5.2286,5.4513,5.7533,5.9268,6.0216,6.0148,5.9404,5.7931,5.4972,5.2638,4.9796,4.5108,4.3267,4.1969,4.0134,4.1779,4.4742,4.8781,0.0,5.6325,6.3139,6.4086,6.5405,6.8977,6.8774,6.8639,6.9316,6.8774,6.891,7.0229,6.9755,6.9045,6.8233,6.7489,6.676,6.6012,6.5385,6.5647,6.6927,6.5757,6.569,6.6791,6.6034,6.5751,6.5764,6.4241,6.3193,6.2637,0.0,0.0,6.025,6.0148,5.9708,5.9216,5.9844,5.9708,5.9216,5.9877,5.9622,5.9013,0.0,0.0,0.0,0.0,0.0,0.0,0.0,0.0,0.0,0.0,0.9508,1.0215,0.0,0.0,0.0,0.0,0.0,0.0,0.0,0.0,0.0,1.957,2.0101,2.0661,2.1213,2.1245,2.135,2.1625,2.1954,2.2312,2.2676,2.2676,2.3027,2.3624,2.3238,2.3369,2.3842,2.3707,2.3283,2.2643,2.2412,2.1909,2.1271,2.1135,0.0,0.0,2.2352,2.4568,2.7983,3.4392,3.8234,4.1095,4.5144,4.7649,4.9857,5.3653,5.5426,5.6873,5.9873,6.0892,6.0926,6.0283,5.8626,5.6393,5.3382,4.868,4.4336,4.2219,3.9749,3.8002,3.8227,4.1089,4.5215,5.0811,5.4262,5.8795,6.6102,6.7151,6.8098,0.0,7.0804,7.0748,7.0883,7.0782,0.0,0.0,0.0,7.0601,6.9823,6.8055,6.676,6.6012,6.5811,6.6345,6.7704,6.6892,6.6567,6.6791,6.6034,6.6,6.6542,6.4458,6.3748,6.4106,6.2144,0.0,6.1028,6.0385,6.0013,5.9911,6.0047,6.0013,5.9911,6.0047,5.9622,5.9013,0.0,0.0,0.0,0.0,0.0,0.0,0.0,0.7365,0.7774,0.8244,0.8669,0.9209,1.0007,1.0821,0.0,0.0,0.0,0.0,0.0,0.0,0.0,1.8337,1.9088,1.964,1.9946,1.9979,2.0124,2.0478,0.0,2.0957,2.1283,2.1283,2.1399,2.1607,2.1376,2.1399,2.1615,2.1615,2.1501,2.1283,2.1283,2.1039,2.0649,2.0649,0.0,0.0,2.3137,2.5848,2.9158,3.3671,3.815,4.2713,4.7965,5.0913,5.3027,5.5987,5.7374,5.8524,6.1163,6.1873,6.1501,5.9911,5.7577,5.4566,5.0371,4.5703,4.1495,3.8824,3.7483,3.6648,3.6197,3.9817,4.4045,4.7714,5.1116,5.5919,6.3396,6.4783,6.644,7.0263,7.1075,7.1289,0.0,7.1289,0.0,0.0,0.0,7.1142,7.0804,6.8788,6.7015,6.5584,6.5816,6.6788,6.8516,6.7387,6.6994,6.7354,6.6609,6.6474,6.6757,6.529,6.4647,6.4512,6.3091,0.0,6.1839,6.1467,6.1061,6.0757,6.1129,6.1061,6.0757,6.1163,6.0554,5.9573,0.0,0.0,0.0,0.0,0.0,0.0,0.0,0.6408,0.7065,0.786,0.8016,0.841,0.9328,0.9827,1.0353,0.0,0.0,0.0,0.0,0.0,0.0,0.0,0.0,0.0,1.8464,0.0,0.0,1.9428,1.9618,0.0,0.0,0.0,0.0,0.0,2.0894,2.091,2.0991,2.0991,2.0943,0.0,0.0,2.059,0.0,0.0,0.0,0.0,0.0,2.6193,2.9364,3.2364,3.6603,4.169,4.765,5.1505,5.4262,5.6359,5.7915,5.9419,6.1366,6.2028,6.1603,5.9336,5.6292,5.2536,4.7477,4.3166,3.9276,3.5847,3.552,3.5577,3.4686,3.8137,4.1894,4.4242,4.7308,5.2079,5.9742,6.1738,6.4275,0.0,7.077,0.0,7.1289,7.1289,0.0,0.0,0.0,0.0,7.0647,6.9058,6.7341,6.5585,6.5839,6.6977,6.9057,6.7569,6.7184,6.7895,6.7151,6.6791,6.6757,6.6034,6.5358,6.4783,6.3903,0.0,0.0,6.2468,6.2042,6.1603,6.2178,6.2042,6.1603,6.2197,6.1535,6.0317,0.0,0.0,0.0,0.0,0.0,0.0,0.0,0.5666,0.656,0.7132,0.7412,0.7797,0.8453,0.9248,0.9533,0.0,0.0,0.0,0.0,0.0,0.0,0.0,0.0,0.0,0.0,0.0,0.0,1.7542,1.839,0.0,0.0,0.0,0.0,0.0,0.0,2.0615,2.0991,2.0991,0.0,0.0,0.0,0.0,0.0,0.0,0.0,0.0,0.0,2.3801,2.5862,3.1495,3.4201,3.6276,4.2239,4.7515,5.181,5.345,5.6308,5.9182,6.008,6.0858,6.0858,5.8558,5.4735,5.0322,4.5819,4.0844,3.6513,3.41,3.3129,3.3072,3.428,3.6039,3.8928,4.3802,4.6022,4.9932,5.8066,6.1061,6.4072,6.8673,0.0,0.0,7.1289,0.0,0.0,0.0,0.0,0.0,6.8602,6.8243,6.773,6.6926,6.6259,6.6942,6.9057,6.7569,6.7184,6.7895,6.7151,6.6791,6.6757,6.6034,6.5683,6.5514,6.4106,0.0,0.0,6.2685,6.2367,6.2333,6.2347,6.2367,6.2333,6.24,6.1873,6.1095,0.0,0.0,0.0,0.0,0.0,0.0,0.444,0.5107,0.5908,0.6859,0.7312,0.7771,0.8335,0.85,0.852,0.0,0.0,0.0,0.0,0.0,0.0,0.0,0.0,0.0,0.0,0.0,1.5767,1.6227,1.6584,0.0,0.0,0.0,0.0,0.0,0.0,1.9564,1.9769,2.008,0.0,0.0,0.0,0.0,0.0,0.0,0.0,0.0,0.0,0.0,2.5806,2.7964,3.0683,3.3434,3.4934,3.9297,4.4959,5.0491,5.4126,5.69,5.9438,6.0689,6.0757,5.8475,5.4194,4.9357,4.4891,3.9817,3.5453,3.3197,3.2858,3.3152,3.3728,3.5464,3.7777,4.0743,4.1724,4.4485,5.137,5.3856,5.7476,6.4241,6.6745,0.0,0.0,0.0,0.0,0.0,0.0,0.0,6.8837,6.9563,6.8951,6.6574,6.7344,6.8461,6.9755,6.7793,6.7421,6.8605,6.7366,6.6791,6.6791,6.6508,6.5865,6.5019,6.4884,0.0,0.0,6.299,6.2787,6.24,6.24,6.24,6.24,6.24,6.1941,6.1197,0.0,0.0,0.0,0.0,0.0,0.3703,0.3876,0.4468,0.5257,0.6268,0.6768,0.7238,0.7781,0.7484,0.7382,0.7737,0.0,0.0,0.0,0.0,0.0,0.0,0.0,0.0,0.0,0.0,1.4134,1.4638,1.5104,1.5757,0.0,0.0,1.7431,1.7644,0.0,0.0,0.0,0.0,0.0,0.0,0.0,0.0,0.0,0.0,0.0,0.0,0.0,0.0,0.0,0.0,0.0,3.0219,2.9591,3.2601,3.7889,4.5635,5.0608,5.4194,5.7036,5.8863,5.9471,5.7408,5.3162,4.8274,4.3761,3.906,3.4901,3.2486,3.2374,3.2882,3.3311,3.4709,3.6445,3.8362,3.9051,4.1339,4.7109,4.956,5.3331,6.0268,0.0,0.0,0.0,0.0,0.0,0.0,0.0,0.0,0.0,6.9866,6.9582,6.645,6.7689,6.8774,6.9485,6.7726,6.7434,6.8741,6.74,6.6791,6.6791,6.6555,6.5899,6.4952,0.0,0.0,0.0,6.3294,6.3057,6.24,6.24,6.24,6.24,6.24,6.2076,6.1501,0.0,0.0,0.0,0.0,0.0,0.0,0.2781,0.368,0.4606,0.5156,0.5513,0.5929,0.6452,0.6168,0.6091,0.6488,0.0,0.0,0.0,0.0,0.0,0.0,0.0,0.0,0.0,0.0,1.249,1.2628,1.4171,1.4907,1.4952,1.6542,1.7014,1.6519,0.0,0.0,0.0,0.0,0.0,0.0,0.0,0.0,0.0,0.0,0.0,0.0,0.0,0.0,0.0,0.0,0.0,0.0,0.0,2.8906,3.1519,3.8239,4.5432,5.1404,5.2248,5.4617,5.6494,5.5006,5.1251,4.6737,4.2239,3.8316,3.4765,3.1799,3.1234,3.1664,3.3108,3.3413,3.4427,3.7403,3.9153,4.1927,4.7177,5.0423,5.3687,0.0,0.0,0.0,0.0,0.0,0.0,0.0,0.0,0.0,0.0,6.8358,6.92,6.7053,6.6876,6.7184,6.7929,6.7184,6.7184,6.7895,6.7151,6.6791,6.6757,6.6034,6.5717,0.0,0.0,0.0,0.0,6.3511,6.3057,6.24,6.24,6.24,6.24,6.24,6.24,6.2279,0.0,0.0,0.0,0.0,0.0,0.0,0.0,0.3006,0.3299,0.3474,0.4342,0.5219,0.5945,0.5501,0.5271,0.559,0.0,0.0,0.0,0.0,0.0,0.0,0.0,0.0,0.0,0.0,1.1727,1.2463,1.2959,1.3765,1.4835,1.4978,1.5368,1.5964,1.5951,0.0,0.0,0.0,0.0,0.0,0.0,0.0,0.0,0.0,0.0,0.0,0.0,0.0,0.0,0.0,0.0,0.0,0.0,0.0,0.0,3.1049,3.8198,4.55,4.7327,4.9255,5.022,4.8255,4.5534,4.2408,3.8983,3.6468,3.4026,3.1162,3.0989,3.1465,3.1942,3.284,3.4653,3.8099,3.9457,4.1386,4.5142,0.0,0.0,5.7392,6.2865,0.0,0.0,0.0,0.0,0.0,0.0,0.0,0.0,6.5781,6.6258,6.5594,6.6856,6.7658,6.7895,6.7184,6.7184,6.7895,6.7151,6.6791,6.6757,6.6034,0.0,0.0,0.0,0.0,0.0,6.4018,6.3835,6.3125,6.2584,6.24,6.24,6.24,6.24,6.2299,0.0,0.0,0.0,0.0,0.0,0.0,0.0,0.1959,0.2299,0.2648,0.3395,0.4154,0.4858,0.4679,0.4549,0.4664,0.0,0.0,0.0,0.0,0.0,0.0,0.0,0.0,0.0,0.9869,1.0489,1.1605,1.2013,1.2774,1.386,1.3935,1.4142,1.4442,1.4447,1.4455,0.0,0.0,0.0,0.0,0.0,0.0,1.8332,0.0,0.0,0.0,0.0,0.0,0.0,0.0,0.0,0.0,0.0,0.0,0.0,0.0,3.1422,3.747,4.1392,4.3933,4.5105,4.3666,4.1813,3.953,3.6406,3.4499,3.2638,3.0095,2.9945,3.0413,3.0958,3.224,3.4008,3.6584,3.8262,4.0328,4.3348,0.0,0.0,5.7679,0.0,0.0,0.0,0.0,0.0,0.0,0.0,0.0,0.0,6.497,6.5296,6.5279,6.6712,6.7489,6.7489,6.6556,6.6556,6.7468,6.6534,6.632,6.6757,6.5764,0.0,0.0,0.0,0.0,0.0,6.3903,6.3768,6.3057,6.2584,6.24,6.24,6.24,6.24,6.2333,0.0,0.0,0.0,0.0,0.0,0.0,0.0,0.0,0.1663,0.2412,0.2583,0.284,0.3388,0.3729,0.3884,0.3776,0.0,0.0,0.0,0.0,0.0,0.0,0.0,0.0,0.0,0.8359,0.9021,1.0342,1.1365,1.2067,1.2424,1.3379,1.335,1.2469,1.2414,1.2423,1.2522,0.0,0.0,0.0,0.0,0.0,0.0,0.0,0.0,0.0,0.0,0.0,0.0,0.0,0.0,0.0,0.0,0.0,0.0,0.0,0.0,0.0,0.0,3.8241,4.0399,4.0174,3.9155,3.7326,3.4092,3.2277,0.0,2.8673,2.8308,2.8756,3.0174,3.1484,3.2723,3.3802,3.627,3.9148,0.0,4.6715,0.0,0.0,0.0,0.0,0.0,0.0,0.0,0.0,0.0,0.0,0.0,6.5378,6.5775,6.5765,6.6373,6.6757,6.6791,6.5625,6.5625,6.6791,6.5603,6.5646,6.6757,6.529,0.0,0.0,0.0,0.0,0.0,6.3226,6.3091,6.2448,6.2434,6.24,6.24,6.24,6.24,6.24,0.0,0.0,0.0,0.0,0.0,0.0,0.0,0.0,0.0,0.0,0.1438,0.2236,0.2831,0.3046,0.3223,0.0,0.0,0.0,0.0,0.0,0.0,0.0,0.0,0.0,0.0,0.7952,0.9069,1.0762,1.1371,1.2274,1.3432,1.3292,1.3141,1.2999,1.258,1.2637,1.3033,1.326,0.0,0.0,0.0,0.0,0.0,0.0,0.0,0.0,2.0256,2.0943,0.0,0.0,0.0,0.0,0.0,0.0,0.0,0.0,2.2957,2.3948,2.6161,0.0,3.0751,3.0042,3.0031,2.9966,0.0,2.9048,2.8769,2.727,2.7366,2.8126,2.9486,3.0459,3.233,3.6194,3.842,4.0862,4.4362,0.0,0.0,0.0,0.0,0.0,0.0,0.0,0.0,0.0,0.0,0.0,0.0,6.3238,6.3779,6.4274,6.5377,6.6237,6.6791,6.6503,6.6503,6.6791,6.6503,6.6503,6.6757,6.529,0.0,0.0,0.0,0.0,6.326,6.3409,6.3409,6.3193,6.2618,6.24,6.24,6.24,6.24,6.24,0.0,0.0,0.0,0.0,0.0,0.0,0.0,0.0,0.0,0.0,0.0,0.0,0.0,0.0,0.0,0.0,0.0,0.0,0.0,0.0,0.0,0.0,0.0,0.5841,0.653,0.7304,0.8571,1.0344,1.0981,1.1997,1.3374,1.3082,1.2886,1.272,1.2016,1.1994,1.2457,1.2457,1.2893,1.3651,1.4405,0.0,0.0,0.0,0.0,0.0,1.998,2.0601,0.0,2.1468,2.1533,2.1504,0.0,0.0,0.0,0.0,2.1135,2.1466,2.1735,2.4632,2.7551,2.7377,2.7847,2.8223,2.7602,2.7274,2.6839,2.5832,2.6176,2.702,2.8381,2.9958,3.1987,3.4902,3.7671,0.0,0.0,0.0,0.0,0.0,0.0,0.0,0.0,0.0,0.0,0.0,0.0,0.0,0.0,6.2732,6.3084,6.4624,6.5013,6.5561,6.6305,6.6067,6.6235,6.6791,6.6213,6.6067,6.6271,6.5121,6.441,0.0,0.0,0.0,6.299,6.299,6.299,6.2956,6.255,6.24,6.24,6.24,6.24,6.24,0.0,0.0,0.0,0.0,0.0,0.0,0.0,0.0,0.0,0.0,0.0,0.0,0.0,0.0,0.0,0.0,0.0,0.0,0.0,0.0,0.0,0.0,0.0,0.5429,0.5913,0.6771,0.8035,0.9738,1.0643,1.1774,1.3065,1.3023,1.2676,1.2067,1.1259,1.1113,1.1497,1.1497,1.1808,1.2414,1.3783,0.0,0.0,0.0,0.0,0.0,0.0,0.0,0.0,2.1275,2.1512,2.1461,2.119,0.0,0.0,0.0,0.0,0.0,2.0186,2.362,2.7244,2.7337,2.8027,2.8388,2.7294,2.6264,2.5371,2.4867,2.5364,2.6333,2.7794,3.0068,3.2063,3.3066,0.0,0.0,0.0,0.0,0.0,0.0,0.0,0.0,0.0,0.0,0.0,0.0,0.0,0.0,0.0,6.2459,6.2679,6.5034,6.4667,6.4715,6.5378,6.5145,6.5546,6.6622,6.5524,6.5256,6.5683,6.4816,6.4106,0.0,0.0,0.0,6.24,6.24,6.24,6.24,6.24,6.24,6.24,6.24,6.24,6.24,0.0,0.0,0.0,0.0,0.0,0.0,0.0,0.0,0.0,0.0,0.0,0.0,0.0,0.0,0.0,0.0,0.0,0.0,0.0,0.0,0.0,0.0,0.4524,0.5136,0.6052,0.7137,0.8414,0.988,1.1301,1.264,1.3834,1.3534,1.2793,1.1663,1.1143,1.0937,1.1016,1.1016,1.1506,1.233,1.2583,0.0,0.0,0.0,0.0,0.0,0.0,0.0,0.0,2.1047,2.1705,2.2368,2.172,0.0,0.0,0.0,0.0,0.0,2.1903,2.4026,2.5368,2.3273,2.405,2.5296,2.5085,2.5333,2.5551,2.5477,2.6422,2.7842,2.9714,3.1326,3.3306,0.0,0.0,4.6818,0.0,0.0,0.0,0.0,0.0,0.0,0.0,0.0,0.0,0.0,0.0,0.0,0.0,6.0083,6.0802,6.2281,6.32,6.3714,6.3835,6.499,6.5665,6.5865,6.5665,6.5618,6.5649,6.4309,6.3612,6.3443,0.0,6.24,6.24,6.24,6.24,6.24,6.24,6.24,6.24,6.24,6.24,6.24,0.0,0.0,0.0,0.0,0.0,0.0,0.0,0.0,0.0,0.0,0.0,0.0,0.0,0.0,0.0,0.0,0.0,0.0,0.0,0.0,0.0,0.3389,0.4097,0.4825,0.5546,0.7414,0.8816,0.9694,1.1363,1.2606,1.3406,1.3282,1.3091,1.2794,1.1778,1.147,1.168,1.1439,1.1736,1.2395,0.0,0.0,0.0,0.0,0.0,0.0,0.0,0.0,0.0,0.0,2.1087,2.1535,2.1044,0.0,0.0,0.0,0.0,0.0,2.0873,2.2513,2.383,2.2951,2.4765,2.6769,2.6769,2.644,2.6363,2.7081,2.7991,2.9159,3.0747,3.2721,3.5866,4.1219,0.0,0.0,0.0,0.0,0.0,0.0,0.0,0.0,0.0,0.0,0.0,0.0,0.0,0.0,0.0,0.0,6.0769,6.0736,6.214,6.2575,6.1953,6.3653,6.4715,6.5121,6.5121,6.4884,6.4478,6.3815,6.3274,6.2888,0.0,6.24,6.24,6.24,6.24,6.24,6.24,6.24,6.24,6.24,6.24,6.24,0.0,0.0,0.0,0.0,0.0,0.0,0.0,0.0,0.0,0.0,0.0,0.0,0.0,0.0,0.0,0.0,0.0,0.0,0.0,0.0,0.2793,0.299,0.3965,0.4768,0.5305,0.7666,0.915,0.9669,1.149,1.2606,1.3077,1.3434,1.3576,1.3515,1.2374,1.2015,1.2236,1.1868,1.1985,1.2512,0.0,0.0,0.0,0.0,0.0,0.0,0.0,0.0,0.0,0.0,0.0,0.0,0.0,0.0,0.0,1.9915,1.9708,1.9789,2.0277,2.1625,2.3092,2.3879,2.6004,2.8068,2.8697,2.8051,2.7722,2.9205,3.0177,3.1045,3.2033,3.4636,0.0,4.511,4.7424,0.0,0.0,0.0,0.0,0.0,0.0,0.0,0.0,0.0,0.0,0.0,0.0,0.0,0.0,0.0,6.0815,5.957,6.1396,6.187,6.0783,6.2401,6.3612,6.4343,6.4343,6.4072,6.3477,6.3308,6.2854,6.2144,6.2144,6.2144,6.2144,6.2144,6.2074,6.201,6.2302,6.24,6.24,6.24,6.24,6.24,0.0,0.0,0.0,0.0,0.0,0.0,0.0,0.0,0.0,0.0,0.0,0.0,0.0,0.0,0.0,0.0,0.0,0.0,0.0,0.0,0.287,0.3257,0.429,0.5204,0.5923,0.7879,0.9307,1.0143,1.1967,1.3086,1.3585,1.4835,1.4363,1.2503,1.2397,1.2147,1.1839,1.1812,1.2068,1.2493,1.2585,0.0,0.0,0.0,0.0,0.0,0.0,0.0,0.0,0.0,0.0,0.0,0.0,0.0,2.1197,2.0032,1.9708,2.0097,2.1984,2.2992,2.3849,2.5124,2.5633,2.6482,2.8949,2.9458,2.9907,3.1839,3.3245,3.4174,3.4248,3.7434,4.1403,4.5618,0.0,0.0,0.0,0.0,0.0,0.0,0.0,0.0,0.0,0.0,0.0,0.0,0.0,0.0,0.0,0.0,0.0,5.8458,6.1013,6.2023,6.125,6.2071,6.2854,6.3579,6.3579,6.3545,6.3477,6.2787,6.2076,6.1366,6.1366,6.1366,6.1366,6.1366,6.1113,6.0849,6.1971,6.24,6.24,6.24,6.24,6.24,0.0,0.0,0.0,0.0,0.0,0.0,0.0,0.0,0.0,0.0,0.0,0.0,0.0,0.0,0.0,0.0,0.0,0.0,0.0,0.0,0.3685,0.4082,0.4854,0.5776,0.6845,0.8655,0.9827,1.0321,1.211,1.345,1.4338,1.4148,1.4016,1.3905,1.2911,1.2755,1.318,1.251,1.2734,1.3476,1.3087,1.3051,0.0,0.0,0.0,0.0,0.0,0.0,0.0,0.0,1.9442,1.9654,1.9866,2.0145,2.0279,1.9822,1.9708,1.9857,2.0636,2.2503,2.4436,2.5364,2.6841,2.8457,2.9834,3.1135,3.2602,3.4592,3.5998,3.7062,3.7464,0.0,4.3345,4.6854,0.0,0.0,0.0,0.0,0.0,0.0,0.0,0.0,0.0,0.0,0.0,0.0,0.0,0.0,0.0,0.0,0.0,5.6264,5.9317,6.0482,5.9458,6.0463,6.1095,6.14,6.2347,6.2821,6.2787,6.2042,6.1569,6.1264,6.0757,6.0554,6.0588,6.1095,6.12,6.1153,6.2021,6.1951,6.1378,6.211,6.24,6.24,0.0,0.0,0.0,0.0,0.0,0.0,0.0,0.0,0.0,0.0,0.0,0.0,0.0,0.0,0.0,0.0,0.0,0.0,0.3298,0.374,0.4184,0.4589,0.5334,0.6279,0.738,0.93,1.0418,1.069,1.2458,1.3646,1.4257,1.3856,1.3914,1.4296,1.3411,1.3405,1.4019,1.3091,1.325,1.4056,1.345,1.3198,0.0,0.0,0.0,0.0,0.0,0.0,0.0,0.0,1.8194,1.8246,1.9163,1.9551,1.9708,1.9708,1.9708,1.9708,1.9708,2.1784,2.4167,2.4795,2.729,2.9967,3.142,3.3155,3.5086,3.7272,3.8242,3.905,4.0157,4.1634,0.0,0.0,0.0,0.0,0.0,0.0,0.0,0.0,0.0,0.0,0.0,0.0,0.0,0.0,0.0,0.0,0.0,0.0,0.0,0.0,5.8442,5.9602,5.8541,5.9583,6.0114,6.0114,6.1163,6.1481,6.1152,6.0648,6.0082,5.9518,5.9332,5.9252,5.9285,5.9856,5.9996,5.9951,6.0684,6.0684,6.0456,6.187,6.24,6.24,0.0,0.0,0.0,0.0,0.0,0.0,0.0,0.0,0.0,0.0,0.0,0.0,0.0,0.0,0.0,0.0,0.0,0.0,0.3306,0.3757,0.4196,0.46,0.5707,0.6654,0.7398,0.9714,1.1034,1.1321,1.3104,1.3694,1.3137,1.4331,1.4243,1.3146,1.3806,1.4056,1.3976,1.3416,1.3559,1.4056,1.345,1.3198,1.3267,0.0,0.0,0.0,0.0,0.0,0.0,0.0,1.7662,1.8183,1.8728,1.9277,1.9708,1.9708,1.9708,1.9729,1.9708,2.1175,2.2882,2.349,2.6674,3.0506,3.3769,3.5565,3.7255,3.9888,3.99,4.0068,4.2051,4.1901,0.0,0.0,0.0,0.0,0.0,0.0,0.0,0.0,0.0,0.0,0.0,0.0,0.0,0.0,0.0,0.0,0.0,5.7455,5.8883,5.6276,5.8725,5.9708,5.9013,5.9708,6.008,6.008,6.008,5.953,5.8525,5.8513,5.7474,5.5772,5.6902,5.7397,5.7377,5.7377,5.7163,5.6841,5.7546,5.8528,5.9816,6.1721,6.2381,6.24,0.0,0.0,0.0,0.0,0.0,0.0,0.0,0.0,0.0,0.0,0.0,0.0,0.0,0.0,0.0,0.0,0.0,0.0,0.406,0.4779,0.5429,0.5978,0.6331,0.7087,0.8292,1.0419,1.1876,1.2582,1.3106,1.3531,1.3816,1.4175,1.414,1.3816,1.4008,1.409,1.4032,1.3445,1.3559,1.4056,1.345,1.3387,1.3715,0.0,0.0,0.0,0.0,0.0,0.0,0.0,0.0,0.0,1.8616,1.9902,2.0926,1.9968,2.0357,2.1016,2.0518,2.2193,2.4406,2.6015,2.9771,3.3649,3.5998,3.6836,3.8153,4.1724,4.2293,4.2322,4.2921,4.3629,0.0,0.0,0.0,0.0,0.0,0.0,0.0,0.0,0.0,0.0,0.0,0.0,0.0,0.0,0.0,0.0,0.0,5.5502,5.6749,5.621,5.723,5.7915,5.822,5.8423,5.8558,5.8558,5.8558,5.8916,5.9607,5.9103,5.8141,5.6943,5.7492,5.6892,5.546,5.5998,5.5932,5.5741,5.7569,5.8297,5.8582,6.0805,6.1941,6.24,0.0,0.0,0.0,0.0,0.0,0.0,0.0,0.0,0.0,0.0,0.0747,0.0,0.0,0.0,0.0,0.0,0.0,0.0,0.0,0.4926,0.5566,0.64,0.652,0.7311,0.8943,1.0407,1.1508,1.2224,1.2832,1.3236,1.3434,1.4097,1.4278,1.4086,1.4547,1.4593,1.4332,1.3795,1.3778,1.4074,1.3914,1.3873,1.3955,0.0,0.0,0.0,0.0,0.0,0.0,0.0,0.0,0.0,1.8181,1.9517,2.0459,1.9854,2.0268,2.0896,2.0728,2.2601,2.5143,2.7423,3.1075,3.4817,3.7584,3.9182,4.0976,4.3908,4.4087,4.3878,4.4366,4.4715,0.0,0.0,0.0,0.0,0.0,0.0,0.0,0.0,0.0,0.0,0.0,0.0,0.0,0.0,0.0,0.0,0.0,5.4385,5.559,5.5334,5.6005,5.6596,5.7036,5.7306,5.7442,5.7442,5.7442,5.7915,5.8758,5.7697,5.6657,5.5615,5.5846,5.5166,5.3966,5.4377,5.4139,5.3768,5.637,5.7385,5.771,6.0351,6.1772,6.24,0.0,0.0,0.0,0.0,0.0,0.0,0.0,0.0,0.0,0.0,0.191,0.1697,0.0,0.0,0.0,0.0,0.0,0.0,0.0,0.0,0.5042,0.623,0.6505,0.745,0.9184,0.9808,1.0347,1.0759,1.2353,1.2889,1.2446,1.4079,1.4503,1.3979,1.5072,1.5233,1.4629,1.419,1.4033,1.4114,1.4542,1.4432,1.4154,1.5491,0.0,0.0,0.0,0.0,0.0,0.0,0.0,0.0,1.7607,1.8548,1.915,1.9593,1.9798,2.0028,2.0757,2.2751,2.5292,2.8248,3.1569,3.51,3.8841,4.2053,4.4655,4.5882,4.5254,4.4865,4.6151,4.5403,0.0,0.0,0.0,0.0,0.0,0.0,0.0,0.0,0.0,0.0,0.0,0.0,0.0,0.0,0.0,0.0,0.0,5.3757,5.4966,5.4175,5.4997,5.551,5.5699,5.627,5.6608,5.6697,5.6697,5.6697,5.666,5.5332,5.4083,5.3022,5.2803,5.2714,5.2714,5.2604,5.2002,5.1403,5.4232,5.5933,5.7055,5.9951,6.1559,6.2333,0.0,0.0,0.0,0.0,0.0,0.0,0.0,0.0,0.0,0.0,0.0,0.0,0.0,0.0,0.0,0.0,0.0,0.0,0.0,0.0,0.5841,0.6786,0.7326,0.7674,0.7835,0.8978,0.9611,0.9724,1.1681,1.2566,1.2421,1.3686,1.394,1.3404,1.4125,1.4106,1.3528,1.3438,1.3599,1.3957,1.404,1.4387,1.4889,1.518,1.5453,0.0,0.0,0.0,0.0,0.0,0.0,0.0,1.7734,1.9198,2.0378,1.986,2.0456,2.1515,2.2682,2.3767,2.5741,3.0478,3.534,3.9409,4.1313,4.306,4.4386,4.4655,4.5343,4.6121,4.6929,0.0,0.0,0.0,0.0,0.0,0.0,0.0,0.0,0.0,0.0,0.0,0.0,0.0,0.0,0.0,0.0,0.0,5.2082,5.251,5.3505,5.5279,5.4192,5.4264,5.5699,5.5017,5.5083,0.0,5.5936,5.5936,5.5918,5.5608,5.4872,5.374,5.1999,5.1289,5.1236,5.0421,5.0223,5.0566,5.2105,5.406,5.6199,5.8317,6.013,6.1603,0.0,0.0,0.0,0.0,0.0,0.0,0.0,0.0,0.0,0.0,0.0,0.0,0.0,0.0,0.0,0.0,0.0,0.0,0.0,0.0,0.5545,0.6571,0.7164,0.7383,0.7212,0.818,0.8794,0.9014,1.0626,1.1759,1.2461,1.3567,1.4215,1.4403,1.4733,1.4557,1.4011,1.3735,1.3745,1.3965,1.4811,1.514,1.5199,1.6023,1.5969,1.5359,1.4489,0.0,0.0,0.0,0.0,0.0,0.0,0.0,1.9528,1.9359,2.0001,2.1106,2.2722,2.4328,2.6979,3.2946,3.7434,4.0576,4.1283,4.2451,4.3479,4.3758,4.4895,4.5933,4.6292,0.0,0.0,0.0,0.0,0.0,0.0,0.0,0.0,0.0,0.0,0.0,0.0,0.0,0.0,0.0,0.0,4.9718,5.0675,5.1013,5.1792,5.3115,5.2272,5.2221,5.3148,5.2959,5.3367,5.4403,5.3934,5.3496,5.3199,5.4368,5.4006,5.2477,5.1288,5.0565,5.0096,4.9516,4.9486,4.9907,5.1326,5.3278,5.5428,5.7298,5.9364,6.1255,0.0,0.0,0.0,0.0,0.0,0.0,0.0,0.0,0.0,0.0,0.0,0.0,0.0,0.0,0.0,0.0,0.0,0.0,0.0,0.0,0.0,0.6226,0.6748,0.698,0.6926,0.7564,0.8128,0.8617,0.9674,1.0992,1.2514,1.3492,1.4537,1.5552,1.5477,1.5185,1.4727,1.4173,1.4037,1.4301,1.5753,1.6009,1.5705,1.7056,1.6551,1.5041,1.4231,1.376,1.3607,1.3951,0.0,0.0,0.0,0.0,1.82,1.875,1.9286,2.0157,2.2134,2.5028,2.8846,3.4697,3.8212,4.0217,4.0217,4.1254,4.2391,4.301,4.4177,4.5155,0.0,0.0,0.0,0.0,0.0,0.0,0.0,0.0,0.0,0.0,0.0,0.0,0.0,0.0,0.0,0.0,0.0,4.8522,4.848,4.9403,5.0,5.0064,4.9892,4.9936,5.0205,5.0537,5.1334,5.2538,5.1726,5.098,5.0448,5.2452,5.2311,5.0472,5.0472,4.9861,4.8947,4.8947,4.9007,4.9292,5.1063,5.2869,5.4741,5.6688,5.8779,6.0505,0.0,0.0,0.0,0.0,0.0,0.0,0.0,0.0,0.0,0.0,0.0,0.0,0.0,0.0,0.0,0.0,0.0,0.0,0.0,0.0,0.0,0.6524,0.6829,0.6897,0.6653,0.7473,0.8167,0.8691,0.9643,1.0925,1.2517,1.311,1.3982,1.4994,1.4525,1.4283,1.4157,1.3584,1.4071,1.5319,1.5552,1.6317,1.7331,1.7106,1.6331,1.5272,1.4697,1.3668,1.2719,1.3627,1.4054,0.0,0.0,0.0,1.82,1.875,1.9286,2.0157,2.2134,2.6692,3.1495,3.4099,3.7165,3.9541,3.9541,4.0576,4.1703,0.0,4.3539,0.0,0.0,0.0,0.0,0.0,0.0,0.0,0.0,0.0,0.0,0.0,0.0,0.0,0.0,0.0,0.0,0.0,4.7109,4.7397,4.7156,4.7791,4.8314,4.8666,4.782,4.8045,4.9512,4.8178,4.8614,5.0768,5.0602,5.0493,5.0397,5.0724,5.0236,4.9068,4.9068,4.8506,4.7578,4.7578,4.7908,4.8609,5.0347,5.2167,5.4025,5.6492,5.7608,5.7992,0.0,0.0,0.0,0.0,0.0,0.0,0.0,0.0,0.0,0.0,0.0,0.0,0.0,0.0,0.0,0.0,0.0,0.0,0.0,0.0,0.0,0.681,0.6926,0.694,0.683,0.7531,0.8162,0.8704,0.9638,1.1094,1.3014,1.3809,1.4604,1.5299,1.5386,1.5286,1.4959,1.4387,1.4855,1.5981,1.6357,1.6993,1.7671,1.7508,1.6592,1.531,1.4501,0.0,0.0,0.0,1.3883,1.4617,1.5641,0.0,0.0,0.0,1.9034,2.0397,2.3471,2.7051,3.0628,3.3709,3.5878,3.7387,3.8105,3.902,3.9906,4.0576,4.1474,0.0,0.0,0.0,0.0,0.0,0.0,0.0,0.0,0.0,0.0,0.0,0.0,0.0,0.0,0.0,0.0,0.0,4.6022,4.6133,4.6011,4.6255,4.6478,4.6658,4.6232,4.6365,4.709,4.6365,4.6518,4.7554,4.8719,4.8883,4.81,4.8693,4.888,4.882,4.882,4.8231,4.7309,4.7309,4.7489,4.7853,4.9001,5.0539,5.2272,5.3765,5.5223,5.6402,0.0,0.0,0.0,0.0,0.0,0.0,0.0,0.0,0.0,0.0,0.0,0.0,0.0,0.0,0.0,0.0,0.0,0.0,0.0,0.0,0.0,0.6985,0.7006,0.708,0.7227,0.7801,0.8425,0.9062,1.0168,1.1599,1.3349,1.4664,1.5416,1.562,1.6227,1.621,1.5668,1.5145,1.5535,1.6572,1.6913,1.7343,1.7798,1.7725,1.6702,1.517,1.4393,0.0,0.0,0.0,0.0,0.0,0.0,1.675,0.0,0.0,0.0,2.0417,2.3699,2.6051,2.8427,3.1883,3.3769,3.51,3.6357,3.7315,3.8153,0.0,0.0,0.0,0.0,0.0,0.0,0.0,0.0,0.0,0.0,0.0,0.0,0.0,0.0,0.0,0.0,0.0,0.0,0.0,4.5185,4.5155,4.4825,4.4945,4.4975,4.4796,4.4796,4.4885,4.5035,4.5214,4.5214,4.5056,4.68,4.7074,4.6073,4.6996,4.7702,4.8163,4.8347,4.7988,4.7309,4.7309,4.7309,4.7391,4.8347,4.9503,5.0775,5.1901,5.3342,5.4623,0.0,0.0,0.0,0.0,0.0,0.0,0.0,0.0,0.0,0.0,0.0,0.0,0.0,0.521,0.521,0.521,0.0,0.0,0.0,0.0,0.0,0.6985,0.7006,0.0,0.7847,0.8378,0.91,1.0029,1.1607,1.2636,1.3166,1.5326,1.6051,1.562,1.6227,1.621,1.5668,1.5145,1.5818,1.7191,1.66,1.7052,1.8012,1.7367,0.0,0.0,0.0,0.0,0.0,0.0,0.0,0.0,0.0,1.675,1.8092,0.0,0.0,0.0,2.1495,2.333,2.5334,2.7423,3.0326,3.3006,3.4338,0.0,3.6943,0.0,0.0,0.0,0.0,0.0,0.0,0.0,0.0,0.0,0.0,0.0,0.0,0.0,0.0,0.0,0.0,0.0,0.0,0.0,4.4945,4.4766,4.3469,4.3997,4.4057,4.3409,4.3379,4.3728,4.4356,4.4975,4.4975,4.4356,4.5098,4.5428,4.5364,4.6065,4.6385,4.6475,4.7096,4.7352,4.7309,4.7309,4.7309,4.7477,4.9145,4.9874,5.0248,5.2633,5.2913,5.2182,0.0,0.0,0.0,0.0,0.0,0.0,0.0,0.0,0.0,0.0,0.0,0.0,0.0,0.5308,0.5308,0.5308,0.5653,0.0,0.0,0.0,0.0,0.6996,0.7006,0.7101,0.7321,0.848,0.9249,0.9598,1.18,1.3193,1.3795,1.5578,1.6327,1.6183,1.681,1.6748,1.6206,1.6386,1.697,1.7791,1.7458,0.0,0.0,0.0,0.0,0.0,0.0,0.0,0.0,0.0,0.0,0.0,1.5484,1.675,1.823,1.8921,1.9396,1.9998,2.1345,2.2203,2.343,2.6255,2.8171,2.9817,3.1554,3.3305,3.4847,3.5715,0.0,0.0,0.0,0.0,0.0,0.0,0.0,0.0,0.0,0.0,0.0,0.0,0.0,0.0,0.0,0.0,0.0,0.0,0.0,4.3389,4.329,4.315,4.315,4.3309,4.329,4.3429,4.3668,4.309,4.309,4.3668,4.3509,4.3888,4.4676,4.4895,4.5254,4.5693,4.6381,4.6899,4.7309,4.7309,4.7309,4.7352,4.7994,4.8762,4.9626,5.052,5.11,5.1486,0.0,0.0,0.0,0.0,0.0,0.0,0.0,0.0,0.0,0.0,0.0,0.0,0.0,0.0,0.5878,0.5878,0.6231,0.6466,0.6466,0.6806,0.7006,0.7006,0.711,0.7354,0.7769,0.8728,0.9577,1.0264,1.2245,1.3587,1.4338,1.5756,1.6548,1.6799,1.7182,1.7131,1.6805,1.7343,0.0,1.8329,0.0,0.0,1.8417,0.0,0.0,0.0,0.0,0.0,0.0,0.0,0.0,0.0,0.0,1.7177,1.853,1.9433,1.9708,1.9878,2.0776,2.1186,2.2054,2.4866,2.5926,2.6884,2.9295,3.0881,3.2168,0.0,0.0,0.0,0.0,0.0,0.0,0.0,0.0,0.0,0.0,0.0,0.0,0.0,0.0,0.0,0.0,0.0,0.0,0.0,0.0,0.0,4.2622,4.2271,4.2241,4.2651,4.2651,4.2651,4.2651,4.2062,4.2062,4.2651,4.2671,4.305,4.3688,4.4107,4.4556,4.5005,4.5672,4.633,4.6958,4.7219,4.7309,4.7309,4.7309,4.7848,4.8678,4.9127,4.9845,5.0631,0.0,0.0,0.0,0.0,0.0,0.0,0.0,0.0,0.0,0.6933,0.0,0.0,0.0,0.0,0.0,0.7041,0.703,0.703,0.7059,0.7041,0.7044,0.7051,0.0,0.0,0.9239,0.9174,1.0138,1.2169,1.3022,1.3886,1.4744,1.5965,1.6805,1.7302,1.7333,1.7353,1.7384,0.0,1.8443,1.8873,0.0,1.8016,1.8138,0.0,0.0,0.0,1.6624,1.6406,0.0,1.5811,0.0,0.0,0.0,1.8043,1.9006,1.9533,1.9708,0.0,0.0,0.0,0.0,2.3041,2.352,2.4418,2.7709,0.0,2.9086,0.0,0.0,0.0,0.0,0.0,0.0,0.0,0.0,0.0,0.0,0.0,0.0,0.0,0.0,0.0,0.0,0.0,0.0,0.0,4.1373,4.1373,4.1403,4.1403,4.1403,4.1403,4.1373,4.1373,4.1403,4.2021,4.2021,4.1403,4.2622,4.294,4.244,4.3688,4.4237,4.4296,4.4975,4.5633,4.63,4.701,4.7279,4.7279,4.7309,4.7309,4.7489,4.8798,4.9277,4.9486,0.0,0.0,0.0,0.0,0.0,0.0,0.0,0.0,0.6838,0.0,0.0,0.0,0.7343,0.7537,0.7725,0.7921,0.7763,0.7937,0.8631,0.8033,0.7864,0.8351,0.8004,0.7954,0.8277,0.9439,1.0539,1.1552,1.3434,1.4686,1.5365,1.6546,1.7157,1.7333,1.8102,1.8444,1.8453,1.8636,0.0,1.9575,1.8796,1.8788,0.0,0.0,0.0,0.0,0.0,1.6719,1.6984,0.0,1.6249,1.6454,0.0,0.0,0.0,1.9533,0.0,0.0,1.9708,0.0,0.0,0.0,0.0,0.0,0.0,0.0,0.0,0.0,0.0,0.0,0.0,0.0,0.0,0.0,0.0,0.0,0.0,0.0,0.0,0.0,0.0,0.0,0.0,0.0,0.0,0.0,4.0954,4.0894,4.1373,4.1403,4.1403,4.1403,4.0924,4.0905,4.1403,4.0606,4.0606,4.1403,4.1265,4.1624,4.241,4.275,4.315,4.3609,4.4296,4.4685,4.4925,4.6091,4.657,4.6629,4.713,4.7608,4.8079,4.8438,4.9164,5.0009,0.0,0.0,0.0,0.0,0.0,0.0,0.6637,0.683,0.7006,0.0,0.0,0.0,0.8438,0.8396,0.8497,0.8925,0.8856,0.9001,0.952,0.9039,0.8904,0.9294,0.9075,0.908,0.9349,1.0252,1.1256,1.2336,1.3776,1.4967,1.596,1.6859,1.7548,1.7983,1.8636,1.9015,1.924,0.0,0.0,0.0,1.9304,0.0,0.0,1.8503,1.8245,0.0,0.0,0.0,1.8179,1.7175,1.7126,0.0,0.0,0.0,0.0,0.0,0.0,0.0,0.0,0.0,0.0,0.0,0.0,0.0,2.2872,2.392,0.0,0.0,0.0,0.0,0.0,0.0,0.0,0.0,0.0,0.0,0.0,0.0,0.0,0.0,0.0,0.0,0.0,3.9409,3.9709,4.0116,4.0038,4.0157,4.0546,4.0576,4.0576,4.0576,4.0187,4.0187,4.0546,4.0068,4.0068,4.0576,4.1014,4.1493,4.2021,4.2541,4.297,4.3319,4.3728,4.3878,4.3967,4.5014,4.5792,4.636,4.704,4.7549,4.7908,4.8199,4.8955,4.9883,0.0,0.0,0.0,0.6321,0.668,0.6937,0.673,0.6969,0.7176,0.0,0.8088,0.9037,0.9859,0.9446,0.9369,0.9989,1.0069,1.012,1.016,1.0069,1.0028,1.0108,1.0335,1.072,1.1333,1.1279,1.2104,1.3792,1.4105,1.5027,1.6506,1.7172,1.7983,1.8902,0.0,0.0,0.0,0.0,0.0,1.9708,1.9708,1.9474,0.0,0.0,1.9397,1.9024,1.8419,1.8883,1.9572,1.794,1.8013,0.0,0.0,0.0,0.0,0.0,1.9818,0.0,0.0,0.0,0.0,0.0,0.0,0.0,2.2104,2.2124,2.2113,0.0,0.0,0.0,0.0,0.0,0.0,0.0,0.0,0.0,0.0,0.0,0.0,0.0,0.0,0.0,3.7387,3.7943,3.829,3.829,3.8901,3.9302,3.9302,3.9361,3.9391,3.9391,3.9391,3.9391,3.9391,4.0008,4.0008,3.9421,4.1224,4.1792,4.1343,4.2442,4.307,4.322,4.322,4.325,4.3349,4.4027,4.5044,4.6241,4.695,4.7249,4.7369,4.7967,4.8648,4.9366,0.0,0.0,0.0,0.6817,0.6926,0.707,0.729,0.7827,0.8275,0.8508,0.9404,1.0103,1.0276,1.0385,1.0556,1.0924,1.0762,1.0959,1.1707,1.1033,1.087,1.141,1.0963,1.0777,1.0914,1.1423,1.2358,1.3717,1.4733,1.5879,1.7157,1.8131,1.8712,1.8921,1.935,1.9617,0.0,0.0,0.0,1.9708,1.9708,0.0,2.024,1.9382,1.9594,2.0148,1.8669,1.8867,1.9685,1.8386,1.8072,1.8298,0.0,0.0,0.0,0.0,0.0,0.0,0.0,0.0,0.0,0.0,0.0,0.0,2.1246,2.1814,2.2583,0.0,0.0,0.0,0.0,0.0,0.0,0.0,0.0,0.0,0.0,0.0,0.0,0.0,0.0,0.0,3.7387,3.7524,3.7614,3.7614,3.8212,3.8601,3.8601,3.9092,3.9391,3.9391,3.9391,3.9391,3.9391,3.9541,3.9541,3.9391,3.978,4.0217,4.0606,4.0846,4.1534,4.2571,4.2571,4.2851,4.3349,4.4027,4.4775,4.5574,4.6241,4.6809,4.7309,4.7459,4.8259,4.9307,0.0,0.0,0.0,0.7188,0.7241,0.7455,0.8095,0.8493,0.8867,0.9335,0.9983,1.0713,1.155,1.1435,1.1495,0.0,0.0,0.0,0.0,0.0,1.1999,1.2332,1.2036,1.185,1.185,1.2465,1.3273,1.4193,1.5373,1.6545,1.7713,1.8511,1.9034,1.9314,1.957,1.9708,1.9708,0.0,1.9878,2.0168,1.9818,0.0,2.0264,1.9921,2.0215,2.0695,1.9808,1.9682,1.986,1.9541,1.9193,0.0,0.0,1.9075,1.9402,0.0,2.0438,2.0778,0.0,0.0,0.0,2.1695,0.0,0.0,0.0,2.1186,2.1385,2.2064,2.1684,0.0,0.0,0.0,0.0,0.0,0.0,0.0,0.0,0.0,0.0,0.0,0.0,0.0,3.5908,3.6567,3.7075,3.7375,3.7704,3.7913,3.7913,3.8542,3.8901,3.8901,3.9212,3.9391,3.9391,3.9391,3.9391,3.9391,3.972,4.0068,4.0427,4.1104,4.1762,4.241,4.272,4.301,4.3319,4.3668,4.4207,4.4915,4.5912,4.651,4.6839,4.7189,4.8169,4.9277,0.6866,0.0,0.0,0.778,0.7912,0.8246,0.9066,0.9299,0.9641,1.0378,1.0807,1.1568,1.2941,0.0,0.0,0.0,0.0,0.0,0.0,0.0,0.0,1.2915,1.2915,1.2915,1.2915,1.3481,1.4155,1.4846,1.6001,1.7146,1.8259,1.8807,1.9295,1.9708,1.9708,1.9768,1.9878,0.0,0.0,2.0847,0.0,2.0143,2.0293,2.0723,2.105,2.1254,2.1254,2.0738,2.0164,2.0761,0.0,1.9538,1.946,1.9497,0.0,0.0,0.0,0.0,0.0,0.0,0.0,0.0,0.0,2.1595,0.0,0.0,0.0,2.1126,2.0447,0.0,0.0,0.0,0.0,0.0,0.0,0.0,0.0,0.0,0.0,0.0,0.0,0.0,0.0,3.5176,3.6088,3.6969,3.6926,3.6956,3.7225,3.7853,3.8212,3.8212,3.8733,3.9062,3.9212,3.9212,3.9272,3.9421,3.9948,4.0217,4.0247,4.1343,4.1961,4.2231,4.2731,4.307,4.329,4.329,4.3638,4.4237,4.5583,4.6181,4.639,4.707,4.8079,4.9127,0.7849,0.8062,0.0,0.0,0.9382,0.9772,1.0169,1.073,1.1463,1.2416,1.307,1.3493,0.0,0.0,0.0,0.0,0.0,0.0,1.4381,0.0,0.0,0.0,1.2915,1.2915,1.2915,1.3481,1.432,1.5405,1.6551,1.7689,1.8826,1.936,1.9654,1.9708,1.9708,2.0019,2.0578,0.0,2.0967,0.0,2.1495,2.1485,0.0,2.1555,2.1964,2.25,2.25,2.1675,2.0722,0.0,2.0448,1.9273,0.0,2.0277,1.9426,0.0,0.0,0.0,0.0,0.0,0.0,0.0,2.3879,0.0,0.0,0.0,2.1196,2.0157,0.0,2.0118,2.1555,0.0,0.0,0.0,0.0,0.0,0.0,0.0,0.0,0.0,0.0,0.0,0.0,3.3215,3.3708,3.5579,3.5176,3.5356,3.6553,3.7195,3.7524,3.7524,3.7567,3.7913,3.8512,3.8512,3.8811,3.9391,3.9481,3.9511,3.9511,3.966,4.0397,4.1523,4.1583,4.2252,4.329,4.329,4.3349,4.3549,4.4885,4.5783,4.639,4.707,4.7758,4.8498,0.835,0.863,0.0,0.0,1.0083,1.0418,1.1108,1.2384,1.3302,1.3418,1.4224,0.0,0.0,0.0,0.0,0.0,0.0,1.488,0.0,0.0,0.0,0.0,0.0,0.0,0.0,1.4693,1.5229,1.602,1.7161,1.8123,1.8912,1.9442,1.9708,1.9708,1.9708,0.0,2.0139,0.0,2.1306,0.0,0.0,0.0,0.0,2.2562,2.2662,2.3231,2.3231,2.2633,2.1914,0.0,2.1775,0.0,0.0,0.0,0.0,0.0,0.0,0.0,0.0,0.0,0.0,0.0,0.0,0.0,2.1834,0.0,2.0597,0.0,0.0,0.0,0.0,0.0,0.0,0.0,2.2802,0.0,0.0,0.0,0.0,0.0,0.0,0.0,0.0,0.0,0.0,0.0,3.3066,3.3754,3.4711,3.5729,3.6477,3.6866,3.7225,3.7734,3.8409,3.8409,3.8751,3.9391,3.9391,3.9391,3.9421,3.978,4.0487,4.1433,4.1792,4.2462,4.329,4.329,4.3549,4.3967,4.4915,4.5454,4.5873,4.692,4.7728,4.8349,0.9381,0.0,0.0,0.0,0.0,1.1369,0.0,0.0,0.0,0.0,0.0,0.0,1.6186,1.6209,0.0,0.0,1.626,1.599,0.0,0.0,1.5792,0.0,0.0,0.0,0.0,1.5855,1.6298,1.6837,1.7838,1.8607,1.9118,1.9515,1.9879,2.0203,2.0032,2.026,2.073,0.0,2.1914,2.2942,2.2942,2.349,2.4216,2.3291,2.3231,2.361,2.361,2.3201,2.2733,2.2882,2.2716,0.0,2.2257,0.0,0.0,0.0,0.0,0.0,2.3969,0.0,0.0,0.0,0.0,0.0,0.0,0.0,0.0,0.0,0.0,0.0,0.0,0.0,2.1695,0.0,0.0,2.2183,0.0,0.0,0.0,0.0,0.0,0.0,0.0,0.0,0.0,0.0,0.0,3.1958,3.3155,3.4322,3.534,3.6178,3.6836,3.7464,3.8123,3.8302,3.8751,3.9391,3.9391,3.9391,3.9421,3.99,4.0576,4.1433,4.1912,4.2551,4.329,4.329,4.3698,4.4377,4.5035,4.5394,4.5723,4.689,4.7608,4.8027,1.1338,1.1318,0.0,0.0,0.0,0.0,0.0,0.0,0.0,0.0,0.0,0.0,0.0,0.0,0.0,0.0,0.0,1.723,1.723,0.0,1.5881,0.0,0.0,1.6114,0.0,0.0,1.7404,1.7944,1.8569,1.9136,1.9681,1.9699,2.0318,2.1428,2.0882,2.1635,2.3244,2.2808,2.2992,2.358,2.358,2.361,2.364,0.0,2.358,2.361,2.361,0.0,0.0,2.337,2.2764,0.0,0.0,0.0,0.0,0.0,0.0,0.0,0.0,0.0,0.0,2.5292,0.0,0.0,0.0,0.0,2.3131,0.0,0.0,0.0,0.0,0.0,2.1695,0.0,0.0,0.0,0.0,0.0,0.0,0.0,0.0,0.0,0.0,0.0,0.0,0.0,0.0,0.0,3.2392,3.3185,3.4173,3.5489,3.6178,3.6806,3.7434,3.8063,3.8751,3.9391,3.9391,3.9391,3.9391,3.9421,4.0157,4.1403,4.1433,4.2132,4.329,4.329,4.3698,4.4377,4.5035,4.5693,4.636,4.7018,4.7309,4.7429,0.0,0.0,0.0,0.0,0.0,0.0,0.0,1.592,0.0,0.0,0.0,0.0,0.0,2.0356,2.0363,0.0,0.0,1.8944,1.8944,1.8425,0.0,0.0,0.0,1.7861,0.0,0.0,1.85,1.8594,1.9246,1.9836,2.0387,2.0734,2.1333,2.2089,2.1895,2.216,0.0,0.0,0.0,0.0,0.0,2.4526,2.4837,0.0,0.0,2.361,2.361,2.3471,0.0,2.352,2.3617,2.3622,2.3604,2.3606,2.3633,2.3604,2.4077,0.0,0.0,0.0,2.7051,2.6153,0.0,0.0,0.0,0.0,0.0,0.0,0.0,0.0,0.0,0.0,0.0,0.0,0.0,0.0,0.0,0.0,0.0,0.0,0.0,0.0,0.0,0.0,0.0,0.0,0.0,0.0,0.0,3.2018,3.3455,3.4787,3.5925,3.6776,3.7404,3.8063,3.8751,3.9391,3.9391,3.9391,3.9421,3.984,4.0546,4.1433,4.1852,4.2521,4.329,4.329,4.3967,4.4975,4.5214,4.5992,4.701,4.7219,4.7309,4.7339,1.2844,0.0,0.0,0.0,0.0,0.0,0.0,0.0,0.0,0.0,2.0722,0.0,2.2336,0.0,2.192,0.0,2.084,2.0313,2.0125,1.9786,0.0,1.9033,1.9183,0.0,0.0,0.0,1.9451,1.9555,2.038,2.0957,2.1332,2.1864,2.2452,2.3035,2.2839,2.2878,2.3119,2.306,2.3231,0.0,0.0,2.4634,0.0,0.0,2.4257,2.4638,0.0,2.4298,2.4298,2.4298,2.4586,2.4874,2.4436,2.4616,2.4874,2.4436,2.4807,2.5393,2.5854,2.6465,0.0,2.6674,2.5944,0.0,2.4167,0.0,0.0,0.0,0.0,0.0,0.0,0.0,0.0,0.0,0.0,0.0,0.0,2.0088,0.0,0.0,0.0,0.0,0.0,0.0,0.0,0.0,0.0,0.0,0.0,0.0,3.2527,3.4099,3.5895,3.7015,3.7387,3.8302,3.8973,3.9391,3.9391,3.9391,3.9421,3.984,4.0546,4.1433,4.1852,4.2521,4.3339,4.3579,4.4317,4.5304,4.5574,4.6352,4.7309,4.7309,4.7309,4.7339,0.0,0.0,0.0,0.0,1.53,0.0,0.0,0.0,2.0743,0.0,2.2254,2.3487,2.4129,2.37,2.3356,2.3306,2.2326,0.0,2.0923,2.0849,0.0,0.0,1.9674,1.967,1.9125,0.0,0.0,0.0,2.1879,2.2443,2.2462,2.3001,2.3617,2.4237,2.3732,0.0,2.4369,2.3856,2.364,2.364,2.3699,2.4107,2.4743,2.4724,2.5543,2.6602,2.5854,2.5603,2.5603,2.5603,2.5603,2.5603,2.5603,2.5603,2.5603,2.5603,2.6063,2.6614,2.6614,2.7106,2.7435,2.6764,0.0,0.0,0.0,0.0,2.6213,0.0,0.0,0.0,0.0,0.0,0.0,0.0,0.0,0.0,0.0,0.0,0.0,0.0,0.0,0.0,0.0,0.0,0.0,0.0,0.0,0.0,0.0,0.0,3.145,3.3395,3.6028,3.7387,3.7387,3.8733,3.9391,3.9391,3.9391,3.9391,3.9391,3.9481,4.0187,4.1403,4.1463,4.2192,4.3349,4.4027,4.4706,4.5364,4.6031,4.6719,4.7309,4.7309,4.7309,4.7399,1.2961,1.395,1.4997,0.0,1.6052,1.6846,0.0,0.0,0.0,0.0,2.4562,2.5783,2.6973,2.6969,2.6713,2.6267,2.5141,0.0,0.0,0.0,0.0,2.1156,2.1653,2.1476,2.0418,2.1434,0.0,2.0702,0.0,2.3148,2.3167,2.3705,2.4287,2.4936,2.4894,2.472,2.439,2.4349,2.4335,2.4395,2.4885,2.5794,0.0,0.0,2.6931,2.7859,2.6201,2.5603,2.5603,2.5603,2.5603,2.5603,2.5603,2.5603,2.5603,2.5603,2.6063,2.6614,2.6614,2.7106,2.7435,2.6764,2.6213,2.5764,0.0,0.0,0.0,0.0,0.0,0.0,0.0,0.0,0.0,0.0,0.0,0.0,0.0,0.0,0.0,2.1365,0.0,0.0,0.0,0.0,0.0,0.0,0.0,0.0,0.0,0.0,0.0,3.2721,3.5772,3.7387,3.7387,3.8733,3.9391,3.9391,3.9391,3.9391,3.9421,4.0427,4.1074,4.1463,4.2382,4.301,4.3349,4.4027,4.4706,4.5364,4.6031,4.6719,4.7309,4.7309,4.7309,4.7399,1.3962,0.0,0.0,1.7676,0.0,0.0,2.0231,0.0,0.0,2.5012,2.6502,0.0,2.806,2.8389,2.8352,2.7757,2.6827,0.0,2.5303,0.0,0.0,2.3039,2.3073,2.2679,2.1705,2.2111,0.0,2.1572,0.0,2.3785,2.383,2.4612,2.494,2.4873,2.5238,2.5056,2.4536,2.5152,2.5435,2.5465,2.583,0.0,0.0,2.6844,2.7243,2.8021,2.6884,2.6452,2.6452,2.6452,2.6452,2.6452,2.6452,2.6452,2.6452,2.6452,2.6734,2.7046,2.7046,2.7315,2.7495,2.7123,2.6764,2.6393,2.6093,2.6093,2.5944,0.0,0.0,0.0,0.0,0.0,0.0,0.0,0.0,0.0,0.0,0.0,0.0,0.0,2.1455,0.0,0.0,0.0,0.0,0.0,0.0,0.0,0.0,0.0,0.0,3.2019,3.5533,3.7387,3.7387,3.9002,3.969,3.9391,3.9391,3.9541,3.984,4.0606,4.1283,4.1882,4.2581,4.304,4.3349,4.4326,4.4975,4.5394,4.6381,4.698,4.7309,4.7309,4.7309,4.7429,1.5668,0.0,0.0,0.0,0.0,0.0,0.0,2.4077,0.0,2.6787,0.0,2.9235,2.8768,2.9212,2.9345,2.8825,0.0,2.7465,2.6846,2.6805,2.6274,2.5062,2.4494,2.3854,2.3097,2.2549,0.0,0.0,0.0,0.0,2.4689,2.5605,2.5538,2.4699,2.5295,2.5316,0.0,2.6041,2.6523,2.6523,2.6615,2.6986,2.7473,2.6922,2.7106,2.7597,2.7685,2.771,2.7698,2.7623,2.7648,2.7698,2.761,2.7585,2.7585,2.7585,2.7585,2.7585,2.7585,2.7585,2.7585,2.7495,2.7465,2.7315,2.6734,2.6153,2.5734,2.5734,2.4747,2.4059,0.0,0.0,0.0,0.0,0.0,0.0,0.0,0.0,0.0,0.0,0.0,0.0,0.0,0.0,0.0,0.0,0.0,0.0,0.0,0.0,0.0,3.1481,3.5264,3.7375,3.7524,0.0,4.0019,3.9541,3.9541,3.984,4.0397,4.0576,4.1313,4.241,4.25,4.2821,4.3379,4.4766,4.5394,4.5663,4.683,4.7309,4.7309,4.7309,4.7369,4.7608,0.0,0.0,0.0,0.0,0.0,2.5945,2.7926,2.8354,2.8764,2.9735,3.0898,3.1861,3.2474,3.2151,3.1871,3.1752,3.0629,0.0,0.0,0.0,0.0,2.7752,2.7192,2.6327,2.5123,2.445,2.39,0.0,0.0,0.0,2.605,2.6111,2.6134,2.6048,2.6278,2.6339,2.6255,2.6495,0.0,2.6633,2.7188,2.7489,2.7567,2.7485,2.7495,2.766,2.8149,2.8331,2.8259,2.776,2.7934,2.8247,2.776,2.7585,2.7585,2.7585,2.7585,2.7585,2.7585,2.7585,2.7465,2.6914,2.6764,2.6734,2.6644,2.6524,2.6422,2.6422,2.5794,2.5285,2.5393,0.0,0.0,0.0,0.0,0.0,0.0,0.0,0.0,0.0,0.0,0.0,0.0,0.0,0.0,0.0,0.0,0.0,0.0,0.0,0.0,0.0,3.4845,0.0,0.0,0.0,3.978,4.0217,4.0217,4.0277,4.0427,4.1553,4.2171,4.244,4.294,4.322,4.3379,4.4766,4.5933,4.698,4.7219,4.7309,4.7309,4.7309,4.7638,4.8259,0.0,0.0,0.0,0.0,0.0,0.0,0.0,3.1874,0.0,3.1662,3.2355,3.2904,3.296,3.3006,3.2886,3.2512,3.1585,3.0725,3.0027,3.0042,2.9905,2.9566,2.8935,0.0,2.6658,2.5626,2.475,2.4137,0.0,0.0,2.6001,2.6201,2.6189,2.6009,2.6435,2.6794,0.0,0.0,0.0,2.7625,2.793,2.8082,2.8015,2.771,2.7585,2.7683,2.8316,2.8977,2.9434,2.8759,2.8523,2.8501,2.8578,2.8362,2.8201,2.8543,2.8393,2.8201,2.853,2.8124,2.7615,2.7632,2.7619,2.7542,2.7183,2.7136,2.7003,2.6674,2.6063,2.5603,2.5603,2.5053,0.0,0.0,0.0,0.0,0.0,0.0,0.0,0.0,0.0,0.0,0.0,0.0,0.0,0.0,0.0,0.0,0.0,0.0,0.0,0.0,0.0,0.0,0.0,0.0,0.0,3.9888,4.0247,4.0576,4.0954,4.1961,4.2571,4.288,4.316,4.3519,4.3938,4.5254,4.6411,4.7309,4.7309,4.7309,4.7339,4.7698,4.8259,4.8858,0.0,2.47,0.0,0.0,2.9425,0.0,3.2608,3.4346,3.4935,3.3349,3.3604,3.3724,3.32,3.3484,3.3501,3.299,3.2477,3.1945,3.1431,3.1384,3.1413,3.1461,3.0623,2.956,2.8246,2.6849,2.5775,0.0,0.0,0.0,0.0,2.6375,2.6402,0.0,0.0,0.0,0.0,0.0,2.8688,2.8933,2.8787,2.8744,2.8695,2.8195,2.8034,2.8132,2.8927,2.9757,3.0441,3.0149,2.9541,2.8977,2.9397,2.9095,2.8727,2.9398,2.9219,2.8949,2.9458,2.8843,2.8154,2.868,2.8816,2.8667,2.8154,2.7914,2.7675,2.7123,2.6482,2.5944,2.5633,2.5393,0.0,0.0,0.0,0.0,0.0,0.0,0.0,0.0,0.0,0.0,0.0,0.0,0.0,0.0,0.0,0.0,0.0,0.0,0.0,0.0,0.0,3.6716,3.7614,0.0,3.9918,3.984,4.0367,4.0954,4.1643,4.2301,4.2851,4.329,4.329,4.3758,4.4616,4.5822,4.6689,4.7309,4.7309,4.7309,4.7369,4.8027,4.8708,4.9307,0.0,0.0,0.0,0.0,0.0,0.0,3.4089,3.4978,3.5429,3.5234,3.528,3.528,3.522,3.4727,3.4377,3.4336,3.4374,3.4362,3.4308,3.4317,3.4311,3.4326,3.3016,3.1654,3.027,2.8975,2.765,0.0,0.0,0.0,0.0,0.0,0.0,0.0,0.0,0.0,0.0,2.8819,2.9281,3.0352,2.9741,2.9492,2.9492,2.9425,2.9398,2.9572,3.0804,3.0903,3.0673,3.1739,3.1308,3.0228,2.975,2.9139,2.8727,2.9398,2.9562,2.9518,2.9578,2.9502,2.9442,2.9488,2.9518,2.9488,2.9442,2.8949,2.8487,2.8427,2.7872,2.7046,2.5812,2.6554,2.7136,0.0,0.0,0.0,0.0,0.0,0.0,0.0,0.0,0.0,0.0,2.358,0.0,0.0,0.0,0.0,0.0,0.0,0.0,3.1451,0.0,3.6477,3.829,3.8482,3.9487,4.1224,4.1283,4.1643,4.2321,4.294,4.325,4.329,4.329,4.4027,4.5274,4.6001,4.6689,4.7309,4.7309,4.7309,4.7369,4.8027,4.8708,4.9366,0.0,0.0,0.0,0.0,0.0,0.0,0.0,3.5982,3.6337,3.683,3.6461,3.6149,3.6149,3.5981,3.5864,3.5883,3.5152,3.4705,3.4712,3.4309,3.422,3.4626,3.3693,3.2718,3.1765,3.0041,2.8689,0.0,0.0,0.0,0.0,0.0,0.0,0.0,0.0,2.9867,3.0783,3.0521,3.0728,3.117,3.0917,3.0804,3.0804,3.0804,3.0804,3.093,3.1831,3.1991,3.183,3.2349,3.1621,3.0504,3.0641,3.025,2.9864,3.0538,3.0462,3.0223,3.0628,3.0193,2.9698,3.0057,3.0133,3.0057,2.9668,2.9668,2.9535,2.8757,2.8081,2.7435,2.6884,2.6914,2.7033,0.0,0.0,0.0,0.0,0.0,0.0,0.0,0.0,0.0,0.0,0.0,0.0,0.0,0.0,0.0,0.0,0.0,0.0,3.1451,0.0,3.5818,3.7793,3.8601,3.9619,4.0816,4.1613,4.2141,4.241,4.301,4.3499,4.3938,4.4326,4.5014,4.5942,4.66,4.7048,4.7309,4.7309,4.7309,4.7429,4.8498,4.9067,4.9426,3.1338,0.0,3.1614,0.0,3.3753,3.4309,3.6292,3.6798,3.7144,3.7735,3.7499,3.7172,3.6979,3.704,3.7098,3.7081,3.6397,3.594,3.5968,3.5478,3.5399,3.5886,3.4766,0.0,3.3203,3.1156,2.9596,2.8563,2.8104,0.0,0.0,0.0,0.0,0.0,3.0644,3.1335,3.219,3.1987,3.214,3.2445,3.2253,3.2212,3.2212,3.2212,3.2212,3.23,3.2954,3.2918,3.2647,3.3063,3.2119,3.0869,3.1301,3.1017,3.0628,3.1301,3.1152,3.0897,3.1361,3.0837,3.0253,3.0687,3.0777,3.0687,3.0253,3.0342,3.0133,2.8876,2.8231,2.7824,2.7645,2.7225,2.7033,2.7525,0.0,0.0,0.0,0.0,0.0,0.0,2.5872,2.5824,2.5633,0.0,0.0,0.0,0.0,0.0,0.0,0.0,0.0,0.0,0.0,0.0,0.0,3.8823,3.993,4.1014,4.1961,4.262,4.299,4.3599,4.4027,4.4356,4.5214,4.5852,4.636,4.7018,4.7309,4.7309,4.7309,4.7429,4.7728,4.8887,4.9396,4.9703,3.2881,3.3161,3.3656,3.5207,3.6071,3.6569,3.6584,3.7263,3.7793,3.7807,3.8428,3.8594,3.7879,3.7807,3.7804,3.7801,3.8439,3.8891,3.8943,3.8959,3.8925,0.0,0.0,3.5341,3.4583,3.2584,3.0582,2.8499,0.0,0.0,2.6656,0.0,3.03,3.1582,3.1582,3.2337,3.3551,3.2854,3.336,3.4511,3.3858,3.3579,3.3579,3.3579,3.3579,3.3668,3.4341,3.3719,3.2815,3.412,3.3203,3.1495,3.1495,3.1046,3.0628,3.1301,3.1481,3.1481,3.1511,3.1481,3.1481,3.1481,3.1481,3.1481,3.1481,3.0987,3.0133,2.8876,2.8577,2.8397,2.7735,2.7585,2.7585,2.7585,0.0,0.0,0.0,0.0,0.0,0.0,2.6584,2.6345,2.5663,0.0,0.0,0.0,0.0,0.0,0.0,0.0,0.0,3.2452,3.4426,0.0,3.838,3.9062,4.0397,4.2381,4.2381,4.305,4.4296,4.4975,4.4915,4.4356,4.5702,4.63,4.636,4.7018,4.7309,4.7309,4.7309,4.7698,4.8379,4.9037,4.9673,5.0285,3.4463,3.5167,3.5687,3.6151,3.6905,3.7587,3.8086,3.84,3.8731,3.9309,3.9571,3.9623,3.9401,3.9375,3.9367,0.0,3.9118,3.8984,0.0,3.8531,3.8261,3.8261,3.7102,3.6323,3.61,3.3587,3.2185,3.1969,0.0,0.0,0.0,3.1754,3.2526,3.2969,3.3393,3.4085,3.4936,3.4741,3.4898,3.527,3.504,3.4958,3.4958,3.4958,3.4958,3.4993,3.5224,3.47,3.4008,3.4471,3.3858,3.2931,3.2931,3.247,3.1982,3.2182,3.2571,3.2824,3.2382,3.2244,3.2118,3.164,3.1511,3.1511,3.1511,3.0987,3.0372,2.9983,2.9564,2.9219,2.8992,2.859,2.844,2.8903,2.8214,0.0,0.0,0.0,0.0,0.0,2.7949,2.7889,0.0,2.7649,0.0,0.0,0.0,0.0,0.0,0.0,0.0,0.0,3.513,0.0,3.9062,4.0187,4.1313,4.241,4.3289,4.4137,4.4975,4.5185,4.5424,4.5702,4.6121,4.657,4.6988,4.7219,4.7309,4.7309,4.7309,4.7698,4.8379,4.9037,4.9673,5.0285,3.5725,3.6523,3.7039,3.7039,3.7703,3.8372,3.8827,3.9169,3.9545,4.0016,4.0113,4.0113,4.0113,4.0113,0.0,4.0113,3.966,3.9423,3.9423,3.8983,3.8734,3.8734,3.7785,3.7126,3.6824,0.0,0.0,3.3235,3.2137,3.2063,3.2995,3.3353,3.3832,3.4351,3.4723,3.5171,3.56,3.56,3.56,3.56,3.56,3.56,3.56,3.56,3.56,3.56,3.56,3.5156,3.464,3.4878,3.4538,3.4047,3.4303,3.4304,3.407,3.3536,3.3699,3.3981,3.3855,3.3796,3.3605,3.2882,3.2513,3.2184,3.1643,3.1182,3.0807,3.0538,3.0193,2.9877,2.9638,2.9249,2.9129,2.9518,2.8693,2.8111,2.8547,0.0,0.0,0.0,0.0,0.0,0.0,2.9175,2.9475,0.0,0.0,0.0,0.0,0.0,0.0,3.4203,3.6194,0.0,3.975,4.1104,4.2211,4.314,4.4436,4.5134,4.5304,4.5813,4.6142,4.63,4.657,4.6899,4.7309,4.7309,4.7309,4.7309,4.7309,4.7848,4.8738,4.9157,4.9823,5.0637,3.6676,3.7322,3.7894,0.0,3.8483,0.0,3.8975,3.9623,4.0113,4.0113,4.0113,4.0113,4.0113,4.0113,4.0113,4.0113,0.0,0.0,0.0,4.0113,4.0113,4.0113,3.8813,3.7713,3.6973,3.5539,3.413,3.2839,3.2237,3.2615,3.3887,3.3788,3.4429,3.5667,3.5667,3.5633,3.56,3.5701,3.5735,3.5667,3.5667,3.5701,3.5735,3.5712,3.5712,3.5769,3.5769,3.5358,3.4937,3.5553,3.5388,3.502,3.5646,3.6319,3.6602,3.5253,3.4876,3.5063,3.5621,3.5827,3.5664,3.4832,3.4089,3.327,3.1938,3.157,3.1331,3.0747,3.0642,3.0462,2.9847,2.9728,2.9728,2.9728,2.9116,2.8697,2.8727,0.0,0.0,0.0,0.0,0.0,0.0,3.0253,3.0582,0.0,0.0,0.0,0.0,0.0,3.3708,3.5579,3.7524,3.917,4.0516,4.1852,4.3169,4.4446,4.5702,4.6001,4.5484,4.6741,4.6958,4.639,4.704,4.7309,4.7309,4.7309,4.7309,4.7309,4.7309,4.8117,4.9277,4.9277,5.0115,5.1206,0.0,0.0,3.8635,3.8635,3.9289,3.9825,3.9825,3.9978,4.0113,4.0113,4.0113,4.0113,4.0113,4.0113,4.0113,4.0113,4.0113,4.0113,4.0113,4.0113,4.0113,4.0113,3.9252,3.866,3.8492,3.6489,3.5303,3.4955,3.5378,3.6031,3.6855,3.5699,3.5633,3.6513,3.6513,3.6163,3.5667,3.6862,3.7043,3.6513,3.6513,3.684,3.7302,3.675,3.6874,3.7369,3.7369,3.7241,3.7158,3.7288,3.7247,3.7175,3.7321,3.7504,3.7449,3.6582,3.67,3.6929,3.5969,3.6135,3.6135,3.4251,3.3276,3.2839,3.2991,3.2228,3.16,3.1944,3.2033,3.1824,3.1152,3.1032,3.1032,3.1032,3.0103,2.9518,2.9983,3.0043,0.0,0.0,3.1405,3.1794,3.1794,3.1495,3.1271,0.0,0.0,0.0,0.0,3.516,3.6477,3.6956,3.8901,4.0565,4.1912,4.321,4.4526,4.5822,4.6151,4.648,4.683,4.716,4.7219,4.7048,4.7249,4.7309,4.7309,4.7309,4.7309,4.7309,4.7309,4.8117,4.9277,4.9277,5.0115,5.1206,3.8302,3.8927,3.9434,3.9434,3.9825,4.0113,4.0113,4.0113,4.0113,4.0113,4.0113,4.0113,4.0113,4.0113,4.0113,4.0113,4.0113,4.0113,4.0113,4.0113,4.0113,4.0113,3.9728,3.9356,3.9017,3.7809,3.6889,3.6209,3.6958,3.7359,3.7393,3.6896,3.6705,3.6829,3.7156,3.6874,3.6231,3.7403,3.7686,3.7291,3.7291,3.755,3.7855,3.7449,3.755,3.791,3.791,3.791,3.791,3.791,3.8125,3.8396,3.8396,3.8633,3.8842,3.8418,3.8341,3.8317,3.7832,3.7742,3.7226,3.5025,3.3925,3.3425,3.3484,3.2946,3.2512,3.2871,3.2976,3.2841,3.2482,3.2153,3.1959,3.1959,3.0867,3.0133,3.0462,3.0747,0.0,3.1451,3.2362,3.2976,3.2976,3.2916,3.2751,3.2452,0.0,0.0,3.4831,3.7075,3.8165,3.7853,4.0378,4.2073,4.2791,4.4416,4.5583,4.63,4.66,4.6929,4.7309,4.7309,4.7309,4.7309,4.7309,4.7309,4.7309,4.7309,4.7309,4.7339,4.7638,4.8409,4.9307,4.9613,5.0361,5.1206,3.9069,3.9636,4.0113,4.0113,4.0113,4.0113,4.0113,4.0113,4.0113,4.0113,4.0214,4.0269,4.0269,4.0269,4.0269,4.0269,4.018,4.0113,4.0113,4.0113,4.0113,4.0113,4.0113,3.9808,3.9186,3.9186,3.851,3.7122,3.7753,3.7787,3.7303,3.7719,3.7618,3.7168,3.7787,3.7652,3.7021,3.7855,3.8159,3.8058,3.8058,3.8113,3.8227,3.8125,3.8159,3.8227,3.8227,3.8227,3.8227,3.8227,3.8633,3.9186,3.9186,3.9592,4.0113,4.0113,3.966,3.9263,3.9771,3.9249,3.814,3.636,3.5202,3.4384,3.3903,3.3649,3.3514,3.3649,3.3649,3.3604,3.353,3.3036,3.2632,3.2632,3.1539,3.0731,3.0911,0.0,3.1869,3.2079,3.3215,3.3993,3.4083,3.4518,3.4607,3.4113,3.5669,3.6673,3.6793,3.8751,3.9589,3.9008,4.1784,4.3439,4.3758,4.5463,4.636,4.645,4.704,4.7309,4.7309,4.7309,4.7369,4.7459,4.7339,4.7429,4.7608,4.7489,4.7519,4.7668,4.8229,4.8858,4.9516,5.0009,5.0637,5.1206,3.9914,4.0003,4.0113,4.0113,4.0113,4.0113,4.0113,4.0113,4.0113,4.0113,4.0629,4.1035,4.1035,4.1035,4.1035,4.1035,4.0472,4.0113,4.0113,4.0113,4.0113,4.0113,4.0113,4.0045,3.9943,3.9943,3.9491,3.8679,3.8768,3.9085,3.9571,3.843,3.8159,3.8679,3.878,3.843,3.7821,3.9186,3.9389,3.8836,3.8836,3.9186,3.9694,3.9085,3.922,3.9774,3.9774,3.9774,3.9774,3.9774,3.9829,3.9943,3.9943,4.0011,4.0113,4.0113,4.0011,3.9817,3.9242,3.8044,3.7038,3.7372,3.5966,3.4607,3.507,3.4322,3.3664,3.4218,3.4338,3.4158,3.3604,3.3395,3.3335,3.3335,3.2213,3.172,3.2886,0.0,3.3604,3.4725,3.5549,3.6237,3.6746,3.6434,3.6374,3.6776,3.7075,3.7494,3.8063,4.0535,4.1901,4.1782,4.2771,4.4117,4.5822,4.6151,4.657,4.716,4.7249,4.7309,4.7309,4.7309,4.7608,4.8087,4.7549,4.7938,4.8947,4.8379,4.8468,4.9007,4.9097,4.9523,5.0069,5.0166,5.0637,5.1265,4.0113,4.0113,4.0113,4.0113,4.0113,4.0235,4.0641,4.0696,4.0844,4.1217,4.1589,4.1779,4.1779,4.1779,4.1779,4.1779,4.1102,4.0696,4.0696,4.0303,4.0113,4.0113,4.0113,4.0113,4.0113,4.0113,3.974,3.9017,3.9389,3.9559,3.9491,3.922,3.9051,3.9017,3.9423,3.9186,3.8565,3.9626,3.991,3.9592,3.9592,3.9808,4.0079,3.9728,3.9795,4.0113,4.0113,4.0113,4.0113,4.0113,4.0113,4.0113,4.0113,4.0113,4.0113,4.0113,4.0113,3.9927,3.9129,3.8072,3.7218,3.7159,3.6076,3.513,3.5429,3.5011,3.4681,3.4951,3.5056,3.4951,3.4622,3.4262,3.4039,3.4039,3.3215,0.0,0.0,3.3829,3.4382,3.54,3.6088,3.6883,3.7853,3.7674,3.7793,3.8434,3.8811,3.9469,4.0505,4.2062,4.3409,4.4466,4.4775,4.5523,4.6809,4.6839,4.6988,4.7309,4.7309,4.7489,4.7848,4.7848,4.8199,4.8828,4.8528,4.8738,4.9299,4.8977,4.9007,4.9307,4.9643,4.9949,5.0285,5.0996,5.1475,5.1828,4.0113,4.0113,4.0113,4.0113,4.0235,4.054,4.1102,4.1339,4.1644,4.2232,4.2469,4.2557,4.2557,4.2557,4.2557,4.2557,4.188,4.1373,4.1191,4.0675,4.0282,4.0113,4.0113,4.0113,4.0113,4.0113,3.9829,3.9254,3.9829,3.9808,3.9288,3.9829,3.9795,3.9288,3.9842,3.9795,3.9288,3.9863,4.0113,4.0113,4.0113,4.0113,4.0113,4.0113,4.0113,4.0113,4.0113,4.0113,4.0113,4.0113,4.0113,4.0113,4.0113,4.0113,4.0113,4.0113,4.0113,3.9965,3.9342,3.8497,3.7662,3.7024,3.6165,3.5519,3.5519,3.5519,3.5533,3.5699,3.5609,3.5609,3.5908,3.5146,3.4607,3.4907,0.0,0.0,0.0,3.4518,3.5146,3.6267,3.6866,3.7674,3.8978,3.9098,3.9397,4.0038,4.0726,4.1594,4.278,4.3629,4.4825,4.648,4.654,4.6779,4.7309,4.7309,4.7309,4.7309,4.7459,4.7788,4.8319,4.8468,4.8887,4.9516,4.9366,4.9456,4.9726,4.9576,4.9606,4.9786,5.0249,5.0548,5.0787,5.1828,5.2306,5.2516,4.0113,4.0113,4.0113,4.0113,4.0675,4.1136,4.1204,4.1779,4.2232,4.23,4.2882,4.3321,4.3321,4.3321,4.3321,4.3321,4.2625,4.1914,4.1238,4.117,4.0798,4.0146,4.0113,4.0113,4.0113,4.0113,4.0079,4.0011,4.0079,4.0079,4.0011,4.0079,4.0079,4.0011,4.0079,4.0079,4.0011,4.0079,4.0113,4.0113,4.0113,4.0113,4.0113,4.0113,4.0113,4.0113,4.0113,4.0113,4.0113,4.0113,4.0113,4.0113,4.0113,4.0113,4.0113,4.0113,4.0113,4.01,4.0016,3.8927,3.7793,3.7735,3.66,3.5519,3.5519,3.5519,3.5669,3.6314,3.5938,3.5878,3.7028,3.5745,3.4907,3.6164,0.0,0.0,3.6014,3.5789,3.634,3.8823,3.9152,3.969,4.1044,4.1194,4.1463,4.2141,4.281,4.3479,4.4137,4.5373,4.642,4.7219,4.7249,4.7249,4.7309,4.7309,4.7309,4.7309,4.7908,4.8259,4.8319,4.8947,4.9553,5.0099,4.9546,4.9965,5.0996,5.0398,5.0518,5.1056,5.1116,5.1528,5.2067,5.2157,5.2576,5.3228,4.0113,4.0113,4.0235,4.0709,4.1136,4.1711,4.2442,4.2814,4.3166,4.3653,4.3958,4.4147,4.4147,4.4147,4.4147,4.4147,4.3436,4.2848,4.2577,4.2151,4.1352,4.0146,4.0113,4.0113,4.0113,4.0113,4.0113,4.0113,4.0113,4.0113,4.0113,4.0113,4.0113,4.0113,4.0113,4.0113,4.0113,4.0113,4.0113,4.0113,4.0113,4.0113,4.0113,4.0113,4.0113,4.0113,4.0113,4.0113,4.0113,4.0113,4.0113,4.0113,4.0113,4.0405,4.0878,4.1318,4.1454,4.1454,4.1454,3.9976,3.8513,3.9006,3.7885,3.6686,3.6686,3.6686,3.6746,3.7015,3.6866,3.6836,3.7315,3.6806,3.6477,3.6985,0.0,3.6823,3.7571,3.7823,3.8434,3.984,4.0019,4.0546,4.1901,4.2342,4.288,4.3509,4.4197,4.4855,4.5493,4.642,4.704,4.7309,4.7309,4.7309,4.7309,4.7309,4.7519,4.7908,4.8199,4.8716,4.9471,4.974,5.0189,5.0817,5.0571,5.075,5.1176,5.0936,5.0966,5.1236,5.1678,5.1977,5.2306,5.3144,5.3593,5.3922,4.0438,4.0641,4.0946,4.1441,4.188,4.2442,4.3288,4.3626,4.3978,4.4547,4.4615,4.4615,4.4615,4.4615,4.4615,4.4615,4.4079,4.366,4.3423,4.2726,4.1758,4.0506,4.0202,4.0113,4.0113,4.0113,4.0113,4.0113,4.0113,4.0113,4.0113,4.0113,4.0113,4.0113,4.0113,4.0113,4.0113,4.0113,4.0113,4.0113,4.0113,4.0113,4.0113,4.0113,4.0113,4.0113,4.0113,4.0113,4.0146,4.0371,4.0438,4.0472,4.0709,4.1149,4.1644,4.2151,4.23,4.2367,4.2591,4.1432,4.0232,4.0276,3.9062,3.7815,3.7815,3.7609,3.7524,3.7926,3.7853,3.7913,3.8542,3.8302,3.8105,3.8302,3.8542,3.8781,3.899,3.9439,4.0038,4.0905,4.1205,4.1743,4.29,4.3569,4.4207,4.4865,4.5364,4.5933,4.657,4.707,4.7309,4.7309,4.7309,4.7399,4.7608,4.7608,4.7848,4.8319,4.8716,4.9351,5.0196,5.0428,5.0757,5.1206,5.1206,5.1206,5.1206,5.1206,5.1325,5.1535,5.2037,5.2456,5.2935,5.3862,5.4341,5.4581,4.1204,4.1813,4.23,4.23,4.2916,4.3389,4.3423,4.4079,4.4615,4.4615,4.4615,4.4615,4.4615,4.4615,4.4615,4.4615,4.4615,4.4262,4.3457,4.2726,4.1982,4.1271,4.0506,4.0113,4.0113,4.0113,4.0113,4.0113,4.0113,4.0113,4.0113,4.0113,4.0113,4.0113,4.0113,4.0113,4.0113,4.0113,4.0113,4.0113,4.0113,4.0113,4.0113,4.0113,4.0113,4.0113,4.0113,4.0113,4.0248,4.0967,4.1204,4.1339,4.2083,4.23,4.2333,4.2333,4.2333,4.2489,4.322,4.338,4.3008,4.1568,3.9979,3.8724,3.8724,3.808,3.7806,3.9152,3.8901,3.9038,4.1044,4.0307,3.9631,4.0307,3.984,3.966,4.0337,4.0427,4.0924,4.2261,4.294,4.3579,4.4237,4.4915,4.5574,4.6241,4.63,4.66,4.7279,4.7309,4.7309,4.7309,4.7309,4.7638,4.8319,4.8319,4.8319,4.8349,4.9591,5.0196,5.0226,5.0907,5.1206,5.1206,5.1206,5.1206,5.1206,5.1206,5.1618,5.2217,5.2217,5.3025,5.4221,5.4221,5.464,5.5179,4.188,4.2151,4.2455,4.2997,4.3254,4.3592,4.4147,4.4432,4.4615,4.4615,4.4615,4.4615,4.4615,4.4615,4.4615,4.4615,4.4615,4.4499,4.4262,4.3504,4.2983,4.2746,4.1542,4.0865,4.0865,4.0371,4.0113,4.0113,4.0113,4.0113,4.0113,4.0113,4.0113,4.0113,4.0641,4.0574,4.018,4.1183,4.1352,4.0933,4.1454,4.1623,4.1623,4.1623,4.1623,4.1623,4.1623,4.1623,4.169,4.1894,4.1982,4.2083,4.2848,4.347,4.4025,4.4519,4.506,4.5514,4.5737,4.578,4.5384,4.3833,4.2494,4.1579,4.1579,4.087,4.0325,4.0696,4.0655,4.0685,4.1283,4.1074,4.0876,4.1074,4.1343,4.1713,4.2352,4.2831,4.3449,4.4337,4.4586,4.4796,4.4975,4.5633,4.6091,4.63,4.6719,4.71,4.7309,4.7758,4.7997,4.7997,4.8468,4.8798,4.9007,4.8528,4.8745,4.965,5.0039,5.0458,5.0907,5.1116,5.1206,5.1206,5.1206,5.1468,5.1887,5.1385,5.1887,5.2899,5.2899,5.3414,5.4281,5.473,5.5029,5.5179,4.2658,4.2997,4.3349,4.3809,4.3876,4.4045,4.4547,4.4615,4.4615,4.4615,4.4615,4.4615,4.4615,4.4615,4.4615,4.4615,4.4615,4.4615,4.4615,4.4147,4.3876,4.3876,4.2713,4.1935,4.1644,4.1217,4.098,4.098,4.098,4.098,4.098,4.098,4.098,4.098,4.1454,4.1386,4.1014,4.1927,4.2049,4.1677,4.213,4.23,4.23,4.23,4.23,4.23,4.23,4.23,4.232,4.2625,4.3132,4.3707,4.4167,4.4857,4.5548,4.6007,4.6447,4.68,4.68,4.7022,4.702,4.6049,4.4545,4.3305,4.3305,4.2315,4.1463,4.1733,4.1792,4.1882,4.2102,4.2162,4.2252,4.2491,4.29,4.3379,4.3997,4.4436,4.4855,4.5244,4.5544,4.5693,4.5693,4.63,4.6689,4.6689,4.7309,4.7698,4.7698,4.8349,4.8708,4.8708,4.9097,4.9396,4.9643,4.9254,4.9441,5.0196,5.0465,5.0817,5.1206,5.1206,5.1325,5.1618,5.1618,5.1977,5.2546,5.2157,5.2636,5.3593,5.3593,5.4012,5.464,5.5029,5.5179,5.5179,4.349,4.4079,4.4615,4.4615,4.4615,4.4615,4.4615,4.4615,4.4615,4.4615,4.4615,4.4615,4.4615,4.4615,4.4615,4.4615,4.4615,4.4615,4.4615,4.4615,4.4615,4.4615,4.391,4.32,4.2536,4.2367,4.23,4.23,4.23,4.23,4.23,4.23,4.23,4.23,4.2367,4.2367,4.23,4.2435,4.2455,4.2388,4.2469,4.2503,4.2503,4.2503,4.2536,4.2591,4.2591,4.2638,4.2794,4.349,4.464,4.5805,4.5805,4.6312,4.6902,4.6902,4.6921,4.6989,4.6989,4.7496,4.7988,4.7988,4.6123,4.4285,4.4285,4.2868,4.1733,4.2331,4.253,4.275,4.328,4.3459,4.3698,4.4296,4.4386,4.4616,4.5304,4.5394,4.5394,4.5454,4.6001,4.639,4.639,4.6929,4.7309,4.7309,4.7908,4.8319,4.8319,4.8977,4.9366,4.9366,4.9486,4.9823,5.0375,5.0398,5.0345,5.0285,5.0907,5.1206,5.1206,5.1265,5.1594,5.2187,5.2247,5.2665,5.3288,5.3228,5.3623,5.4281,5.4221,5.461,5.5179,5.5179,5.5179,5.5209,4.4228,4.4465,4.4615,4.4615,4.4615,4.4615,4.4615,4.4615,4.4615,4.4615,4.4615,4.4615,4.4615,4.4615,4.4615,4.4615,4.4615,4.4615,4.4615,4.4615,4.4615,4.4615,4.4432,4.4262,4.4093,4.2909,4.23,4.23,4.23,4.23,4.23,4.23,4.23,4.2333,4.2895,4.2828,4.2367,4.3586,4.3741,4.322,4.3856,4.4093,4.4093,4.4093,4.4465,4.4959,4.4959,4.5331,4.5853,4.6007,4.6278,4.6549,4.6549,4.7056,4.765,4.765,4.8071,4.8511,4.8511,4.8646,4.8766,4.8766,4.7243,4.5743,4.5743,4.426,4.2921,4.307,4.3519,4.3928,4.4057,4.4506,4.4915,4.5065,4.5095,4.5334,4.5971,4.6061,4.6271,4.68,4.701,4.7078,4.7078,4.7219,4.7309,4.7309,4.7908,4.8319,4.8319,4.9381,5.0009,5.0009,5.102,5.1618,5.1768,5.1768,5.1475,5.0996,5.1116,5.1206,5.1206,5.1714,5.2067,5.2217,5.2779,5.3354,5.3952,5.3438,5.3917,5.491,5.4401,5.461,5.5179,5.5179,5.5179,5.5269,4.4499,4.4615,4.4615,4.4615,4.4615,4.4615,4.4615,4.4615,4.4615,4.4615,4.4615,4.4615,4.4615,4.4615,4.4615,4.4615,4.4615,4.4615,4.4615,4.4615,4.477,4.5108,4.5142,4.5277,4.565,4.4871,4.4093,4.3382,4.3382,4.3586,4.391,4.3552,4.3586,4.391,4.3944,4.3741,4.345,4.4262,4.4567,4.4539,4.4959,4.5345,4.565,4.565,4.5887,4.621,4.621,4.6481,4.68,4.68,4.7022,4.7327,4.7327,4.7834,4.8428,4.8428,4.8951,4.9526,4.9526,4.9526,4.9484,4.9355,4.8007,4.6571,4.6287,4.4941,4.3788,4.3788,4.4296,4.4796,4.4796,4.5065,4.5394,4.5723,4.5783,4.6001,4.6659,4.6779,4.6899,4.7279,4.7309,4.7309,4.7309,4.7309,4.7429,4.7758,4.8409,4.8895,4.9172,5.0129,5.0697,5.0697,5.1355,5.1887,5.2187,5.2187,5.2187,5.2157,5.1828,5.1858,5.2157,5.2516,5.2845,5.3174,5.3533,5.4042,5.464,5.4281,5.4576,5.5149,5.482,5.488,5.5179,5.5179,5.5414,5.5743,4.4615,4.4615,4.4615,4.4615,4.4615,4.4615,4.4615,4.4615,4.4615,4.4615,4.4615,4.4615,4.4615,4.4615,4.4615,4.4615,4.4615,4.4649,4.477,4.4804,4.5108,4.5872,4.5906,4.6177,4.68,4.68,4.6191,4.4987,4.4987,4.5277,4.5872,4.5277,4.5244,4.5689,4.521,4.4838,4.4615,4.4871,4.5277,4.5689,4.5838,4.6244,4.68,4.68,4.6887,4.6989,4.6989,4.7056,4.7173,4.7173,4.7597,4.809,4.809,4.8496,4.9018,4.9154,4.9627,5.015,5.0236,5.0159,4.997,4.9752,4.8393,4.6984,4.6416,4.5345,4.4476,4.4476,4.5005,4.5454,4.5454,4.5574,4.5813,4.639,4.648,4.6659,4.7219,4.7309,4.7309,4.7309,4.7309,4.7369,4.7459,4.7489,4.7758,4.8438,4.9067,4.9673,5.0166,5.0847,5.1206,5.1206,5.1295,5.1708,5.2366,5.2366,5.2755,5.3528,5.2845,5.2755,5.3198,5.3318,5.3653,5.4221,5.4341,5.47,5.5179,5.5179,5.5179,5.5179,5.5179,5.5179,5.5209,5.5354,5.5743,5.6222,4.4615,4.4615,4.4615,4.4615,4.4615,4.4615,4.4615,4.4615,4.4615,4.4615,4.4615,4.4615,4.4615,4.4615,4.4615,4.4615,4.4615,4.4871,4.55,4.5568,4.5872,4.6616,4.665,4.6699,4.68,4.68,4.6699,4.6496,4.6496,4.6549,4.665,4.6563,4.621,4.5737,4.6244,4.5785,4.4668,4.5954,4.6177,4.5771,4.638,4.6733,4.68,4.68,4.7192,4.7752,4.7752,4.8157,4.8714,4.8714,4.8781,4.8849,4.8849,4.8917,4.912,4.9763,5.0015,5.0236,5.0863,5.0426,4.9751,4.9712,4.8207,4.6746,4.6652,4.5889,4.5155,4.5155,4.5693,4.6151,4.6151,4.6629,4.707,4.716,4.716,4.7219,4.7309,4.7309,4.7309,4.7309,4.7309,4.7519,4.8087,4.8147,4.8438,4.9097,4.9733,5.0129,5.0196,5.0847,5.1206,5.1206,5.1768,5.2396,5.3079,5.3079,5.3707,5.491,5.4251,5.3653,5.3228,5.3803,5.4132,5.4227,5.482,5.5119,5.5179,5.5179,5.5179,5.5179,5.5179,5.5179,5.5269,5.5863,5.6132,5.6372,4.4615,4.4615,4.4615,4.4615,4.4615,4.4615,4.4615,4.4615,4.4615,4.4615,4.4973,4.5196,4.5196,4.5582,4.565,4.5229,4.5582,4.5785,4.5703,4.6075,4.6447,4.68,4.7192,4.7631,4.8003,4.8037,4.8037,4.8037,4.7192,4.6989,4.7413,4.6989,4.6853,4.694,4.6853,4.6428,4.5887,4.653,4.6853,4.6974,4.7278,4.7665,4.8037,4.8037,4.824,4.8496,4.8496,4.8704,4.8998,4.8998,4.9351,4.9855,4.9855,5.0038,5.0288,5.0642,5.1014,5.1386,5.1725,5.1094,5.0263,5.0115,4.8656,4.7207,4.7077,4.6719,4.6322,4.5933,4.639,4.6839,4.6839,4.71,4.7309,4.7309,4.7309,4.7429,4.7788,4.7549,4.7429,4.7818,4.8199,4.8528,4.8828,4.8858,4.9127,4.9763,5.0039,5.0548,5.1265,5.1236,5.1355,5.1768,5.2067,5.2516,5.3198,5.3563,5.4251,5.5179,5.491,5.461,5.4336,5.461,5.476,5.479,5.5059,5.5179,5.5179,5.5179,5.5179,5.5179,5.5179,5.5444,5.5803,5.6102,5.6671,5.7334]}]]